[[{"header":{"parameterUnit":"m.s-1","parameterCategory":1,"la1":30.6,"la2":29.2853,"lo1":-89.7004,"lo2":-87.6739,"dy":0.0162,"dx":0.0183,"nx":112,"ny":82,"refTime":"2024-07-10T18:00:00:Z","depth":0,"parameterNumber":2,"parameterNumberName":"U-component_of_WINDS"},"data":[0.0,0.0,0.0,0.0,0.0,0.0,0.0,0.0,0.0,0.0,0.0,0.0,0.0,0.0,0.0,0.0,0.0,0.0,0.0,0.0,0.0,0.0,0.0,0.0,0.0,0.0,0.0,0.0,0.0,0.0,0.0,0.0,0.0,0.0,0.0,0.0,0.0,0.0,0.0,0.0,0.0,0.0,0.0,0.0,0.0,0.0,0.0,0.0,0.0,0.0,0.0,0.0,0.0,0.0,0.0,0.0,0.0,0.0,0.0,0.0,0.0,0.0,0.0,0.0,0.0,0.0,0.0,0.0,0.0,0.0,0.0,0.0,0.0,0.0,0.0,0.0,0.0,0.0,0.0,0.0,0.0,0.0,0.0,0.0,0.0,0.0,0.0,0.0,0.0,0.0,0.0,-3.4021,-3.4197,-3.3802,-3.2793,-3.2024,-3.1182,-3.019,0.0,0.0,0.0,0.0,0.0,0.0,0.0,0.0,0.0,0.0,0.0,0.0,0.0,0.0,0.0,0.0,0.0,0.0,0.0,0.0,0.0,0.0,0.0,0.0,0.0,0.0,0.0,0.0,0.0,0.0,0.0,0.0,0.0,0.0,0.0,0.0,0.0,0.0,0.0,0.0,0.0,0.0,0.0,0.0,0.0,0.0,0.0,0.0,0.0,0.0,0.0,0.0,0.0,0.0,0.0,0.0,0.0,0.0,0.0,0.0,0.0,0.0,0.0,0.0,0.0,0.0,0.0,0.0,0.0,0.0,0.0,0.0,0.0,0.0,0.0,0.0,0.0,0.0,0.0,0.0,0.0,0.0,0.0,0.0,0.0,0.0,0.0,0.0,0.0,0.0,0.0,0.0,0.0,0.0,0.0,0.0,0.0,0.0,0.0,0.0,0.0,0.0,0.0,0.0,-3.2414,-3.4021,-3.4197,-3.3569,-3.2006,-3.1709,-3.0942,-2.9375,0.0,0.0,0.0,0.0,0.0,0.0,0.0,0.0,0.0,0.0,0.0,0.0,0.0,0.0,0.0,0.0,0.0,0.0,0.0,0.0,0.0,0.0,0.0,0.0,0.0,0.0,0.0,0.0,0.0,0.0,0.0,0.0,0.0,0.0,0.0,0.0,0.0,0.0,0.0,0.0,0.0,0.0,0.0,0.0,0.0,0.0,0.0,0.0,0.0,0.0,0.0,0.0,0.0,0.0,0.0,0.0,0.0,0.0,0.0,0.0,0.0,0.0,0.0,0.0,0.0,0.0,0.0,0.0,0.0,0.0,0.0,0.0,0.0,0.0,0.0,0.0,0.0,0.0,0.0,0.0,0.0,0.0,0.0,0.0,0.0,0.0,0.0,0.0,0.0,0.0,0.0,0.0,0.0,0.0,0.0,0.0,0.0,0.0,0.0,0.0,0.0,0.0,0.0,-3.2242,-3.2897,-3.4067,-3.4173,-3.3466,-3.1797,-3.1449,-3.0671,-2.9131,-2.7489,0.0,0.0,0.0,0.0,0.0,0.0,0.0,0.0,0.0,0.0,0.0,0.0,0.0,0.0,0.0,0.0,0.0,0.0,0.0,0.0,0.0,0.0,0.0,0.0,0.0,0.0,0.0,0.0,0.0,0.0,0.0,0.0,0.0,0.0,0.0,0.0,0.0,0.0,0.0,0.0,0.0,0.0,0.0,0.0,0.0,0.0,0.0,0.0,0.0,0.0,0.0,0.0,0.0,0.0,0.0,0.0,0.0,0.0,0.0,0.0,0.0,0.0,0.0,0.0,0.0,0.0,0.0,0.0,0.0,0.0,0.0,0.0,0.0,0.0,0.0,0.0,0.0,0.0,0.0,0.0,0.0,0.0,0.0,0.0,0.0,0.0,0.0,0.0,0.0,0.0,0.0,0.0,0.0,0.0,0.0,0.0,0.0,0.0,0.0,0.0,0.0,0.0,-3.3045,-3.3477,-3.4006,-3.3996,-3.3264,-3.1519,-3.1108,-3.0295,-2.8867,-2.693,0.0,0.0,0.0,0.0,0.0,0.0,0.0,0.0,0.0,0.0,0.0,0.0,0.0,0.0,0.0,0.0,0.0,0.0,0.0,0.0,0.0,0.0,0.0,0.0,0.0,0.0,0.0,0.0,0.0,0.0,0.0,0.0,0.0,0.0,0.0,0.0,0.0,0.0,0.0,0.0,0.0,0.0,0.0,0.0,0.0,0.0,0.0,0.0,0.0,0.0,0.0,0.0,0.0,0.0,0.0,0.0,0.0,0.0,0.0,0.0,0.0,0.0,0.0,0.0,0.0,0.0,0.0,0.0,0.0,0.0,0.0,0.0,0.0,0.0,0.0,0.0,0.0,0.0,0.0,0.0,0.0,0.0,0.0,0.0,0.0,0.0,0.0,0.0,0.0,0.0,0.0,0.0,0.0,0.0,0.0,0.0,0.0,0.0,0.0,0.0,0.0,0.0,-3.3185,-3.3981,-3.367,-3.3643,-3.283,-3.0842,-3.0539,-2.9773,-2.8163,-2.71,0.0,0.0,0.0,0.0,0.0,0.0,0.0,0.0,0.0,0.0,0.0,0.0,0.0,0.0,0.0,0.0,0.0,0.0,0.0,0.0,0.0,0.0,0.0,0.0,0.0,0.0,0.0,0.0,0.0,0.0,0.0,0.0,0.0,0.0,0.0,0.0,0.0,0.0,0.0,0.0,0.0,0.0,0.0,0.0,0.0,0.0,0.0,0.0,0.0,0.0,0.0,0.0,0.0,0.0,0.0,0.0,0.0,0.0,0.0,0.0,0.0,0.0,0.0,0.0,0.0,0.0,0.0,0.0,0.0,0.0,0.0,0.0,0.0,0.0,0.0,0.0,0.0,0.0,0.0,0.0,0.0,0.0,0.0,0.0,0.0,0.0,0.0,0.0,0.0,0.0,0.0,0.0,0.0,0.0,0.0,0.0,0.0,0.0,0.0,0.0,0.0,0.0,-3.1955,-3.2548,0.0,-3.2243,-3.1776,-2.9994,-2.958,-2.9001,-2.8053,0.0,0.0,0.0,0.0,0.0,0.0,0.0,0.0,0.0,0.0,0.0,0.0,0.0,0.0,0.0,0.0,0.0,0.0,0.0,0.0,0.0,0.0,0.0,0.0,0.0,0.0,0.0,0.0,0.0,0.0,0.0,0.0,0.0,0.0,0.0,0.0,0.0,0.0,0.0,0.0,0.0,0.0,0.0,0.0,0.0,0.0,0.0,0.0,0.0,0.0,0.0,0.0,0.0,0.0,0.0,0.0,0.0,0.0,0.0,0.0,0.0,0.0,0.0,0.0,0.0,0.0,0.0,0.0,0.0,0.0,0.0,0.0,0.0,0.0,0.0,0.0,0.0,0.0,0.0,0.0,0.0,0.0,0.0,0.0,0.0,0.0,0.0,0.0,0.0,0.0,0.0,0.0,0.0,0.0,0.0,0.0,0.0,0.0,0.0,0.0,0.0,0.0,-3.028,-3.1338,-3.1672,0.0,-3.1181,-3.0656,-2.9184,-2.8553,-2.7967,-2.7321,0.0,0.0,0.0,0.0,0.0,0.0,0.0,0.0,0.0,0.0,0.0,0.0,0.0,0.0,0.0,0.0,0.0,0.0,0.0,0.0,0.0,0.0,0.0,0.0,0.0,0.0,0.0,0.0,0.0,0.0,0.0,0.0,0.0,0.0,0.0,0.0,0.0,0.0,0.0,0.0,0.0,0.0,0.0,0.0,0.0,0.0,0.0,0.0,0.0,0.0,0.0,0.0,0.0,0.0,0.0,0.0,0.0,0.0,0.0,0.0,0.0,0.0,0.0,0.0,0.0,0.0,0.0,0.0,0.0,0.0,0.0,0.0,0.0,0.0,0.0,0.0,0.0,0.0,0.0,0.0,0.0,0.0,0.0,0.0,0.0,0.0,0.0,0.0,0.0,0.0,0.0,0.0,0.0,0.0,0.0,0.0,0.0,0.0,0.0,0.0,0.0,0.0,-3.0923,-3.1591,-3.1739,-3.132,-3.055,-2.9586,-2.8388,-2.7483,-2.6616,0.0,0.0,0.0,0.0,0.0,0.0,0.0,0.0,0.0,0.0,0.0,0.0,0.0,0.0,0.0,0.0,0.0,0.0,0.0,0.0,0.0,0.0,0.0,0.0,0.0,0.0,0.0,0.0,0.0,0.0,0.0,0.0,0.0,0.0,0.0,0.0,0.0,0.0,0.0,0.0,0.0,0.0,0.0,0.0,0.0,0.0,0.0,0.0,0.0,0.0,0.0,0.0,0.0,0.0,0.0,0.0,0.0,0.0,0.0,0.0,0.0,0.0,0.0,0.0,0.0,0.0,0.0,0.0,0.0,0.0,0.0,0.0,0.0,0.0,0.0,0.0,0.0,0.0,0.0,0.0,0.0,0.0,0.0,0.0,0.0,0.0,0.0,0.0,0.0,0.0,0.0,0.0,0.0,0.0,0.0,0.0,0.0,0.0,0.0,0.0,0.0,0.0,0.0,-2.8819,-3.0194,-3.0672,-2.9451,-2.9064,-2.8525,-2.7538,-2.7184,-2.6642,-2.5747,0.0,0.0,0.0,0.0,0.0,0.0,0.0,0.0,0.0,0.0,0.0,0.0,0.0,0.0,0.0,0.0,0.0,0.0,0.0,0.0,0.0,0.0,0.0,0.0,0.0,0.0,0.0,0.0,0.0,0.0,0.0,0.0,0.0,0.0,0.0,0.0,0.0,0.0,0.0,0.0,0.0,0.0,0.0,0.0,0.0,0.0,0.0,0.0,0.0,0.0,0.0,0.0,0.0,0.0,0.0,0.0,0.0,0.0,0.0,0.0,0.0,0.0,0.0,0.0,0.0,0.0,0.0,0.0,0.0,0.0,0.0,0.0,0.0,0.0,0.0,0.0,0.0,0.0,0.0,0.0,0.0,0.0,0.0,0.0,0.0,0.0,0.0,0.0,0.0,0.0,0.0,0.0,0.0,0.0,0.0,0.0,0.0,0.0,0.0,0.0,0.0,0.0,-2.7814,-2.9013,-2.9504,-2.8563,-2.8118,-2.765,-2.7122,-2.6435,-2.593,-2.5649,0.0,0.0,0.0,0.0,0.0,0.0,0.0,0.0,0.0,0.0,0.0,0.0,0.0,0.0,0.0,0.0,0.0,0.0,0.0,0.0,0.0,0.0,0.0,0.0,0.0,0.0,0.0,0.0,0.0,0.0,0.0,0.0,0.0,0.0,0.0,0.0,0.0,0.0,0.0,0.0,0.0,0.0,0.0,0.0,0.0,0.0,0.0,0.0,0.0,0.0,0.0,0.0,0.0,0.0,0.0,0.0,0.0,0.0,0.0,0.0,0.0,0.0,0.0,0.0,0.0,0.0,0.0,0.0,0.0,0.0,0.0,0.0,0.0,0.0,0.0,0.0,0.0,0.0,0.0,0.0,0.0,0.0,0.0,0.0,0.0,0.0,0.0,0.0,0.0,0.0,0.0,0.0,0.0,0.0,0.0,0.0,0.0,0.0,0.0,0.0,0.0,0.0,-2.7528,-2.8021,-2.8265,-2.8187,-2.7444,-2.6942,-2.6802,-2.5488,-2.4901,-2.5385,0.0,0.0,0.0,0.0,0.0,0.0,0.0,0.0,0.0,0.0,0.0,0.0,0.0,0.0,0.0,0.0,0.0,0.0,0.0,0.0,0.0,0.0,0.0,0.0,0.0,0.0,0.0,0.0,0.0,0.0,0.0,0.0,0.0,0.0,0.0,0.0,0.0,0.0,0.0,0.0,0.0,0.0,0.0,0.0,0.0,0.0,0.0,0.0,0.0,0.0,0.0,0.0,0.0,0.0,0.0,0.0,0.0,0.0,0.0,0.0,-2.9336,0.0,0.0,0.0,0.0,0.0,0.0,0.0,0.0,0.0,0.0,0.0,0.0,0.0,0.0,0.0,0.0,0.0,0.0,0.0,0.0,0.0,0.0,0.0,0.0,0.0,0.0,0.0,0.0,0.0,0.0,0.0,0.0,0.0,0.0,0.0,0.0,0.0,0.0,0.0,0.0,0.0,-2.6476,-2.7006,-2.7152,-2.6567,-2.6299,-2.5863,-2.5164,-2.528,-2.5169,-2.4671,-2.3457,0.0,0.0,0.0,0.0,0.0,0.0,0.0,0.0,0.0,0.0,0.0,0.0,0.0,0.0,0.0,0.0,0.0,0.0,0.0,0.0,0.0,0.0,0.0,0.0,0.0,0.0,0.0,0.0,0.0,0.0,0.0,0.0,0.0,0.0,0.0,0.0,0.0,0.0,0.0,0.0,0.0,0.0,0.0,0.0,0.0,0.0,0.0,0.0,0.0,0.0,0.0,0.0,0.0,0.0,0.0,0.0,0.0,0.0,0.0,0.0,-2.8755,0.0,0.0,0.0,0.0,0.0,0.0,0.0,0.0,0.0,0.0,0.0,0.0,0.0,0.0,0.0,0.0,0.0,0.0,0.0,0.0,0.0,0.0,0.0,0.0,0.0,0.0,0.0,0.0,0.0,0.0,0.0,0.0,0.0,0.0,0.0,0.0,0.0,0.0,0.0,0.0,-2.5553,-2.6138,-2.6287,-2.5519,-2.5325,-2.5093,-2.4623,-2.454,-2.4576,-2.481,-2.3677,0.0,0.0,0.0,0.0,0.0,0.0,0.0,0.0,0.0,0.0,0.0,0.0,0.0,0.0,0.0,0.0,0.0,0.0,0.0,0.0,0.0,0.0,0.0,0.0,0.0,0.0,0.0,0.0,0.0,0.0,0.0,0.0,0.0,0.0,0.0,0.0,0.0,0.0,0.0,0.0,0.0,0.0,0.0,0.0,0.0,0.0,0.0,0.0,0.0,0.0,0.0,0.0,0.0,-3.0321,-3.0318,-3.0203,-2.9846,-2.9491,-2.9072,-2.8341,-2.842,-2.9076,0.0,0.0,0.0,0.0,0.0,0.0,0.0,0.0,0.0,0.0,0.0,0.0,0.0,0.0,0.0,0.0,0.0,0.0,0.0,0.0,0.0,0.0,0.0,0.0,0.0,-3.1898,-3.2493,0.0,0.0,0.0,0.0,0.0,0.0,0.0,0.0,0.0,0.0,0.0,0.0,-2.4897,-2.539,-2.5394,-2.4479,-2.4381,-2.4321,-2.4194,-2.3642,-2.3743,-2.4845,-2.3556,-2.3086,0.0,0.0,0.0,0.0,0.0,0.0,0.0,0.0,0.0,0.0,0.0,0.0,0.0,0.0,0.0,0.0,0.0,0.0,0.0,0.0,0.0,0.0,0.0,0.0,0.0,0.0,0.0,0.0,0.0,0.0,0.0,0.0,-2.4397,-2.6291,0.0,0.0,0.0,0.0,0.0,0.0,0.0,0.0,0.0,0.0,0.0,0.0,0.0,-2.9525,-3.0071,-3.022,-3.0295,-3.0295,-3.0251,-3.0257,-3.027,-2.9815,-2.9615,-2.9578,-2.907,0.0,-2.8957,-2.8191,0.0,0.0,0.0,0.0,0.0,0.0,0.0,0.0,0.0,0.0,0.0,0.0,0.0,0.0,0.0,0.0,0.0,0.0,0.0,0.0,0.0,0.0,-3.051,-3.0345,-3.0774,-3.1083,0.0,-2.9808,-2.9422,-3.0499,-2.8333,0.0,0.0,0.0,0.0,0.0,0.0,0.0,-2.4825,-2.4774,-2.4254,-2.2847,-2.3214,-2.3291,-2.2579,-2.2929,-2.3246,-2.3312,-2.2455,-2.23,-2.3007,-2.2949,0.0,0.0,0.0,0.0,0.0,0.0,0.0,0.0,0.0,0.0,0.0,0.0,0.0,0.0,0.0,0.0,0.0,0.0,0.0,0.0,0.0,0.0,0.0,0.0,0.0,0.0,0.0,0.0,0.0,-2.3763,-2.5699,-2.5935,-2.721,-2.748,0.0,0.0,0.0,0.0,0.0,0.0,0.0,0.0,0.0,-2.9817,-2.9794,-2.998,-3.0397,-3.0372,-3.0318,-3.0234,-3.0211,-3.0156,-3.0079,-2.9786,-2.9589,-2.9455,-2.9106,-2.8952,-2.8901,-2.8521,-2.8384,-2.8351,0.0,0.0,0.0,0.0,-2.8363,-2.859,-2.8115,-2.8233,0.0,-2.86,0.0,0.0,0.0,0.0,0.0,0.0,0.0,0.0,0.0,0.0,0.0,-2.9748,-2.918,-2.8502,-2.8518,-2.8582,-2.8911,0.0,-2.8734,-2.7173,-2.6048,0.0,0.0,0.0,0.0,0.0,-2.4752,-2.4619,-2.4007,-2.2462,-2.2549,-2.2562,-2.2123,-2.2333,-2.2603,-2.2981,-2.2646,-2.2559,-2.2882,-2.2899,-2.2742,0.0,0.0,0.0,0.0,0.0,0.0,0.0,0.0,0.0,0.0,0.0,0.0,0.0,0.0,0.0,0.0,0.0,0.0,0.0,0.0,0.0,0.0,0.0,0.0,0.0,0.0,0.0,0.0,-2.5727,-2.71,-2.6447,-2.8232,-2.8665,0.0,0.0,0.0,0.0,0.0,0.0,-2.8758,-2.9817,-3.0491,-3.0702,-3.0665,-3.0548,-3.0385,-3.0364,-3.0318,-3.0199,-3.0203,-3.009,-2.9888,-2.9743,-2.9532,-2.9251,-2.9016,-2.8872,-2.8848,-2.8848,-2.8834,-2.8785,-2.8703,-2.8669,-2.8694,-2.8612,-2.8587,-2.8587,-2.8587,-2.8587,-2.8603,-2.8599,0.0,-2.8376,-2.714,0.0,0.0,0.0,0.0,-2.8097,-2.8806,-2.8229,-2.7658,-2.8624,-2.7825,-2.6858,-2.6969,-2.7433,-2.8041,0.0,-2.8639,-2.7987,-2.6616,0.0,0.0,0.0,0.0,-2.5783,-2.4695,-2.4537,-2.3947,-2.2311,-2.216,-2.2106,-2.1969,-2.194,-2.2132,-2.2659,-2.264,-2.2617,-2.2617,-2.28,-2.2808,-2.2617,0.0,0.0,0.0,0.0,0.0,0.0,0.0,0.0,0.0,0.0,0.0,0.0,0.0,0.0,0.0,0.0,0.0,0.0,0.0,0.0,0.0,0.0,0.0,0.0,0.0,0.0,0.0,0.0,0.0,-2.9014,-2.9803,0.0,0.0,0.0,0.0,-2.7832,-2.8544,-2.9015,-2.9084,-2.9919,-3.0742,-3.1524,-3.1543,-3.1139,-3.0316,-3.0318,-3.028,-3.0198,-3.0199,-3.0079,-2.9888,-2.9708,-2.9465,-2.9188,-2.8994,-2.8825,-2.8718,-2.8718,-2.8761,-2.8795,-2.8671,-2.8628,-2.8694,-2.8612,-2.8587,-2.8587,-2.8587,-2.8587,-2.8605,-2.8611,-2.8601,-2.8406,-2.7308,-2.7468,0.0,0.0,-2.689,-2.7181,-2.6925,-2.7047,-2.7135,-2.6901,-2.7023,-2.7283,-2.7665,-2.7241,-2.708,0.0,-2.8016,-2.7825,-2.7723,0.0,-2.6825,-2.6682,-2.6774,-2.6265,-2.4624,-2.4399,-2.3787,-2.2186,-2.2027,-2.1969,-2.192,-2.189,-2.1878,-2.1869,-2.1847,-2.1847,-2.1847,-2.2518,-2.2568,-2.1855,-2.3189,0.0,0.0,0.0,0.0,0.0,0.0,0.0,0.0,0.0,0.0,0.0,0.0,0.0,0.0,0.0,0.0,0.0,0.0,0.0,0.0,0.0,0.0,0.0,0.0,0.0,0.0,0.0,0.0,-2.8501,-3.0051,0.0,-2.8556,-2.9054,-2.9284,-2.8707,-2.9458,-2.9938,-2.9938,-3.0722,-3.1293,-3.1588,-3.2095,-3.222,-3.1904,-3.0801,-3.0219,-3.0199,-3.0026,-2.9841,-2.9644,-2.9436,-2.9188,-2.8934,-2.8815,-2.8743,-2.8703,-2.8653,-2.8662,-2.8671,-2.8612,-2.8612,-2.8612,-2.851,-2.8467,-2.8476,-2.8416,-2.8497,-2.8542,-2.8143,-2.8177,-2.8214,-2.752,-2.7434,-2.747,-2.7159,-2.7056,-2.7019,-2.7115,-2.6956,-2.675,-2.6832,-2.6791,-2.6776,-2.6943,-2.6757,-2.6689,-2.7058,-2.7104,-2.7071,-2.7028,-2.6851,-2.6683,-2.6563,-2.6615,-2.6253,-2.5112,-2.4558,-2.384,-2.2767,-2.2233,-2.192,-2.184,-2.1848,-2.1789,-2.1694,-2.1664,-2.1625,-2.1495,-2.1748,-2.2017,-2.2363,-2.2421,-2.2475,0.0,0.0,0.0,0.0,0.0,0.0,0.0,0.0,0.0,0.0,0.0,0.0,0.0,0.0,0.0,0.0,0.0,0.0,0.0,0.0,0.0,0.0,0.0,0.0,0.0,0.0,-3.0044,-2.8874,-3.0481,-3.0924,-2.8938,-2.9756,-3.0169,-2.9583,-3.0073,-3.0388,-3.0367,-3.0873,-3.1424,-3.1993,-3.2513,-3.3053,-3.3599,-3.1723,-3.0581,-3.02,-2.9971,-2.9746,-2.9486,-2.9346,-2.9088,-2.8752,-2.8728,-2.8678,-2.8653,-2.8562,-2.8536,-2.8536,-2.8536,-2.8501,-2.8449,-2.838,-2.8327,-2.8336,-2.8282,-2.8362,-2.8387,-2.786,-2.79,-2.8074,-2.7696,-2.7448,-2.7295,-2.7246,-2.701,-2.6808,-2.7036,-2.6817,-2.6537,-2.6716,-2.6615,-2.6493,-2.6493,-2.6493,-2.6493,-2.6493,-2.6563,-2.6623,-2.6572,-2.6554,-2.6554,-2.6493,-2.6493,-2.6209,-2.5363,-2.4837,-2.4121,-2.3084,-2.2535,-2.2084,-2.1763,-2.1759,-2.17,-2.1511,-2.155,-2.152,-2.1317,-2.1317,-2.1607,-2.2238,-2.2001,-2.2385,-2.3441,0.0,0.0,0.0,0.0,0.0,0.0,0.0,0.0,0.0,0.0,0.0,0.0,0.0,0.0,0.0,0.0,0.0,0.0,0.0,0.0,0.0,0.0,0.0,-3.0243,-3.0378,-3.0406,-3.04,-3.115,-3.1333,-3.0475,-3.0379,-3.035,-3.035,-3.0359,-3.0328,-3.0266,-3.0343,-3.112,-3.2757,-3.2852,-3.3627,-3.5187,-3.3016,-3.1344,-3.0195,-3.0055,-2.9815,-2.9495,-2.9425,-2.9141,-2.8703,-2.8703,-2.8662,-2.8587,-2.8441,-2.8398,-2.8389,-2.8389,-2.8327,-2.821,-2.821,-2.8182,-2.8174,-2.8174,-2.8171,-2.8131,-2.7796,-2.7831,-2.7968,-2.7827,-2.7556,-2.7224,-2.697,-2.6691,-2.6493,-2.6493,-2.6493,-2.6493,-2.6493,-2.6493,-2.6493,-2.6493,-2.6493,-2.6493,-2.6493,-2.6493,-2.6485,-2.6485,-2.6485,-2.6485,-2.6485,-2.6493,0.0,-2.5346,-2.5204,-2.4614,-2.3114,-2.2924,-2.2555,-2.171,-2.1733,-2.1639,-2.1309,-2.1489,-2.1481,-2.1285,-2.131,-2.1326,-2.135,-2.207,-2.3106,-2.4463,0.0,0.0,0.0,0.0,0.0,0.0,0.0,0.0,0.0,0.0,0.0,0.0,0.0,0.0,0.0,0.0,0.0,0.0,0.0,0.0,0.0,0.0,-2.9199,-2.9481,-3.0029,-3.04,-3.041,-3.06,-3.0658,-3.0417,-2.9833,-2.9458,-2.9458,-2.9454,-2.9452,-2.943,-3.1136,-3.2321,-3.2795,-3.3932,-3.4745,-3.5193,-3.3344,-3.1578,-2.9979,-2.9808,-2.9589,-2.9346,-2.9175,-2.8924,-2.8637,-2.8637,-2.8562,-2.8441,-2.8415,-2.8282,-2.8118,-2.8219,-2.8237,-2.8182,-2.8081,-2.795,-2.7847,-2.7847,-2.7844,-2.7824,-2.7739,-2.7736,-2.7701,-2.7338,-2.7158,-2.6989,-2.6504,-2.6329,-2.6283,-2.6283,-2.6283,-2.6283,-2.6283,-2.6283,-2.6283,-2.6283,-2.6283,-2.6283,-2.6283,-2.6283,-2.631,-2.6347,-2.6339,-2.6355,-2.6274,-2.6283,0.0,-2.5957,-2.5339,-2.4817,-2.4505,-2.3309,-2.2516,-2.24,-2.1814,-2.1348,-2.1159,-2.1199,-2.1159,-2.0966,-2.1442,-2.2019,-2.2601,-2.2955,-2.3331,0.0,0.0,0.0,0.0,0.0,0.0,0.0,0.0,0.0,0.0,0.0,0.0,0.0,0.0,0.0,0.0,0.0,0.0,0.0,0.0,0.0,0.0,-2.9102,-2.965,-2.9701,-3.0102,-3.0398,-3.0398,-3.0398,-3.0398,-3.0398,-2.9938,-2.9486,-2.9121,-2.9415,-2.9438,-2.908,-3.0745,-3.1881,-3.224,-3.3161,-3.3916,-3.4479,-3.288,-3.1343,-2.9933,-2.9769,-2.9561,-2.9293,-2.9123,-2.8868,0.0,-2.8536,-2.8467,-2.8389,-2.8282,-2.8145,0.0,0.0,0.0,0.0,0.0,-2.7798,-2.7692,-2.7692,-2.7692,-2.7692,-2.7692,-2.7692,-2.7633,-2.7293,-2.7103,-2.6908,-2.6477,-2.6283,-2.6176,-2.6096,-2.6132,-2.6176,-2.597,-2.6007,-2.6051,-2.597,-2.5696,-2.5565,-2.5876,-2.5469,0.0,-2.5491,-2.5955,-2.6214,-2.6087,-2.6051,-2.6051,-2.595,-2.5484,-2.5064,-2.4884,-2.364,-2.2709,-2.2459,-2.173,0.0,0.0,0.0,-2.1564,-2.1698,-2.2082,0.0,0.0,0.0,0.0,0.0,0.0,0.0,0.0,-2.5242,-2.5309,0.0,0.0,0.0,0.0,0.0,0.0,0.0,0.0,0.0,0.0,0.0,0.0,0.0,0.0,0.0,0.0,-2.9833,-3.0398,-3.0398,-3.0323,-3.0294,-3.0388,-3.0398,-3.0398,-3.0398,-3.0302,-2.9938,-2.9159,-2.975,-2.9819,-2.9043,0.0,0.0,0.0,0.0,-3.2162,-3.3295,-3.1946,-3.0839,-2.9972,-2.9859,-2.9626,-2.9282,-2.9157,-2.8888,-2.8562,-2.8441,-2.8362,-2.8336,-2.809,-2.7933,-2.7853,-2.7933,-2.7873,-2.771,-2.7701,-2.7663,-2.7672,-2.7663,0.0,0.0,-2.7663,-2.7672,-2.7642,-2.7386,-2.7126,-2.6866,-2.6555,-2.6302,-2.6096,-2.5926,-2.6015,-2.6051,-2.5688,-2.5668,-2.5685,-2.5521,-2.4916,-2.4591,-2.524,-2.4332,-2.3702,-2.4291,-2.5283,-2.5964,-2.5766,-2.5795,-2.5815,-2.5608,-2.5584,-2.53,-2.4576,0.0,0.0,-2.2167,-2.1569,-2.1408,-2.1761,-2.1959,-2.2327,-2.2892,-2.2959,-2.3285,-2.4026,-2.4003,-2.4311,-2.5013,-2.517,-2.5363,-2.5559,-2.5201,-2.5107,0.0,0.0,0.0,0.0,0.0,0.0,0.0,0.0,0.0,0.0,0.0,0.0,0.0,0.0,0.0,-2.9077,-2.9829,-3.0398,-3.0398,-2.9794,-2.9611,-3.0311,-3.0398,-3.0398,-3.0398,-2.9765,-2.9273,-2.9106,-2.9195,-2.9177,-2.9018,-3.0433,-3.1293,-3.1427,-3.2054,-3.228,-3.2048,-3.1438,-3.0672,-2.9767,0.0,0.0,-2.9277,-2.9056,-2.877,-2.8441,-2.83,-2.8191,-2.8053,-2.8034,-2.7549,-2.6913,-2.754,-2.7736,-2.7691,-2.7656,-2.7578,-2.7539,-2.7465,-2.7457,-2.7465,-2.7531,-2.7548,-2.7439,-2.6848,-2.664,0.0,-2.5957,-2.5762,-2.5696,-2.5688,-2.5688,-2.5696,-2.5637,-2.5183,-2.4774,-2.4729,-2.4178,-2.375,-2.3888,-2.3694,-2.3539,-2.3677,-2.433,-2.4818,-2.4774,-2.5277,-2.565,-2.5621,-2.547,-2.5121,-2.458,-2.3611,-2.2781,-2.2224,-2.1397,-2.0923,-2.1,-2.1595,-2.222,-2.2856,-2.3177,-2.3756,-2.4752,-2.4531,-2.4601,-2.5013,-2.5053,-2.517,-2.5355,-2.5595,-2.5829,0.0,0.0,0.0,0.0,0.0,0.0,0.0,0.0,0.0,0.0,0.0,-2.6756,-2.7592,0.0,-2.9186,-2.9632,-3.0067,-3.0203,-2.9813,-2.9371,-2.9256,-2.9698,-2.936,-2.9271,-2.9713,-2.9327,-2.9056,-2.9051,-2.9398,-2.942,-2.9015,-3.017,-3.082,-3.0748,-3.1146,-3.1166,-3.0801,-3.0567,-3.0213,-2.9743,-2.9608,-2.9189,-2.8495,-2.8287,-2.8058,-2.7769,-2.7165,-2.7085,-2.7357,-2.6848,-2.6518,-2.6383,-2.6771,-2.6924,-2.6993,-2.7393,-2.7517,-2.7487,-2.7435,-2.7387,-2.7426,-2.7478,-2.7496,-2.7426,-2.71,-2.6782,-2.6428,-2.6139,-2.584,-2.5575,-2.547,-2.5538,-2.5449,-2.4876,-2.4537,-2.4241,-2.3787,-2.3178,-2.2793,-2.3122,-2.2617,-2.2282,-2.2625,-2.2986,-2.3366,-2.3774,-2.4172,-2.4362,-2.4243,-2.4148,-2.4021,-2.3719,-2.2929,-2.2318,-2.2073,-2.1621,-2.1347,-2.1347,-2.1906,-2.2404,-2.2872,-2.2914,-2.3257,-2.3961,-2.377,-2.3951,-2.4444,-2.4444,-2.4743,-2.5286,-2.5516,-2.5749,0.0,0.0,0.0,0.0,0.0,0.0,0.0,0.0,-2.4467,-2.5893,-2.6502,-2.7175,-2.8523,-2.9034,-2.9502,-3.0213,-3.0184,-2.985,-2.9222,-2.8846,-2.8613,-2.8613,-2.8139,-2.8076,-2.8775,-2.8802,-2.8835,-2.8995,-2.9589,-2.9748,-2.926,-2.9845,-3.0166,-3.0102,-3.0078,-2.9997,-2.9881,-2.9816,-2.9773,-2.9773,-2.9551,-2.8717,-2.7349,-2.7186,-2.704,-2.6858,-2.5932,-2.5906,-2.6435,-2.561,-2.5486,-2.5776,-2.5768,-2.5675,-2.5686,-2.6781,-2.7159,-2.7131,-2.6974,-2.7026,-2.7157,-2.72,-2.7178,-2.7125,-2.7201,-2.6782,-2.6282,-2.622,-2.586,-2.5462,-2.5286,-2.5251,-2.5032,-2.4125,-2.3806,-2.3566,-2.2845,-2.2161,-2.1845,-2.2374,-2.1568,-2.0984,-2.1576,-2.1679,-2.1977,-2.2808,-2.3059,-2.3068,-2.2916,-2.288,-2.2833,-2.2706,-2.2216,-2.1837,-2.1695,-2.1679,-2.1679,-2.1679,-2.2113,-2.2488,-2.269,-2.2577,-2.2602,-2.288,-2.2852,-2.3083,-2.3717,-2.3852,-2.4284,-2.5048,-2.523,-2.5524,-2.3906,-2.4219,-2.4414,-2.4632,-2.4674,-2.4731,0.0,0.0,-2.5118,-2.537,-2.666,-2.7787,-2.7913,-2.9202,-3.0275,-3.0371,-2.9743,-2.9244,-2.927,-2.7894,-2.6882,-2.6882,-2.7418,-2.7846,-2.7946,-2.7934,-2.8229,-2.8961,-2.9082,-2.9413,-3.0036,-3.0147,-3.0166,-3.0102,-2.9972,-2.9891,-2.9816,-2.9746,-2.9711,-2.9711,-2.9673,-2.8406,-2.6096,-2.5837,-2.5787,-2.5843,-2.5481,-2.5391,-2.5442,-2.5272,-2.4993,-2.4663,-2.4609,-2.4038,-2.3493,-2.5381,-2.6011,-2.5833,-2.5411,-2.5708,-2.626,-2.626,-2.6011,-2.5786,-2.6141,-2.5936,-2.554,-2.5246,-2.5115,-2.5045,-2.5053,-2.4577,-2.4048,-2.3939,-2.2998,-2.2133,-2.2019,-2.1434,-2.0944,-2.1015,-2.0905,-2.0826,-2.0905,-2.0913,-2.1166,-2.1927,-2.2544,-2.2924,-2.288,-2.288,-2.2659,-2.2066,-2.1932,-2.1624,-2.0976,-2.0913,-2.0913,-2.0913,-2.1574,-2.1976,-2.2003,-2.2253,-2.2565,-2.288,-2.2594,-2.2633,-2.2998,-2.3615,-2.3954,-2.4095,-2.4914,-2.5524,-2.2346,-2.3262,0.0,0.0,-2.4436,-2.5006,-2.5166,-2.5202,-2.5224,-2.5293,-2.588,-2.6526,-2.7004,-2.7699,-2.8462,0.0,-2.884,-2.8338,-2.811,-2.6819,-2.5714,-2.5204,-2.5437,-2.6005,-2.6954,-2.7005,-2.7338,-2.8186,-2.8243,-2.837,-2.866,-2.9136,-2.9345,-2.9232,-2.9638,-2.9816,-2.9728,-2.9701,-2.9673,-2.9626,-2.9054,-2.7908,-2.628,-2.5466,-2.4733,-2.4146,-2.4638,-2.4452,-2.3841,-2.3867,-2.3701,-2.3449,-2.3423,-2.3152,-2.2951,-2.4375,-2.487,-2.4824,-2.4968,-2.5204,-2.5462,-2.5403,-2.5188,-2.5002,-2.5556,-2.5326,-2.4964,-2.5157,-2.5068,-2.4894,-2.4894,-2.4296,-2.366,-2.3343,-2.2508,-2.1654,-2.1177,-2.0881,-2.0711,-2.0628,-2.0628,-2.0628,-2.0628,-2.0628,-2.073,-2.1036,-2.1413,-2.1671,-2.1671,-2.1671,-2.1568,-2.1232,-2.1125,-2.0957,-2.0652,-2.0628,-2.0628,-2.0628,-2.0774,-2.0937,-2.1083,-2.1061,-2.1208,-2.1498,-2.1358,-2.1588,-2.2217,-2.2464,-2.3059,-2.3923,-2.43,-2.4886,-2.1737,0.0,0.0,-2.3684,-2.4419,-2.5132,-2.5232,-2.5264,-2.5293,-2.5351,-2.5369,-2.5657,-2.6564,-2.6747,-2.7073,-2.8084,-2.7931,-2.7553,-2.7174,-2.5931,-2.4923,-2.453,-2.4263,-2.4743,-2.6365,-2.6272,-2.6436,-2.7281,-2.7338,-2.7418,-2.7589,-2.8146,-2.8396,-2.8249,-2.8808,-2.9171,-2.9335,-2.9336,-2.943,-2.9579,-2.8838,-2.7795,-2.6435,-2.4983,-2.383,-2.3056,-2.3746,-2.3598,-2.2834,-2.2834,-2.2799,-2.2712,-2.2685,-2.2659,-2.2771,-2.346,-2.3861,-2.4104,-2.4256,-2.4448,-2.46,-2.4571,-2.436,-2.4219,-2.4866,-2.4759,-2.4471,-2.4904,-2.4901,-2.4734,-2.4734,-2.4037,-2.3248,-2.2838,-2.2039,-2.1213,-2.0637,-2.0569,-2.061,-2.0527,-2.0494,-2.0494,-2.0494,-2.0494,-2.0494,-2.0494,-2.062,-2.0728,-2.0728,-2.0728,-2.0703,-2.0644,-2.0452,-2.0326,-2.0326,-2.0216,-2.0181,-2.0181,-1.998,-1.9972,-2.0147,-1.9972,-1.9972,-2.0181,-2.0181,-2.047,-2.1041,-2.1234,-2.1966,-2.3188,-2.346,-2.4084,0.0,0.0,-2.3691,-2.4933,-2.5165,-2.5154,-2.5358,-2.5445,-2.5488,-2.5495,-2.5543,-2.5896,-2.6908,-2.7075,-2.7098,-2.7135,-2.7133,-2.7072,-2.6928,-2.5369,-2.4537,-2.536,-2.4648,-2.4761,0.0,-2.5822,-2.5633,-2.6386,-2.644,-2.6778,-2.7551,-2.7618,-2.7547,-2.7352,-2.7355,-2.7712,-2.8426,-2.8436,-2.883,-2.9607,-2.9505,-2.8323,-2.6144,-2.4091,-2.3091,-2.2989,-2.2972,-2.292,-2.2886,-2.2764,-2.2712,-2.2685,-2.2641,-2.2605,-2.2587,-2.2567,-2.3038,-2.3607,-2.285,-2.3044,-2.3642,-2.3642,-2.341,-2.329,-2.4009,-2.4185,-2.413,-2.4146,-2.4358,-2.4589,-2.4589,-2.3624,-2.2618,-2.2594,-2.1549,-2.0517,-2.0501,-2.0494,-2.0494,-2.0494,-2.0494,-2.0494,-2.0494,-2.0494,-2.0494,-2.0494,-2.0527,-2.0527,-2.0527,-2.0527,-2.0527,-2.0527,-2.0131,-1.9927,-1.9927,-1.9564,-1.9354,-1.9354,-1.931,-1.931,-1.9354,-1.931,-1.931,-1.9354,-1.9354,-1.9361,-1.9376,-2.0086,-2.0752,-2.1417,-2.2315,-2.3224,0.0,0.0,-2.0595,-2.1598,-2.2288,-2.2881,-2.3531,-2.3736,-2.3767,-2.3773,-2.3511,-2.3609,-2.4706,-2.4325,-2.4335,-2.5861,-2.6097,-2.6088,-2.604,-2.5022,-2.459,-2.546,-2.5286,0.0,0.0,0.0,0.0,-2.6413,-2.5926,-2.5652,-2.58,-2.6314,-2.6552,-2.6443,-2.6902,-2.7281,-2.7537,-2.7529,-2.7652,-2.7877,-2.7799,-2.668,-2.4623,-2.3407,-2.287,-2.2946,-2.2834,-2.2738,-2.2685,-2.2502,-2.251,-2.263,-2.2516,-2.2463,-2.2463,-2.2443,-2.2586,-2.282,-2.2573,-2.2668,-2.2854,-2.2835,-2.2459,-2.2155,-2.2792,-2.3042,-2.3195,-2.3591,-2.378,-2.3856,-2.3856,-2.2793,-2.1763,-2.1776,-2.1093,-2.0407,-2.0373,-2.0399,-2.0407,-2.0373,-2.0373,-2.0373,-2.0373,-2.0373,-2.0373,-2.0373,-2.0426,-2.0494,-2.0494,-2.0467,-2.0441,-2.0441,-2.0281,-2.0058,-1.9803,-1.9652,-1.9435,-1.9184,-1.9184,-1.9184,-1.9184,-1.9184,-1.9184,-1.9184,-1.9184,-1.9177,-1.9229,-1.9493,-1.9979,-2.0713,-2.145,-2.2267,-1.8598,-1.8707,-1.8906,-1.9831,-2.0545,-2.1229,-2.213,-2.2453,-2.2696,-2.3097,-2.3258,-2.3544,-2.4264,-2.3353,-2.3166,-2.5259,-2.5599,-2.5599,-2.5599,-2.485,-2.4738,-2.5922,-2.5786,-2.6162,0.0,0.0,0.0,-2.6968,-2.6166,-2.5585,-2.5409,-2.5579,-2.5638,-2.554,-2.6008,-2.6377,-2.6667,-2.6643,-2.6645,-2.6647,-2.6442,-2.5448,-2.3692,-2.3009,-2.2743,-2.2807,-2.2685,-2.2606,-2.2544,-2.2379,-2.2395,-2.2523,-2.2409,-2.2364,-2.239,-2.2369,-2.2358,-2.2358,-2.2405,-2.2432,-2.2413,-2.2386,-2.2098,-2.1842,-2.2095,-2.2494,-2.2923,-2.3162,-2.332,-2.3436,-2.3436,-2.2377,-2.1314,-2.1283,-2.0782,-2.027,-2.02,-2.0243,-2.0243,-2.02,-2.02,-2.02,-2.02,-2.02,-2.02,-2.02,-2.027,-2.0289,-2.017,-2.015,-2.0053,-1.9811,-1.966,-1.9471,-1.9162,-1.8983,-1.88,-1.8539,-1.8546,-1.8546,-1.8546,-1.8546,-1.8546,-1.8546,-1.8546,-1.8577,-1.8647,-1.8647,-1.9052,-1.9832,-2.0308,-2.1,-1.9076,-1.8864,-1.8537,-1.9552,-1.986,-2.0172,-2.1116,-2.1639,-2.2231,-2.3412,-2.4575,-2.5388,-2.5479,0.0,-2.3746,-2.5343,-2.5639,-2.5644,-2.5605,-2.4885,-2.5012,0.0,0.0,0.0,0.0,0.0,0.0,-2.799,0.0,-2.6451,-2.6314,-2.5405,-2.4842,-2.4698,-2.4698,-2.5066,-2.5817,-2.575,-2.5791,-2.5903,-2.5498,-2.4637,-2.3388,-2.2911,-2.2607,-2.2461,-2.2502,-2.2458,-2.2415,-2.2334,-2.2341,-2.2383,-2.2309,-2.2343,-2.2377,-2.2302,-2.2274,-2.2274,-2.2274,-2.2282,-2.2282,-2.2282,-2.2282,-2.2209,-2.1848,-2.2467,-2.3181,-2.2856,-2.3009,-2.3248,-2.3248,-2.224,-2.1188,-2.1063,-2.0574,-2.008,-1.999,-2.0005,-2.0005,-2.0005,-2.0005,-2.0005,-2.0005,-2.0005,-2.0005,-2.0005,-2.0005,-1.9884,-1.9566,-1.9603,-1.9442,-1.881,-1.8486,-1.8252,-1.8099,-1.7733,-1.7509,-1.7516,-1.7516,-1.7516,-1.7516,-1.7516,-1.7516,-1.7516,-1.7516,-1.7577,-1.7686,-1.7726,-1.8085,-1.8765,-1.901,-1.9593,-1.6731,-1.6232,-1.5839,-1.6847,-1.7293,-1.7795,-1.8926,-1.9954,-2.1109,-2.27,-2.331,-2.3964,-2.5261,0.0,0.0,-2.5601,-2.6112,0.0,-2.569,-2.5409,0.0,-2.7662,0.0,-2.823,-3.0179,-2.958,0.0,0.0,-2.7505,-2.6495,-2.6314,-2.5405,-2.4837,-2.4704,-2.4657,-2.4692,-2.4855,-2.4797,-2.4718,-2.4653,-2.4251,-2.3833,-2.3373,-2.2823,-2.1259,-1.9165,-2.1493,-2.2008,-2.1291,-2.1995,-2.2271,-2.2237,-2.2237,-2.2155,-2.2101,-2.2073,-2.2073,-2.2073,-2.2073,-2.2135,-2.2242,-2.2242,-2.1991,-2.1653,-2.13,-2.1897,-2.2629,-2.2316,-2.2263,-2.2323,-2.2323,-2.1333,-2.032,-2.0284,-2.0155,-2.0033,-1.9998,-2.0005,-2.0005,-2.0005,-2.0005,-2.0005,-2.0005,-2.0005,-2.0005,-2.0005,-2.0005,-1.9962,-1.9884,-1.9646,-1.9406,-1.9244,-1.8862,-1.8465,-1.8138,-1.7994,-1.7807,-1.7516,-1.7516,-1.7516,-1.7516,-1.7516,-1.7516,-1.7516,-1.7516,-1.7577,-1.7686,-1.8016,-1.8138,-1.816,-1.8961,-1.9528,-1.5565,-1.511,-1.4666,-1.5318,-1.5631,-1.6092,-1.7368,-1.7814,-1.866,-2.1109,-2.2911,0.0,-2.5357,-2.6511,0.0,0.0,0.0,0.0,-2.624,-2.5842,-2.61,0.0,-2.7595,0.0,-2.9434,-2.9117,-2.8831,0.0,-2.747,-2.6564,-2.6352,-2.5453,-2.487,-2.4717,-2.4615,-2.453,-2.4472,-2.4366,-2.4275,-2.42,-2.3815,-2.3252,-2.253,-2.2627,-2.1139,-1.8584,0.0,-2.1535,-2.0955,-2.1503,-2.1888,-2.2106,-2.2106,-2.2061,-2.199,-2.199,-2.1806,-2.1555,-2.1555,-2.1354,-2.1195,-2.1724,-2.1631,-2.1285,-2.1218,-2.1812,-2.2421,-2.2102,-2.1994,-2.1925,-2.163,-2.078,-1.9998,-1.9927,-1.9919,-1.9884,-1.9884,-1.9884,-1.9884,-1.9884,-1.9884,-1.9884,-1.9884,-1.9884,-1.9884,-1.9884,-1.9741,-1.9596,-1.9596,-1.9472,-1.9229,-1.8755,-1.8518,-1.8205,-1.7727,-1.7727,-1.7619,-1.7399,-1.7358,-1.7358,-1.7358,-1.7358,-1.7358,-1.7358,-1.7358,-1.7523,-1.7814,-1.8042,-1.8233,-1.8365,-1.8906,-1.9273,-1.5019,-1.4791,-1.4395,-1.4575,-1.465,-1.4998,-1.6182,-1.6412,-1.7217,-2.023,0.0,-2.5519,-2.5593,-2.6498,-2.7166,-2.6939,0.0,-2.7026,-2.6919,-2.6247,-2.6062,-2.6819,-2.6911,-2.7216,-2.8026,-2.8,-2.7926,-2.7929,-2.7071,-2.6515,-2.6421,-2.5526,-2.4898,-2.4675,-2.4444,-2.4351,-2.4367,-2.4054,-2.3925,-2.4025,-2.3583,-2.2703,-2.1485,-2.2235,-2.1283,-1.9168,0.0,0.0,-2.0792,-2.082,-2.1186,-2.1697,-2.1697,-2.1705,-2.1677,-2.1677,-2.1281,-2.078,-2.078,-2.0221,-1.972,-2.0886,-2.1038,-2.0823,-2.1153,-2.1716,-2.2129,-2.1904,-2.1826,-2.169,-2.1106,-2.0462,-1.9927,-1.9805,-1.9805,-1.9762,-1.969,-1.9697,-1.9697,-1.9697,-1.9697,-1.969,-1.9654,-1.9617,-1.9574,-1.9574,-1.9236,-1.8974,-1.8974,-1.9101,-1.8822,-1.7915,-1.7875,-1.7713,-1.724,-1.7199,-1.7199,-1.7199,-1.7199,-1.7199,-1.7199,-1.7199,-1.7199,-1.7199,-1.7199,-1.7441,-1.7915,-1.7955,-1.8252,-1.8703,-1.8779,-1.8869,-1.4185,-1.4163,-1.4083,-1.4187,-1.4408,-1.471,-1.5043,-1.9229,0.0,0.0,0.0,-2.5525,-2.5595,-2.6354,-2.6952,-2.6911,0.0,0.0,0.0,0.0,-2.6745,0.0,0.0,0.0,0.0,0.0,0.0,0.0,0.0,-2.5953,-2.6535,-2.557,-2.486,-2.4541,-2.3814,-2.3681,-2.4229,-2.2885,-2.2518,-2.3097,-2.2119,-2.1697,-2.1785,-2.1133,-1.9784,-1.8053,-1.9572,0.0,-1.9161,-1.9823,-2.0089,-2.0092,-2.0092,-2.0073,-1.9992,-1.9902,-1.9781,-1.9646,-1.9535,-1.9126,-1.8783,-1.972,-1.9802,-1.9575,-1.9909,-2.0283,-2.0658,-2.0865,-2.0925,-2.0895,-2.0775,-2.0235,-1.9762,-1.9726,-1.9726,-1.9697,-1.964,-1.9611,-1.9611,-1.9611,-1.9611,-1.9567,-1.9487,-1.9176,-1.8974,-1.8974,-1.8563,-1.8263,-1.8263,-1.8173,-1.7988,-1.7834,-1.7516,-1.7317,-1.7199,-1.7199,-1.7199,-1.7199,-1.7199,-1.7199,-1.7199,-1.7199,-1.7199,-1.7199,-1.7199,-1.7295,-1.7515,-1.7848,-1.7908,-1.7747,-1.8073,-1.8263,-1.2452,-1.2643,-1.2941,-1.3074,-1.3694,-1.4379,-1.4715,0.0,0.0,0.0,-2.5618,-2.556,-2.5595,0.0,0.0,0.0,0.0,0.0,0.0,0.0,0.0,0.0,0.0,0.0,0.0,0.0,0.0,0.0,0.0,-2.5614,-2.5909,-2.5231,-2.4524,-2.3851,-2.3348,-2.3057,-2.295,-2.2152,-2.188,-2.2154,-2.1623,-2.1128,-2.0703,-2.0603,-1.9463,-1.7656,-1.8826,0.0,-1.8635,-1.901,-1.9306,-1.953,-1.953,-1.9476,-1.9367,-1.932,-1.9047,-1.8722,-1.864,-1.8143,-1.763,-1.8421,-1.8739,-1.8934,-1.9389,-1.9894,-2.0332,-2.0489,-2.0547,-2.0466,-2.0124,-1.9797,-1.9552,-1.9552,-1.9552,-1.9523,-1.9494,-1.9501,-1.9501,-1.9501,-1.9339,-1.9139,-1.9101,-1.8731,-1.844,-1.844,-1.8087,-1.7807,-1.7807,-1.7503,-1.7399,-1.7639,-1.7475,-1.7275,-1.708,-1.7038,-1.7038,-1.7038,-1.7038,-1.7038,-1.7038,-1.7038,-1.7038,-1.7038,-1.7038,-1.7205,-1.7543,-1.7767,-1.7915,-1.8068,-1.8252,-1.8394,-1.1042,-1.1398,-1.1897,-1.1903,-1.29,-1.4087,-1.4863,-2.0376,0.0,0.0,-2.5598,-2.5564,-2.5583,0.0,0.0,0.0,0.0,0.0,0.0,0.0,0.0,0.0,0.0,0.0,0.0,0.0,0.0,0.0,0.0,0.0,-2.4952,-2.4646,-2.3989,-2.293,-2.2633,-2.226,-2.1785,-2.1376,-2.1206,-2.1271,-2.1052,-2.0395,-1.9356,-1.9917,-1.9195,-1.7545,-1.8169,0.0,0.0,-1.8303,-1.8565,-1.9005,-1.8971,-1.8898,-1.8781,-1.8718,-1.8432,-1.8049,-1.8022,-1.7553,-1.7082,-1.7584,-1.7922,-1.8312,-1.9034,-1.9605,-1.9988,-2.0135,-2.018,-2.0054,-1.9553,-1.942,-1.942,-1.942,-1.9384,-1.9376,-1.942,-1.9384,-1.9376,-1.9376,-1.9026,-1.8745,-1.8745,-1.8291,-1.7914,-1.7914,-1.753,-1.731,-1.731,-1.6989,-1.6954,-1.7269,-1.7352,-1.724,-1.6918,-1.6882,-1.6882,-1.6882,-1.6882,-1.6882,-1.6882,-1.6882,-1.6882,-1.6882,-1.6882,-1.7122,-1.7557,-1.7557,-1.7794,-1.8305,-1.8305,-1.833,-1.1017,-1.1441,-1.174,-1.1091,-1.2248,-1.3936,-1.5451,0.0,0.0,-2.5415,-2.5466,-2.5446,-2.5498,-2.556,0.0,0.0,0.0,0.0,0.0,0.0,0.0,0.0,0.0,0.0,0.0,0.0,0.0,0.0,0.0,0.0,-2.3821,-2.3742,-2.3164,-2.197,-2.1202,-2.1106,-2.1706,-2.02,-1.9795,-2.0498,-1.964,-1.8985,-1.8519,-1.8461,-1.809,-1.7512,-1.7587,0.0,0.0,-1.7598,-1.7615,-1.7649,-1.7527,-1.7478,-1.7453,-1.7126,-1.7399,-1.7899,-1.7797,-1.7792,-1.7876,-1.7944,-1.7539,-1.7279,-1.8481,-1.8738,-1.8713,-1.9332,-1.9502,-1.9494,-1.9435,-1.942,-1.942,-1.942,-1.9339,-1.9339,-1.9384,-1.9339,-1.9302,-1.9302,-1.8943,-1.8584,-1.8546,-1.7834,-1.7275,-1.7275,-1.6899,-1.6601,-1.6601,-1.6558,-1.6565,-1.6601,-1.682,-1.6918,-1.6882,-1.6882,-1.6882,-1.6882,-1.6882,-1.6882,-1.6882,-1.6882,-1.6882,-1.6882,-1.6882,-1.696,-1.708,-1.708,-1.7157,-1.7317,-1.7317,-1.731,-1.0671,-1.0776,-1.086,-1.0571,-1.0804,-1.1632,-1.3698,0.0,-2.0459,-2.4387,-2.5185,-2.5184,-2.5295,-2.5283,-2.5501,0.0,-2.6714,-2.7102,0.0,0.0,0.0,0.0,0.0,0.0,0.0,0.0,0.0,0.0,0.0,0.0,-2.2277,-2.2565,-2.2234,-2.1117,-2.0721,-2.0391,-2.009,-1.9412,-1.919,-1.9426,-1.9049,-1.8705,-1.8385,-1.8128,-1.7841,-1.7487,-1.7297,0.0,0.0,-1.7191,-1.7142,-1.7067,-1.7017,-1.6949,-1.6921,-1.7228,-1.7523,-1.7824,-1.8129,-1.8137,-1.8056,-1.8384,-1.8026,-1.7571,-1.8243,-1.852,-1.8723,-1.911,-1.904,-1.8889,-1.9026,-1.8957,-1.8858,-1.8858,-1.892,-1.9019,-1.9019,-1.9101,-1.9101,-1.886,-1.8429,-1.8028,-1.7652,-1.7089,-1.6693,-1.6614,-1.6448,-1.6318,-1.6318,-1.6318,-1.6355,-1.6436,-1.6565,-1.6656,-1.6656,-1.6656,-1.6656,-1.6656,-1.6656,-1.6656,-1.6656,-1.6656,-1.6656,-1.6656,-1.6656,-1.6742,-1.6918,-1.6918,-1.7038,-1.7199,-1.7199,-1.7199,-1.0743,-1.0462,-1.0351,-1.0009,-0.982,-1.0123,0.0,-1.496,-1.9002,-2.3511,-2.4661,-2.4889,-2.5032,-2.5049,-2.5218,0.0,-2.627,-2.6772,-2.7299,0.0,0.0,0.0,0.0,0.0,0.0,0.0,0.0,0.0,0.0,0.0,0.0,-2.122,-2.1059,-2.0311,-2.0147,-1.9741,-1.9019,-1.8984,-1.8896,-1.8761,-1.876,-1.8563,-1.8208,-1.7971,-1.7667,-1.7352,0.0,0.0,0.0,-1.6993,-1.6934,-1.689,-1.7063,-1.7072,-1.7053,-1.7724,-1.809,-1.8275,-1.8586,-1.859,-1.8499,-1.876,-1.8448,-1.803,-1.8214,-1.8477,-1.876,-1.8882,-1.8704,-1.851,-1.8683,-1.862,-1.8517,-1.8517,-1.862,-1.8721,-1.8721,-1.8836,-1.8836,-1.8553,-1.8028,-1.753,-1.7153,-1.6674,-1.6318,-1.6194,-1.62,-1.62,-1.62,-1.62,-1.6237,-1.6318,-1.6399,-1.6436,-1.6479,-1.6479,-1.6436,-1.6399,-1.6436,-1.6436,-1.6399,-1.6399,-1.6436,-1.6479,-1.6479,-1.6614,-1.684,-1.684,-1.6918,-1.7122,-1.7122,-1.7157,-1.1455,-1.0693,-1.0444,-0.9287,-0.9661,-1.0163,0.0,-1.6114,-2.241,-2.2996,-2.3853,-2.4548,-2.4681,-2.4814,-2.488,-2.483,-2.6211,-2.7283,-2.7299,0.0,0.0,0.0,0.0,0.0,0.0,0.0,0.0,0.0,0.0,0.0,0.0,-1.97,-1.9518,-1.9518,-1.9252,-1.9084,-1.8993,-1.8922,-1.8825,-1.8697,-1.8619,-1.8316,-1.7793,-1.7738,-1.7447,0.0,0.0,0.0,0.0,-1.6993,-1.6993,-1.7066,-1.7658,-1.7856,-1.7844,-1.8375,-1.8975,-1.9418,-1.9035,-1.9161,-1.942,-1.9036,-1.8731,-1.851,-1.851,-1.851,-1.8517,-1.8517,-1.8517,-1.8517,-1.8517,-1.8517,-1.8517,-1.8517,-1.8517,-1.8517,-1.8517,-1.851,-1.851,-1.8517,-1.7868,-1.7312,-1.7312,-1.6674,-1.62,-1.62,-1.62,-1.62,-1.62,-1.62,-1.62,-1.62,-1.62,-1.6281,-1.6399,-1.6399,-1.6362,-1.6194,-1.6318,-1.6362,-1.6194,-1.62,-1.6281,-1.6399,-1.6399,-1.6491,-1.6682,-1.6682,-1.6761,-1.6882,-1.696,-1.708,-1.3646,-1.2707,-1.1622,-1.0683,-1.2575,-1.4579,-1.4216,-1.8585,-2.2811,-2.3219,-2.3723,-2.4159,-2.4396,-2.451,-2.4937,-2.6099,0.0,0.0,0.0,0.0,0.0,0.0,0.0,0.0,0.0,0.0,0.0,0.0,0.0,0.0,0.0,-1.9773,-1.9517,-1.9374,-1.9101,-1.8896,-1.8734,-1.8706,-1.8632,-1.8496,-1.8474,-1.8275,-1.7923,-1.7679,0.0,0.0,0.0,0.0,0.0,-1.672,-1.672,-1.6743,-1.6929,-1.7298,-1.7792,-1.8399,-1.9006,-1.9609,-1.9837,-1.9758,-1.9486,-1.9288,-1.8815,-1.8282,-1.8282,-1.8282,-1.8282,-1.8123,-1.8202,-1.8282,-1.8123,-1.8083,-1.8083,-1.8083,-1.8202,-1.8235,-1.8009,-1.8049,-1.8002,-1.7421,-1.7124,-1.6824,-1.6484,-1.6207,-1.605,-1.5925,-1.5931,-1.5931,-1.5931,-1.5931,-1.5969,-1.6044,-1.5963,-1.6013,-1.6231,-1.6281,-1.6237,-1.62,-1.6237,-1.6237,-1.62,-1.6275,-1.6355,-1.6399,-1.6436,-1.6528,-1.6682,-1.6682,-1.6761,-1.6882,-1.696,-1.6996,0.0,-1.5343,-1.4843,-1.4544,-1.6359,-1.83,-1.8526,-2.0739,-2.2827,-2.3153,-2.3552,-2.3875,-2.4078,-2.422,-2.4801,-2.6237,0.0,0.0,0.0,0.0,0.0,0.0,0.0,0.0,0.0,0.0,0.0,0.0,0.0,0.0,0.0,-1.9796,-1.948,-1.9228,-1.8999,-1.8798,-1.8613,-1.8593,-1.8515,-1.8357,-1.8354,-1.821,-1.7905,-1.7587,0.0,0.0,0.0,0.0,0.0,-1.6517,-1.6517,-1.6572,-1.7125,-1.7412,-1.7697,-1.8858,-1.9138,-1.9009,-1.9683,-1.941,-1.879,-1.8812,-1.8489,-1.8083,-1.8083,-1.8083,-1.8043,-1.7922,-1.8003,-1.8043,-1.7922,-1.7882,-1.7882,-1.7882,-1.8003,-1.8036,-1.7821,-1.7888,-1.776,-1.7137,-1.6928,-1.6674,-1.6201,-1.5994,-1.5913,-1.5792,-1.5792,-1.5792,-1.5792,-1.5792,-1.5836,-1.5913,-1.583,-1.5887,-1.6013,-1.6106,-1.6144,-1.6144,-1.6188,-1.62,-1.62,-1.6275,-1.6355,-1.6399,-1.6436,-1.6528,-1.6626,-1.6626,-1.6712,-1.684,-1.6882,-1.6924,0.0,-1.8257,-1.9292,-1.9878,-2.0416,-2.1047,-2.2005,-2.2356,0.0,-2.2832,-2.3291,-2.3696,-2.3852,-2.4091,-2.4588,-2.5597,0.0,0.0,0.0,0.0,0.0,0.0,0.0,0.0,0.0,0.0,0.0,0.0,0.0,0.0,0.0,-1.9783,-1.9457,-1.9127,-1.898,-1.8789,-1.8585,-1.8581,-1.8474,-1.8299,-1.831,-1.81,-1.7758,-1.7447,0.0,0.0,0.0,0.0,0.0,-1.639,-1.6421,-1.6593,-1.7852,-1.7971,-1.7618,-1.9563,-1.9262,-1.8017,-1.8855,-1.8517,-1.7717,-1.7851,-1.7882,-1.7882,-1.7882,-1.7882,-1.7882,-1.7882,-1.7882,-1.7882,-1.7882,-1.7882,-1.7882,-1.7882,-1.7882,-1.7882,-1.7875,-1.7875,-1.7747,-1.7399,-1.7073,-1.6742,-1.6318,-1.5994,-1.5792,-1.5792,-1.5792,-1.5792,-1.5792,-1.5792,-1.5792,-1.5792,-1.5792,-1.5792,-1.5792,-1.5913,-1.5994,-1.5994,-1.61,-1.615,-1.615,-1.6194,-1.6231,-1.6349,-1.6399,-1.6436,-1.6515,-1.6515,-1.6571,-1.6682,-1.6682,-1.6761,-1.8699,0.0,-1.9816,-1.9942,-2.0433,-2.099,0.0,-2.1765,-2.2119,0.0,0.0,-2.3493,-2.4588,-2.4805,-2.5363,0.0,0.0,0.0,0.0,0.0,0.0,0.0,0.0,0.0,0.0,0.0,0.0,0.0,0.0,0.0,0.0,-1.9802,-1.9559,-1.9262,-1.8974,-1.8687,-1.8371,-1.8359,-1.8345,-1.8289,-1.8244,-1.7953,-1.7415,-1.728,0.0,0.0,0.0,0.0,-1.639,-1.639,-1.6702,-1.7153,-1.6951,-1.7447,-1.8267,-1.8711,-1.8933,-1.9081,-1.9441,-1.9214,-1.8636,-1.8061,-1.7882,-1.7882,-1.7882,-1.7882,-1.7882,-1.7882,-1.7882,-1.7882,-1.7882,-1.7882,-1.7882,-1.7882,-1.7882,-1.7835,-1.757,-1.7529,-1.731,-1.6661,-1.649,-1.6331,-1.6001,-1.583,-1.5792,-1.5792,-1.5792,-1.5792,-1.5792,-1.5792,-1.5792,-1.5792,-1.5792,-1.5792,-1.5792,-1.5836,-1.583,-1.583,-1.5881,-1.5881,-1.5881,-1.6001,-1.6038,-1.6082,-1.6312,-1.6436,-1.6515,-1.6515,-1.6522,-1.6528,-1.6669,-1.6725,-1.921,-1.9636,-2.002,-2.01,-2.0415,-2.0777,-2.1143,0.0,0.0,0.0,0.0,0.0,-2.4282,0.0,0.0,0.0,0.0,0.0,0.0,0.0,0.0,0.0,0.0,0.0,0.0,0.0,0.0,0.0,0.0,0.0,0.0,-1.9826,-1.9587,-1.9265,-1.8991,-1.8706,-1.843,-1.8316,-1.826,-1.8244,-1.8151,-1.7878,-1.7424,-1.7248,-1.6926,0.0,0.0,0.0,-1.6324,-1.6324,-1.6506,-1.6861,-1.7124,-1.751,-1.8013,-1.8855,-1.8804,-1.8407,-1.9052,-1.8936,-1.8379,-1.7956,-1.7842,-1.7882,-1.7882,-1.7882,-1.7882,-1.7882,-1.7882,-1.7882,-1.7882,-1.7882,-1.7882,-1.7882,-1.7882,-1.7835,-1.7666,-1.7529,-1.7227,-1.6674,-1.6411,-1.6194,-1.5875,-1.5792,-1.5792,-1.5792,-1.5792,-1.5792,-1.5792,-1.5792,-1.5742,-1.5653,-1.5748,-1.5697,-1.5519,-1.5603,-1.5742,-1.5875,-1.578,-1.5786,-1.5975,-1.5919,-1.5963,-1.6094,-1.6231,-1.6355,-1.6436,-1.6436,-1.6479,-1.6515,-1.6571,-1.6626,-1.9296,-1.9692,-2.0035,-2.0315,-2.0426,-2.0579,-2.1071,0.0,0.0,0.0,0.0,0.0,0.0,0.0,0.0,0.0,0.0,0.0,0.0,0.0,0.0,0.0,0.0,0.0,0.0,0.0,0.0,0.0,0.0,0.0,0.0,-1.9806,-1.9592,-1.9227,-1.8973,-1.8762,-1.8613,-1.8313,-1.8181,-1.816,-1.8035,-1.7811,-1.7511,-1.7199,-1.6983,0.0,0.0,0.0,-1.6502,-1.6502,-1.6563,-1.6755,-1.7769,-1.7892,-1.7693,-1.9328,-1.8799,-1.7365,-1.8362,-1.8247,-1.7686,-1.7686,-1.7801,-1.7882,-1.7882,-1.7882,-1.7882,-1.7882,-1.7882,-1.7882,-1.7882,-1.7882,-1.7882,-1.7835,-1.7835,-1.7801,-1.776,-1.7536,-1.7234,-1.6869,-1.6546,-1.6194,-1.5875,-1.5792,-1.5792,-1.5792,-1.5792,-1.5792,-1.5792,-1.5792,-1.5742,-1.5558,-1.5703,-1.5608,-1.5198,-1.5379,-1.5597,-1.5863,-1.5635,-1.5686,-1.6013,-1.5792,-1.5836,-1.6106,-1.6106,-1.6182,-1.6355,-1.6355,-1.6399,-1.6479,-1.6479,-1.6479,-1.8669,-1.9326,-1.9964,-2.0495,-2.0677,-2.0786,-2.1063,0.0,0.0,0.0,0.0,0.0,0.0,0.0,0.0,0.0,0.0,0.0,0.0,0.0,0.0,0.0,0.0,0.0,0.0,0.0,0.0,0.0,0.0,0.0,0.0,-1.9704,-1.9523,-1.9298,-1.8869,-1.8623,-1.8594,-1.8284,-1.81,-1.8035,-1.7944,-1.7627,-1.7085,-1.7043,-1.7022,0.0,0.0,-1.737,-1.7892,-1.7892,-1.8199,-1.861,-1.8251,-1.8364,-1.8771,-1.9119,-1.8805,-1.8177,-1.8218,-1.7988,-1.7686,-1.7686,-1.7801,-1.7882,-1.7882,-1.7882,-1.7882,-1.7882,-1.7882,-1.7882,-1.7882,-1.7882,-1.7835,-1.7523,-1.7488,-1.7406,-1.7122,-1.7002,-1.6869,-1.6454,-1.6355,-1.6194,-1.5875,-1.5792,-1.5792,-1.5792,-1.5792,-1.5792,-1.5792,-1.5792,-1.5792,-1.5748,-1.5792,-1.5703,-1.5468,-1.5468,-1.5424,-1.5238,-1.5193,-1.5193,-1.5289,-1.5244,-1.5373,-1.568,-1.568,-1.5869,-1.6237,-1.6237,-1.6275,-1.6436,-1.6436,-1.6436,-1.8409,-1.9304,-2.0245,-2.0531,-2.0783,-2.1023,-2.1214,0.0,0.0,0.0,0.0,0.0,0.0,0.0,0.0,0.0,0.0,0.0,0.0,0.0,0.0,0.0,0.0,0.0,0.0,0.0,0.0,0.0,0.0,0.0,0.0,0.0,-1.9392,-1.9307,-1.8914,-1.8641,-1.8491,-1.8192,-1.7996,-1.7886,-1.7816,-1.7758,-1.7704,-1.7515,-1.7583,-1.7859,0.0,-1.7807,-1.8089,-1.8089,-1.8248,-1.8522,-1.8576,-1.8763,-1.9008,-1.9126,-1.8847,-1.8407,-1.8069,-1.776,-1.7563,-1.7584,-1.7666,-1.7801,-1.7882,-1.7882,-1.7882,-1.7882,-1.7882,-1.7882,-1.7882,-1.7882,-1.7875,-1.7706,-1.7523,-1.7358,-1.7199,-1.6856,-1.6503,-1.6318,-1.6151,-1.5994,-1.5836,-1.5792,-1.5792,-1.5792,-1.5792,-1.5792,-1.5792,-1.5697,-1.5564,-1.543,-1.5424,-1.5289,-1.4926,-1.5017,-1.5017,-1.4886,-1.5017,-1.5023,-1.4886,-1.5017,-1.5147,-1.5328,-1.5328,-1.5507,-1.5875,-1.5875,-1.6007,-1.6275,-1.6355,-1.6436,-1.801,-1.9124,-2.0307,-2.0451,0.0,-2.1302,-2.1645,0.0,0.0,0.0,0.0,0.0,0.0,0.0,0.0,0.0,0.0,0.0,0.0,0.0,0.0,0.0,0.0,0.0,0.0,0.0,0.0,0.0,0.0,0.0,0.0,0.0,-1.9221,-1.9209,-1.8878,-1.8584,-1.8364,-1.81,-1.7909,-1.7758,-1.788,-1.8052,-1.8279,-1.8203,-1.836,-1.8687,-1.8453,-1.8393,-1.848,-1.848,-1.844,-1.8452,-1.9,-1.9129,-1.9036,-1.9038,-1.8762,-1.8312,-1.7834,-1.7543,-1.7398,-1.7454,-1.7584,-1.7726,-1.7801,-1.7882,-1.7882,-1.7882,-1.7882,-1.7882,-1.7882,-1.7882,-1.7882,-1.7794,-1.7577,-1.7399,-1.7317,-1.6752,-1.6312,-1.6312,-1.6032,-1.5792,-1.5792,-1.5792,-1.5792,-1.5792,-1.5792,-1.5792,-1.5792,-1.5608,-1.5424,-1.5244,-1.5153,-1.4926,-1.4518,-1.4564,-1.461,-1.461,-1.4834,-1.4834,-1.4656,-1.484,-1.4971,-1.5017,-1.5017,-1.5193,-1.5591,-1.5591,-1.578,-1.6144,-1.6139,-1.6163,-1.7133,-1.8396,-1.972,-2.0328,-2.1049,0.0,-2.2449,0.0,0.0,0.0,0.0,0.0,0.0,0.0,0.0,0.0,0.0,0.0,0.0,0.0,0.0,0.0,0.0,0.0,0.0,0.0,0.0,0.0,0.0,0.0,0.0,0.0,0.0,-1.893,-1.8603,-1.8357,-1.8208,-1.8014,-1.7803,-1.762,-1.8307,-1.8485,-1.8227,-1.8947,-1.9297,-1.9348,-1.9364,-1.9572,-1.9861,-1.9861,-1.9783,-1.967,-1.9715,-1.9492,-1.9141,-1.871,-1.8344,-1.7955,-1.7434,-1.7295,-1.7404,-1.7404,-1.7522,-1.7686,-1.7726,-1.7801,-1.7882,-1.7882,-1.7882,-1.7882,-1.7882,-1.7882,-1.7835,-1.7529,-1.7399,-1.7317,-1.7002,-1.6588,-1.6312,-1.6312,-1.6032,-1.5792,-1.5792,-1.5792,-1.5792,-1.5792,-1.5792,-1.5792,-1.5792,-1.5608,-1.5468,-1.5463,-1.5244,-1.4977,-1.4702,-1.4518,-1.4425,-1.4425,-1.4425,-1.4425,-1.4425,-1.4425,-1.4518,-1.4748,-1.4748,-1.4977,-1.5513,-1.5513,-1.5686,-1.5982,-1.5526,-1.5384,-1.6642,-1.8095,-1.9613,-1.9893,0.0,0.0,0.0,0.0,0.0,0.0,0.0,0.0,0.0,0.0,0.0,0.0,0.0,0.0,0.0,0.0,0.0,0.0,0.0,0.0,0.0,0.0,0.0,0.0,0.0,0.0,0.0,0.0,0.0,-1.8771,-1.861,-1.8357,-1.8027,-1.7971,-1.7507,-1.6607,-1.7906,-1.8603,-1.8767,-1.9196,-1.9586,-1.9873,-1.9718,-1.9705,-1.9805,-1.9805,-1.9762,-1.9726,-1.9726,-1.9493,-1.9124,-1.8936,-1.8468,-1.7834,-1.7632,-1.7441,-1.7302,-1.7356,-1.7467,-1.7577,-1.7672,-1.7801,-1.7882,-1.7882,-1.7882,-1.7882,-1.7882,-1.7882,-1.7835,-1.7488,-1.724,-1.6989,-1.6595,-1.6244,-1.5994,-1.5994,-1.5875,-1.5792,-1.5792,-1.5792,-1.5748,-1.5647,-1.5697,-1.5703,-1.5379,-1.5424,-1.5379,-1.5023,-1.4789,-1.4605,-1.4518,-1.4425,-1.4378,-1.4378,-1.4378,-1.4378,-1.4378,-1.4378,-1.4425,-1.4518,-1.4512,-1.4651,-1.5017,-1.5153,-1.5215,-1.5197,-1.5211,-1.511,-1.6685,-1.8311,-1.9904,0.0,0.0,0.0,0.0,0.0,0.0,0.0,0.0,0.0,0.0,0.0,0.0,0.0,0.0,0.0,0.0,0.0,0.0,0.0,0.0,0.0,0.0,0.0,0.0,0.0,0.0,0.0,0.0,0.0,0.0,0.0,-1.8531,-1.8171,-1.7561,-1.7556,-1.6953,-1.5809,-1.7215,-1.8223,-1.8784,-1.911,-1.9614,-2.0285,-1.9725,-1.9587,-1.9682,-1.9682,-1.9682,-1.9682,-1.9682,-1.9464,-1.9064,-1.8943,-1.8429,-1.7794,-1.7632,-1.7434,-1.7205,-1.7308,-1.7385,-1.7495,-1.7584,-1.7713,-1.7842,-1.7882,-1.7882,-1.7882,-1.7882,-1.7882,-1.7835,-1.7618,-1.7282,-1.6989,-1.671,-1.6287,-1.5951,-1.5951,-1.5875,-1.5792,-1.5792,-1.5792,-1.5748,-1.5513,-1.5608,-1.5564,-1.5153,-1.5198,-1.5062,-1.4656,-1.4471,-1.4378,-1.4378,-1.4378,-1.4378,-1.4378,-1.4378,-1.4378,-1.4378,-1.4378,-1.4378,-1.4378,-1.4378,-1.4518,-1.4702,-1.4977,-1.4977,-1.4693,-1.4862,-1.4703,-1.7331,-1.9012,-2.0619,0.0,0.0,0.0,0.0,0.0,0.0,0.0,0.0,0.0,0.0,0.0,0.0,0.0,0.0,0.0,0.0,0.0,0.0,0.0,0.0,0.0,0.0,0.0,0.0,0.0,0.0,0.0,0.0,0.0,0.0,0.0,-1.826,-1.7735,-1.6794,-1.6648,-1.6147,-1.5292,-1.6314,-1.7235,-1.8111,-1.8635,-1.9482,-2.0431,-1.9492,-1.9315,-1.9675,-1.9682,-1.9682,-1.9682,-1.9682,-1.9464,-1.9064,-1.8662,-1.8226,-1.7754,-1.7358,-1.7199,-1.7199,-1.7199,-1.7295,-1.7398,-1.7488,-1.7577,-1.7726,-1.7842,-1.7882,-1.7882,-1.7882,-1.7882,-1.7882,-1.7882,-1.7659,-1.7399,-1.7399,-1.6831,-1.6312,-1.6312,-1.6032,-1.5792,-1.5792,-1.5792,-1.5748,-1.5513,-1.5513,-1.5424,-1.5153,-1.4886,-1.461,-1.4419,-1.4378,-1.4378,-1.4378,-1.4378,-1.4378,-1.4378,-1.4378,-1.4378,-1.4378,-1.4378,-1.4378,-1.4378,-1.4378,-1.4518,-1.4702,-1.4977,-1.4977,-1.4675,-1.4415,-1.4077,-1.7548,-1.8979,0.0,0.0,0.0,0.0,0.0,0.0,0.0,0.0,0.0,0.0,0.0,0.0,0.0,0.0,0.0,0.0,0.0,0.0,0.0,0.0,0.0,0.0,0.0,0.0,0.0,0.0,0.0,0.0,0.0,0.0,0.0,0.0,-1.6538,-1.6243,-1.5683,-1.5732,-1.518,-1.4063,-1.5439,-1.6438,-1.7082,-1.8145,-1.8664,-1.8765,-1.8903,-1.8963,-1.9031,-1.9495,-1.9682,-1.9682,-1.9682,-1.9464,-1.9101,-1.8981,-1.8662,-1.8226,-1.7794,-1.7639,-1.7598,-1.7275,-1.7295,-1.7398,-1.7432,-1.7502,-1.757,-1.7611,-1.7611,-1.7611,-1.7611,-1.7706,-1.7672,-1.7295,-1.7122,-1.6911,-1.6386,-1.6088,-1.5957,-1.5957,-1.5875,-1.5792,-1.5792,-1.5792,-1.5653,-1.5289,-1.5519,-1.5647,-1.5424,-1.488,-1.4518,-1.461,-1.4466,-1.4378,-1.4378,-1.4378,-1.4378,-1.4378,-1.4378,-1.4378,-1.4378,-1.4378,-1.4378,-1.4378,-1.4378,-1.4425,-1.4471,-1.4702,-1.4495,-1.3864,-1.3959,-1.3685,-1.9095,0.0,0.0,0.0,0.0,0.0,0.0,0.0,0.0,0.0,0.0,0.0,0.0,0.0,0.0,0.0,0.0,0.0,0.0,0.0,0.0,0.0,0.0,0.0,0.0,0.0,0.0,0.0,0.0,0.0,0.0,0.0,0.0,0.0,-1.5908,-1.5459,-1.4815,-1.4823,-1.4279,-1.3153,-1.4311,-1.5019,-1.5378,-1.6932,-1.7768,-1.8049,-1.8291,-1.8365,-1.8343,-1.874,-1.8904,-1.8904,-1.875,-1.8708,-1.8658,-1.8097,-1.7899,-1.7834,-1.7383,-1.7223,-1.7223,-1.721,-1.7247,-1.735,-1.7363,-1.7432,-1.7454,-1.7475,-1.7516,-1.7475,-1.7262,-1.7275,-1.733,-1.726,-1.7051,-1.6791,-1.6312,-1.5963,-1.5697,-1.5697,-1.5603,-1.5519,-1.5519,-1.5519,-1.5379,-1.5023,-1.5108,-1.5198,-1.5062,-1.4651,-1.4471,-1.4564,-1.4471,-1.4378,-1.4378,-1.4378,-1.4378,-1.4378,-1.4378,-1.4378,-1.4378,-1.4378,-1.4378,-1.4378,-1.4378,-1.4378,-1.4378,-1.441,-1.4048,-1.3393,-1.3552,-1.3285,0.0,0.0,0.0,0.0,0.0,0.0,0.0,0.0,0.0,0.0,0.0,0.0,0.0,0.0,0.0,0.0,0.0,0.0,0.0,0.0,0.0,0.0,0.0,0.0,0.0,0.0,0.0,0.0,0.0,0.0,0.0,0.0,0.0,-1.6652,-1.6002,-1.5201,-1.4267,-1.4081,-1.3584,0.0,-1.3199,-1.3427,-1.3552,-1.5384,-1.6866,-1.7975,-1.7689,-1.7598,-1.769,-1.769,-1.769,-1.7657,-1.7364,-1.7568,-1.7913,-1.6653,-1.6551,-1.6947,-1.6526,-1.6422,-1.6546,-1.6963,-1.716,-1.7205,-1.735,-1.7363,-1.7391,-1.7447,-1.7475,-1.7386,-1.697,-1.6844,-1.697,-1.7508,-1.717,-1.6791,-1.6742,-1.6082,-1.5468,-1.5468,-1.5289,-1.5108,-1.5108,-1.5108,-1.5017,-1.4748,-1.4558,-1.4425,-1.4419,-1.4425,-1.4378,-1.4378,-1.4378,-1.4378,-1.4373,-1.4373,-1.4373,-1.4373,-1.4373,-1.4378,-1.4378,-1.4378,-1.4378,-1.4378,-1.4378,-1.4357,-1.4318,-1.4094,-1.3686,-1.315,-1.3131,-1.2902,0.0,-2.1901,0.0,0.0,0.0,0.0,0.0,0.0,0.0,0.0,0.0,0.0,0.0,0.0,0.0,0.0,0.0,0.0,0.0,0.0,0.0,0.0,0.0,0.0,0.0,0.0,0.0,0.0,0.0,0.0,0.0,0.0,0.0,-1.5566,-1.5392,-1.5131,-1.4743,-1.4198,-1.3937,0.0,-1.3592,-1.3685,-1.421,-1.5228,-1.6266,-1.7318,-1.7175,-1.7321,-1.7617,-1.769,-1.769,-1.769,-1.7617,-1.7673,-1.7718,-1.718,-1.7039,-1.7049,-1.64,-1.6453,-1.6832,-1.6632,-1.6852,-1.7205,-1.7247,-1.7247,-1.7247,-1.7282,-1.7282,-1.724,-1.715,-1.7212,-1.7218,-1.6983,-1.6374,-1.5812,-1.5546,-1.5328,-1.5198,-1.5198,-1.5153,-1.5108,-1.5108,-1.5108,-1.5062,-1.5017,-1.4651,-1.4471,-1.4616,-1.4518,-1.4378,-1.4378,-1.4378,-1.4373,-1.4269,-1.4326,-1.4373,-1.4228,-1.4326,-1.4378,-1.4378,-1.4378,-1.4378,-1.4378,-1.4378,-1.4198,-1.3838,-1.3784,-1.3402,-1.2642,-1.2648,-1.2559,0.0,0.0,0.0,0.0,0.0,0.0,0.0,0.0,0.0,0.0,0.0,0.0,0.0,0.0,0.0,0.0,0.0,0.0,0.0,0.0,0.0,0.0,0.0,0.0,0.0,0.0,0.0,0.0,0.0,0.0,0.0,-1.6262,-1.6052,-1.5833,-1.5429,-1.4956,-1.4419,-1.4357,-1.4207,-1.3966,-1.3844,-1.4155,-1.4841,-1.5199,-1.5833,-1.6623,-1.6529,-1.6541,-1.6656,-1.6756,-1.6787,-1.6787,-1.6618,-1.6708,-1.6872,-1.6276,-1.6111,-1.615,-1.5743,-1.5908,-1.6277,-1.6369,-1.6761,-1.7199,-1.7199,-1.7199,-1.7199,-1.7199,-1.7199,-1.7157,-1.6899,-1.6911,-1.6869,-1.6367,-1.6107,-1.5844,-1.5418,-1.5108,-1.4926,-1.4926,-1.484,-1.4743,-1.4743,-1.4743,-1.4743,-1.4743,-1.4564,-1.4425,-1.4558,-1.4419,-1.4321,-1.4321,-1.4244,-1.4197,-1.4098,-1.4145,-1.4197,-1.4098,-1.4145,-1.4141,-1.3965,-1.3954,-1.4,-1.4051,-1.3811,-1.357,-1.333,-1.3095,-1.2759,-1.2357,-1.224,-1.2218,0.0,0.0,0.0,0.0,0.0,0.0,0.0,0.0,0.0,0.0,0.0,0.0,0.0,0.0,0.0,0.0,0.0,0.0,0.0,0.0,0.0,0.0,0.0,0.0,0.0,0.0,0.0,0.0,0.0,0.0,-1.7557,-1.6644,-1.6225,-1.6425,-1.5585,-1.4779,-1.4055,-1.4406,-1.4245,-1.3626,-1.3992,-1.45,-1.5133,-1.5196,-1.5549,-1.6095,-1.5998,-1.5827,-1.5675,-1.5704,-1.577,-1.577,-1.5485,-1.5642,-1.5949,-1.5165,-1.5001,-1.5113,-1.4985,-1.5189,-1.5509,-1.6081,-1.6611,-1.7055,-1.7055,-1.7055,-1.7035,-1.6931,-1.6905,-1.6849,-1.657,-1.6469,-1.6402,-1.599,-1.6051,-1.6051,-1.5629,-1.5057,-1.4656,-1.4656,-1.4512,-1.4378,-1.4378,-1.4378,-1.4378,-1.4378,-1.4378,-1.4373,-1.4378,-1.4274,-1.4176,-1.4181,-1.4057,-1.3968,-1.3973,-1.3973,-1.3968,-1.3973,-1.3973,-1.3854,-1.3474,-1.3457,-1.3471,-1.3439,-1.3064,-1.2851,-1.277,-1.2407,-1.2167,-1.2079,-1.1863,-1.1853,0.0,0.0,0.0,0.0,0.0,0.0,0.0,0.0,0.0,0.0,0.0,0.0,0.0,0.0,0.0,0.0,0.0,0.0,0.0,0.0,0.0,0.0,0.0,0.0,0.0,0.0,0.0,0.0,0.0,0.0,-1.7344,-1.6652,-1.6236,-1.6159,-1.5302,-1.4778,-1.4585,-1.3985,-1.3808,-1.4115,-1.4096,-1.4229,-1.4442,-1.5023,-1.5621,-1.6194,-1.6103,-1.5991,-1.5835,-1.5639,-1.5639,-1.577,-1.561,-1.5661,-1.5794,-1.5388,-1.5253,-1.5203,-1.4621,-1.4742,-1.5184,-1.5527,-1.6016,-1.65,-1.65,-1.65,-1.6395,-1.5866,-1.5722,-1.584,-1.6283,-1.6419,-1.6368,-1.6249,-1.5952,-1.5599,-1.5232,-1.4783,-1.4425,-1.4425,-1.4425,-1.4378,-1.4378,-1.4378,-1.4378,-1.4378,-1.4378,-1.4373,-1.4222,-1.4222,-1.4181,-1.4062,-1.4015,-1.3968,-1.3821,-1.3915,-1.3968,-1.3815,-1.3921,-1.3807,-1.3334,-1.3313,-1.3011,-1.2313,-1.2715,-1.2688,-1.2303,-1.2238,-1.2003,-1.1572,-1.1544,-1.1723,0.0,0.0,0.0,0.0,0.0,0.0,0.0,0.0,0.0,0.0,0.0,0.0,0.0,0.0,0.0,0.0,0.0,0.0,0.0,0.0,0.0,0.0,0.0,0.0,0.0,0.0,0.0,0.0,0.0,-1.6925,-1.6855,-1.605,-1.5575,-1.5605,-1.5046,-1.4559,-1.4135,-1.4084,-1.4077,-1.4093,-1.4093,-1.4134,-1.419,-1.4581,-1.5276,-1.6194,-1.6095,-1.5947,-1.5769,-1.5566,-1.5544,-1.5639,-1.558,-1.561,-1.5639,-1.5322,-1.5118,-1.4942,-1.4479,-1.4533,-1.4835,-1.4977,-1.5395,-1.5892,-1.5847,-1.5853,-1.5833,-1.5439,-1.5374,-1.5555,-1.614,-1.6296,-1.6352,-1.6638,-1.6132,-1.5549,-1.5305,-1.4686,-1.4203,-1.4203,-1.4203,-1.4203,-1.4203,-1.4203,-1.4203,-1.4203,-1.4203,-1.415,-1.4104,-1.3999,-1.3952,-1.3868,-1.3821,-1.3763,-1.3668,-1.3721,-1.3763,-1.3668,-1.3522,-1.3217,-1.2789,-1.2558,-1.2155,-1.1614,-1.2122,-1.2207,-1.1823,-1.1823,-1.1681,-1.1485,-1.1485,-1.1734,0.0,0.0,0.0,0.0,0.0,0.0,0.0,0.0,0.0,0.0,0.0,0.0,0.0,0.0,0.0,0.0,0.0,0.0,0.0,0.0,0.0,0.0,0.0,0.0,0.0,0.0,0.0,0.0,0.0,-1.5894,-1.6104,-1.5193,-1.4723,-1.4879,-1.436,-1.3865,-1.3358,-1.3711,-1.3767,-1.3526,-1.3701,-1.3785,-1.3841,-1.4122,-1.4779,-1.568,-1.5697,-1.5598,-1.5465,-1.5448,-1.5463,-1.5514,-1.5485,-1.5514,-1.5544,-1.5292,-1.505,-1.4787,-1.4479,-1.4393,-1.4472,-1.4523,-1.4839,-1.5203,-1.5173,-1.5166,-1.5171,-1.4855,-1.4859,-1.5077,-1.5756,-1.5944,-1.6118,-1.6751,-1.6281,-1.5599,-1.5119,-1.4501,-1.402,-1.402,-1.402,-1.402,-1.402,-1.402,-1.402,-1.402,-1.402,-1.3973,-1.3968,-1.3868,-1.3773,-1.3763,-1.3668,-1.3615,-1.3615,-1.3507,-1.3439,-1.3439,-1.301,-1.2598,-1.222,-1.198,-1.1638,-1.1163,-1.1653,-1.1781,-1.1453,-1.1485,-1.1485,-1.1485,-1.1485,-1.1697,0.0,0.0,0.0,0.0,0.0,0.0,0.0,0.0,0.0,0.0,0.0,0.0,0.0,0.0,0.0,0.0,0.0,0.0,0.0,0.0,0.0,0.0,0.0,0.0,0.0,0.0,0.0,0.0,0.0,-1.4594,-1.5042,-1.4226,-1.3835,-1.3958,-1.2966,-1.2429,-1.2466,-1.2321,-1.2211,-1.2198,-1.2652,-1.2931,-1.3084,-1.3803,-1.4189,-1.4315,-1.4705,-1.4866,-1.486,-1.5169,-1.5388,-1.5485,-1.5418,-1.5448,-1.5514,-1.5485,-1.5262,-1.4944,-1.4603,-1.4305,-1.4067,-1.4314,-1.4419,-1.4451,-1.4445,-1.4445,-1.4336,-1.3764,-1.3576,-1.3861,-1.4953,-1.5248,-1.5491,-1.6464,-1.6355,-1.5629,-1.4332,-1.4015,-1.402,-1.402,-1.402,-1.402,-1.402,-1.402,-1.402,-1.402,-1.402,-1.3968,-1.3821,-1.3815,-1.3763,-1.3615,-1.3615,-1.3615,-1.3615,-1.3166,-1.2918,-1.2918,-1.2544,-1.2126,-1.1664,-1.2048,-1.1902,-1.1103,-1.1502,-1.1625,-1.1427,-1.1453,-1.1485,-1.1485,-1.1485,-1.1617,0.0,0.0,0.0,0.0,0.0,0.0,0.0,0.0,0.0,0.0,0.0,0.0,0.0,0.0,0.0,0.0,0.0,0.0,0.0,0.0,0.0,0.0,0.0,0.0,0.0,0.0,0.0,0.0,0.0,0.0,-1.4145,-1.3379,-1.2955,-1.2995,-1.2501,-1.2249,-1.2266,-1.2109,-1.2012,-1.197,-1.211,-1.2171,-1.223,-1.2591,-1.2742,-1.2742,-1.3243,-1.375,-1.4198,-1.4126,-1.4325,-1.4717,-1.471,-1.4994,-1.5426,-1.5186,-1.5058,-1.4914,-1.4374,-1.4091,-1.3993,-1.3861,-1.3835,-1.38,-1.3772,-1.38,-1.3762,-1.3414,-1.3357,-1.3686,-1.484,-1.5121,-1.5193,-1.569,-1.5361,-1.4731,-1.3899,-1.3815,-1.3868,-1.3768,-1.3721,-1.3721,-1.3721,-1.3721,-1.3721,-1.3721,-1.3721,-1.3721,-1.3668,-1.3663,-1.3663,-1.3621,-1.3615,-1.3496,-1.3196,-1.302,-1.2803,-1.2513,-1.2115,-1.1788,-1.1617,-1.1463,-1.1256,-1.0973,-1.1195,-1.1349,-1.1389,-1.1421,-1.1453,-1.1485,-1.1485,-1.1617,0.0,0.0,0.0,0.0,0.0,0.0,0.0,0.0,0.0,0.0,0.0,0.0,0.0,0.0,0.0,0.0,0.0,0.0,0.0,0.0,0.0,0.0,0.0,0.0,0.0,0.0,0.0,0.0,0.0,0.0,-1.3078,-1.267,-1.2415,-1.2404,-1.2262,-1.2187,-1.2197,-1.2089,-1.1991,-1.1941,-1.1826,-1.1776,-1.1776,-1.1869,-1.1941,-1.1942,-1.2291,-1.2821,-1.3466,-1.341,-1.3772,-1.4311,-1.4311,-1.4739,-1.5344,-1.5117,-1.498,-1.4866,-1.442,-1.4202,-1.4039,-1.3675,-1.3581,-1.3547,-1.3391,-1.3357,-1.3357,-1.3232,-1.326,-1.3588,-1.4758,-1.5277,-1.5518,-1.5451,-1.5045,-1.4507,-1.3994,-1.381,-1.3721,-1.3615,-1.3615,-1.3564,-1.3408,-1.3382,-1.3336,-1.3186,-1.3289,-1.3331,-1.3181,-1.3424,-1.3502,-1.3191,-1.3295,-1.3196,-1.2741,-1.2555,-1.2342,-1.2089,-1.1602,-1.1354,-1.1354,-1.108,-1.0886,-1.0886,-1.1011,-1.1125,-1.1346,-1.1389,-1.1421,-1.1453,-1.1485,-1.1586,0.0,0.0,0.0,0.0,0.0,0.0,0.0,0.0,0.0,0.0,0.0,0.0,0.0,0.0,0.0,0.0,0.0,0.0,0.0,0.0,0.0,0.0,0.0,0.0,0.0,0.0,0.0,0.0,0.0,-1.1239,-1.1859,-1.2151,-1.2262,-1.2203,-1.2182,-1.2187,-1.2205,-1.2138,-1.2062,-1.1991,-1.1782,-1.1681,-1.1703,-1.1753,-1.1854,-1.1991,-1.192,-1.2157,-1.2623,-1.314,-1.3687,-1.4232,-1.4247,-1.4667,-1.5254,-1.5275,-1.5086,-1.4801,-1.477,-1.455,-1.4222,-1.3815,-1.3675,-1.3615,-1.3295,-1.3198,-1.3198,-1.3198,-1.3198,-1.3448,-1.4588,-1.5693,-1.638,-1.5926,-1.5451,-1.4971,-1.4496,-1.3972,-1.36,-1.3595,-1.3595,-1.3445,-1.2984,-1.2861,-1.2756,-1.237,-1.2627,-1.2751,-1.2359,-1.3031,-1.3243,-1.2396,-1.2648,-1.2725,-1.2323,-1.1871,-1.1606,-1.1591,-1.1157,-1.0886,-1.0886,-1.0886,-1.0886,-1.0886,-1.0886,-1.1001,-1.119,-1.1346,-1.1389,-1.1389,-1.1453,-1.1485,-2.0824,0.0,0.0,0.0,0.0,0.0,0.0,0.0,0.0,0.0,0.0,0.0,0.0,0.0,0.0,0.0,0.0,0.0,0.0,0.0,0.0,0.0,0.0,0.0,0.0,0.0,0.0,0.0,-1.0395,-1.0809,-1.1708,-1.2016,-1.2117,-1.2062,-1.1962,-1.1984,-1.2125,-1.2005,-1.2012,-1.2133,-1.139,-1.1293,-1.1761,-1.1292,-1.135,-1.1848,-1.1848,-1.1931,-1.2082,-1.2033,-1.2308,-1.2754,-1.3153,-1.3693,-1.4346,-1.477,-1.4756,-1.4483,-1.4227,-1.4006,-1.3755,-1.3397,-1.3295,-1.3329,-1.3232,-1.3198,-1.3198,-1.3198,-1.3198,-1.3448,-1.4588,-1.5428,-1.597,-1.5832,-1.5451,-1.4875,-1.406,-1.3759,-1.3573,-1.3164,-1.3068,-1.2974,-1.2523,-1.2489,-1.2448,-1.2323,-1.2406,-1.2448,-1.2323,-1.2526,-1.2583,-1.2333,-1.2417,-1.226,-1.1845,-1.1684,-1.1477,-1.1126,-1.0953,-1.0886,-1.0886,-1.0886,-1.0886,-1.0886,-1.0886,-1.0924,-1.0995,-1.1152,-1.1341,-1.1453,-1.1485,-1.1485,0.0,0.0,0.0,0.0,0.0,0.0,0.0,-1.8008,0.0,0.0,0.0,0.0,0.0,0.0,0.0,0.0,0.0,0.0,0.0,0.0,0.0,0.0,0.0,0.0,0.0,0.0,0.0,-1.0089,-1.0218,-1.061,-1.1372,-1.15,-1.1597,-1.1703,-1.1614,-1.1556,-1.1566,-1.1505,-1.1417,-1.1262,-1.0681,-1.0591,-1.0947,-1.0503,-1.0708,-1.1408,-1.1408,-1.1558,-1.1805,-1.1556,-1.1781,-1.2334,-1.2543,-1.3007,-1.3679,-1.4287,-1.4303,-1.4039,-1.41,-1.3993,-1.3742,-1.3425,-1.3357,-1.3391,-1.3232,-1.3198,-1.3198,-1.3198,-1.3396,-1.3722,-1.44,-1.5007,-1.5446,-1.5453,-1.5253,-1.4871,-1.4109,-1.3823,-1.3499,-1.2778,-1.2648,-1.2508,-1.2095,-1.2017,-1.1954,-1.1737,-1.1897,-1.1949,-1.1727,-1.2074,-1.2157,-1.1747,-1.1908,-1.183,-1.1338,-1.1302,-1.1193,-1.0902,-1.0886,-1.0886,-1.0886,-1.0886,-1.0886,-1.0886,-1.0886,-1.093,-1.0968,-1.1114,-1.1298,-1.1485,-1.1485,-1.1485,0.0,0.0,0.0,0.0,0.0,0.0,-1.9008,-1.8098,0.0,0.0,0.0,0.0,0.0,0.0,0.0,0.0,0.0,0.0,0.0,0.0,0.0,0.0,0.0,0.0,0.0,-0.9839,-0.9782,-0.9704,-1.0158,-1.056,-1.0909,-1.0853,-1.0954,-1.1272,-1.115,-1.0979,-1.0783,-1.0796,-1.0523,-1.0013,-0.9806,-0.9752,-0.9801,-0.9611,-0.9987,-1.0765,-1.086,-1.1163,-1.1599,-1.1475,-1.1831,-1.2419,-1.2209,-1.2498,-1.3093,-1.3693,-1.3716,-1.3523,-1.4062,-1.4127,-1.396,-1.3642,-1.3575,-1.3541,-1.326,-1.3198,-1.3198,-1.3198,-1.3622,-1.4085,-1.4085,-1.45,-1.4918,-1.4967,-1.4958,-1.4779,-1.428,-1.3841,-1.326,-1.2325,-1.2198,-1.2084,-1.1617,-1.1539,-1.1369,-1.0943,-1.1256,-1.1359,-1.0938,-1.1618,-1.1809,-1.1007,-1.1266,-1.1344,-1.0961,-1.0886,-1.0886,-1.0886,-1.0886,-1.0886,-1.0886,-1.0886,-1.0886,-1.0886,-1.0886,-1.0968,-1.1087,-1.1195,-1.1303,-1.1485,-1.1485,-1.1485,-2.3433,-2.3509,-2.3576,-2.1904,0.0,0.0,-1.8791,-1.7972,0.0,0.0,0.0,0.0,0.0,0.0,0.0,0.0,0.0,0.0,0.0,0.0,0.0,0.0,0.0,0.0,0.0,-1.009,-0.9782,-0.9782,-1.0222,-1.0491,-1.0518,-1.07,-1.0901,-1.1132,-1.0597,-1.0422,-1.0636,-1.028,-1.0091,-1.007,-0.9458,-0.9404,-0.9866,-0.9299,-0.9359,-0.9969,-1.0611,-1.095,-1.1097,-1.1474,-1.154,-1.1412,-1.1633,-1.1799,-1.2004,-1.2581,-1.2919,-1.311,-1.3223,-1.3304,-1.3346,-1.3291,-1.3195,-1.3076,-1.31,-1.3135,-1.3135,-1.317,-1.3622,-1.4085,-1.4085,-1.45,-1.4896,-1.4924,-1.4673,-1.4193,-1.3372,-1.2839,-1.2302,-1.135,-1.1468,-1.1606,-1.1126,-1.1054,-1.1023,-1.0897,-1.0997,-1.0984,-1.0897,-1.108,-1.1116,-1.0907,-1.0964,-1.1018,-1.0897,-1.0886,-1.0886,-1.0886,-1.0886,-1.0886,-1.0886,-1.0886,-1.0886,-1.0886,-1.0886,-1.0968,-1.1087,-1.1276,-1.1389,-1.1421,-1.1453,-1.1485,-2.4466,-2.4349,-2.4021,-2.2634,0.0,0.0,0.0,0.0,-1.7408,-1.7016,0.0,0.0,0.0,0.0,0.0,0.0,0.0,0.0,0.0,0.0,0.0,0.0,0.0,0.0,0.0,-1.0881,-1.0572,-1.0231,-1.0165,-1.0124,-1.0056,-1.0181,-1.0245,-1.0252,-0.9993,-0.9744,-0.951,-0.9335,-0.9183,-0.9049,-0.8644,-0.8605,-0.8883,-0.8513,-0.8659,-0.9242,-0.9988,-1.0529,-1.0939,-1.1443,-1.1549,-1.1406,-1.1453,-1.1377,-1.1328,-1.1918,-1.2127,-1.2203,-1.2775,-1.2903,-1.2791,-1.3094,-1.3057,-1.2896,-1.2984,-1.2984,-1.3025,-1.3135,-1.3369,-1.3611,-1.364,-1.3848,-1.4124,-1.4437,-1.435,-1.408,-1.361,-1.3009,-1.2368,-1.1625,-1.1354,-1.1178,-1.0927,-1.0886,-1.0886,-1.0886,-1.0886,-1.0886,-1.0886,-1.0886,-1.0886,-1.0886,-1.0886,-1.0886,-1.0886,-1.0886,-1.0886,-1.0886,-1.0886,-1.0886,-1.0886,-1.0886,-1.0886,-1.0886,-1.0886,-1.0924,-1.1006,-1.1163,-1.1314,-1.1389,-1.1421,-1.1453,0.0,0.0,0.0,0.0,0.0,-2.1333,0.0,0.0,0.0,-1.7633,0.0,0.0,0.0,0.0,0.0,0.0,0.0,0.0,0.0,0.0,0.0,0.0,0.0,0.0,0.0,-1.1711,-1.1393,-1.0843,-1.0295,-0.9964,-0.9943,-0.9818,-0.9689,-0.9559,-0.9579,-0.9249,-0.8518,-0.8579,-0.8395,-0.7936,-0.7921,-0.7913,-0.7897,-0.7848,-0.8086,-0.8588,-0.9238,-0.9958,-1.0728,-1.1244,-1.1534,-1.1601,-1.1369,-1.1139,-1.0983,-1.1424,-1.1472,-1.142,-1.238,-1.2526,-1.2367,-1.2983,-1.3073,-1.2965,-1.2902,-1.2902,-1.2937,-1.3019,-1.3066,-1.306,-1.3129,-1.3123,-1.327,-1.3785,-1.377,-1.3698,-1.3698,-1.3095,-1.2376,-1.1937,-1.1357,-1.0886,-1.0886,-1.0886,-1.0886,-1.0886,-1.0886,-1.0886,-1.0886,-1.0886,-1.0886,-1.0886,-1.0886,-1.0886,-1.0886,-1.0886,-1.0886,-1.0886,-1.0886,-1.0886,-1.0886,-1.0886,-1.0886,-1.0886,-1.0886,-1.0886,-1.0886,-1.1011,-1.1158,-1.1346,-1.1389,-1.1459,0.0,0.0,0.0,0.0,-2.1807,0.0,0.0,0.0,-1.8247,-1.6571,0.0,0.0,0.0,0.0,0.0,0.0,0.0,0.0,0.0,0.0,0.0,0.0,0.0,0.0,0.0,0.0,-1.1586,-1.1583,-1.1004,-1.0716,-1.0769,-1.0202,-0.9957,-1.0097,-0.9783,-0.938,-0.8942,-0.8766,-0.837,-0.7735,-0.7907,-0.7963,-0.7897,-0.7897,-0.7929,-0.802,-0.8566,-0.9233,-0.9973,-1.0698,-1.1115,-1.1323,-1.1185,-1.1092,-1.1052,-1.0883,-1.1139,-1.1561,-1.1723,-1.1922,-1.2219,-1.2819,-1.309,-1.312,-1.2867,-1.2832,-1.2902,-1.2937,-1.2937,-1.2937,-1.2937,-1.2937,-1.299,-1.3175,-1.2663,-1.2177,-1.2297,-1.1695,-1.1096,-1.1044,-1.0957,-1.0886,-1.0886,-1.0886,-1.0886,-1.0886,-1.0886,-1.0886,-1.0886,-1.0886,-1.0886,-1.0886,-1.0886,-1.0886,-1.0886,-1.0886,-1.0886,-1.0886,-1.0886,-1.0886,-1.0886,-1.0886,-1.0886,-1.0886,-1.0886,-1.0886,-1.0886,-1.0924,-1.1039,-1.1228,-1.1346,-1.1459,0.0,0.0,0.0,0.0,0.0,0.0,-1.9446,0.0,-1.7936,0.0,0.0,0.0,0.0,0.0,0.0,0.0,0.0,0.0,0.0,0.0,0.0,0.0,0.0,0.0,0.0,0.0,0.0,0.0,0.0,-1.168,-1.1227,-1.0965,-1.0614,-1.01,-0.9848,-0.9373,-0.8658,-0.8608,-0.8291,-0.7698,-0.7857,-0.793,-0.7891,-0.7905,-0.7884,-0.7871,-0.8455,-0.8891,-0.9317,-1.0478,-1.0964,-1.0972,-1.1181,-1.1101,-1.0856,-1.0736,-1.0868,-1.1132,-1.1478,-1.1603,-1.1684,-1.2346,-1.2821,-1.3082,-1.2809,-1.2774,-1.2803,-1.2838,-1.2838,-1.2832,-1.2902,-1.2902,-1.2867,-1.2739,-1.2443,-1.2138,-1.2024,-1.1553,-1.1158,-1.1234,-1.1066,-1.0886,-1.0886,-1.0886,-1.0886,-1.0886,-1.0886,-1.0886,-1.0886,-1.0886,-1.0886,-1.0886,-1.0886,-1.0886,-1.0886,-1.0886,-1.0886,-1.0886,-1.0876,-1.0833,-1.0833,-1.0756,-1.0713,-1.0713,-1.0794,-1.0833,-1.0833,-1.0881,-1.0962,-1.1158,-1.1201,-1.1314,-2.2154,0.0,0.0,0.0,0.0,0.0,0.0,0.0,0.0,0.0,0.0,0.0,0.0,0.0,0.0,0.0,0.0,0.0,0.0,0.0,0.0,0.0,0.0,0.0,0.0,0.0,0.0,0.0,0.0,0.0,-1.2123,-1.1796,-1.1305,-1.0559,-1.0325,-0.9793,-0.8907,-0.8857,-0.8531,-0.7942,-0.7898,-0.7896,-0.7928,-0.7912,-0.7876,-0.7849,-0.8263,-0.8573,-0.8881,-1.0173,-1.0668,-1.0635,-1.1191,-1.1111,-1.0712,-1.0712,-1.0712,-1.0766,-1.12,-1.1442,-1.1615,-1.1957,-1.2576,-1.3163,-1.2815,-1.2709,-1.2709,-1.2774,-1.2774,-1.2774,-1.2838,-1.2832,-1.2803,-1.2556,-1.2443,-1.2294,-1.206,-1.1616,-1.1319,-1.1399,-1.1083,-1.0838,-1.0881,-1.0886,-1.0886,-1.0886,-1.0886,-1.0886,-1.0886,-1.0886,-1.0886,-1.0886,-1.0886,-1.0886,-1.0886,-1.0886,-1.0886,-1.0881,-1.0827,-1.0784,-1.0746,-1.0659,-1.0582,-1.0582,-1.0741,-1.0784,-1.0784,-1.0881,-1.0962,-1.1049,-1.1087,-1.1201,0.0,0.0,0.0,-1.917,0.0,0.0,0.0,0.0,-1.8509,0.0,0.0,0.0,0.0,0.0,0.0,0.0,0.0,0.0,0.0,0.0,0.0,0.0,0.0,0.0,0.0,0.0,0.0,0.0,0.0,0.0,-1.3776,-1.2652,-1.197,-1.195,-1.149,-1.0892,-1.0143,-0.9821,-0.9301,-0.8564,-0.8051,-0.7866,-0.7993,-0.7926,-0.7897,-0.7897,-0.7841,-0.8159,-0.8771,-0.959,-1.0078,-1.0392,-1.1131,-1.1108,-1.0712,-1.0712,-1.0712,-1.0712,-1.0732,-1.1486,-1.2389,-1.1893,-1.2526,-1.3385,-1.2844,-1.2709,-1.2709,-1.2709,-1.2709,-1.2709,-1.2709,-1.2709,-1.2709,-1.2768,-1.2508,-1.2246,-1.2371,-1.1774,-1.1217,-1.1212,-1.0878,-1.0664,-1.0784,-1.0876,-1.0886,-1.0886,-1.0886,-1.0886,-1.0886,-1.0886,-1.0886,-1.0886,-1.0886,-1.0886,-1.0886,-1.0886,-1.0881,-1.0822,-1.0784,-1.0741,-1.0621,-1.0582,-1.0582,-1.0582,-1.0741,-1.0784,-1.0784,-1.0881,-1.0886,-1.093,-1.1049,-1.1158,0.0,0.0,-1.9191,-1.8267,0.0,0.0,0.0,0.0,0.0,0.0,0.0,0.0,0.0,0.0,0.0,0.0,0.0,0.0,0.0,0.0,0.0,0.0,0.0,0.0,0.0,0.0,0.0,0.0,0.0,0.0,0.0,-1.4004,-1.3527,-1.2831,-1.2468,-1.1778,-1.0745,-1.0048,-0.9324,-0.8592,-0.8104,-0.7867,-0.7869,-0.7932,-0.7969,-0.7963,-0.7942,-0.8026,-0.8229,-0.899,-0.9466,-0.9772,-1.0463,-1.0727,-1.0712,-1.0712,-1.0712,-1.0687,-1.0541,-1.1036,-1.1672,-1.1562,-1.2059,-1.2724,-1.27,-1.2709,-1.2709,-1.2709,-1.2709,-1.2709,-1.2709,-1.2739,-1.2697,-1.2401,-1.2252,-1.2168,-1.2035,-1.1732,-1.1505,-1.1653,-1.1536,-1.1399,-1.111,-1.1191,-1.1201,-1.0924,-1.0886,-1.0886,-1.0886,-1.0886,-1.0886,-1.0886,-1.0886,-1.0886,-1.0886,-1.0876,-1.0827,-1.0784,-1.0621,-1.05,-1.0462,-1.0433,-1.0395,-1.0395,-1.0505,-1.0582,-1.0664,-1.0784,-1.0876,-1.0886,-1.0968,-1.1044,-1.8703,-1.8539,0.0,-1.737,-1.7141,0.0,-1.6913,0.0,0.0,0.0,0.0,0.0,0.0,0.0,0.0,0.0,0.0,0.0,0.0,0.0,0.0,0.0,0.0,0.0,0.0,0.0,-1.3437,-1.3785,0.0,0.0,0.0,0.0,-1.4587,-1.3712,-1.3289,-1.2562,-1.1433,-1.0391,-0.9583,-0.8981,-0.8197,-0.7831,-0.7844,-0.7917,-0.7966,-0.7964,-0.8014,-0.7963,-0.7922,-0.8689,-0.9159,-0.9458,-1.0147,-1.0522,-1.0712,-1.0712,-1.0712,-1.0663,-1.0474,-1.0807,-1.1299,-1.1374,-1.1802,-1.2349,-1.261,-1.2709,-1.2709,-1.2709,-1.2709,-1.2709,-1.2709,-1.2739,-1.2726,-1.2437,-1.2395,-1.2389,-1.2216,-1.1987,-1.183,-1.1982,-1.1878,-1.1689,-1.1436,-1.1362,-1.1217,-1.0871,-1.0843,-1.0886,-1.0881,-1.0876,-1.0876,-1.0876,-1.0838,-1.0799,-1.0799,-1.0751,-1.0703,-1.0659,-1.05,-1.0385,-1.0385,-1.0317,-1.0283,-1.0283,-1.0385,-1.0423,-1.0544,-1.0659,-1.0784,-1.0876,-1.0876,-1.0924]},{"header":{"parameterUnit":"m.s-1","parameterCategory":1,"la1":30.6,"la2":29.2853,"lo1":-89.7004,"lo2":-87.6739,"dy":0.0162,"dx":0.0183,"nx":112,"ny":82,"refTime":"2024-07-10T18:00:00:Z","depth":0,"parameterNumber":3,"parameterNumberName":"V-component_of_WINDS"},"data":[0.0,0.0,0.0,0.0,0.0,0.0,0.0,0.0,0.0,0.0,0.0,0.0,0.0,0.0,0.0,0.0,0.0,0.0,0.0,0.0,0.0,0.0,0.0,0.0,0.0,0.0,0.0,0.0,0.0,0.0,0.0,0.0,0.0,0.0,0.0,0.0,0.0,0.0,0.0,0.0,0.0,0.0,0.0,0.0,0.0,0.0,0.0,0.0,0.0,0.0,0.0,0.0,0.0,0.0,0.0,0.0,0.0,0.0,0.0,0.0,0.0,0.0,0.0,0.0,0.0,0.0,0.0,0.0,0.0,0.0,0.0,0.0,0.0,0.0,0.0,0.0,0.0,0.0,0.0,0.0,0.0,0.0,0.0,0.0,0.0,0.0,0.0,0.0,0.0,0.0,0.0,-1.1054,-1.1111,-1.1064,-1.0972,-1.0871,-1.0737,-1.0617,0.0,0.0,0.0,0.0,0.0,0.0,0.0,0.0,0.0,0.0,0.0,0.0,0.0,0.0,0.0,0.0,0.0,0.0,0.0,0.0,0.0,0.0,0.0,0.0,0.0,0.0,0.0,0.0,0.0,0.0,0.0,0.0,0.0,0.0,0.0,0.0,0.0,0.0,0.0,0.0,0.0,0.0,0.0,0.0,0.0,0.0,0.0,0.0,0.0,0.0,0.0,0.0,0.0,0.0,0.0,0.0,0.0,0.0,0.0,0.0,0.0,0.0,0.0,0.0,0.0,0.0,0.0,0.0,0.0,0.0,0.0,0.0,0.0,0.0,0.0,0.0,0.0,0.0,0.0,0.0,0.0,0.0,0.0,0.0,0.0,0.0,0.0,0.0,0.0,0.0,0.0,0.0,0.0,0.0,0.0,0.0,0.0,0.0,0.0,0.0,0.0,0.0,0.0,0.0,-1.0532,-1.1054,-1.1111,-1.0988,-1.0709,-1.0764,-1.0654,-1.0402,0.0,0.0,0.0,0.0,0.0,0.0,0.0,0.0,0.0,0.0,0.0,0.0,0.0,0.0,0.0,0.0,0.0,0.0,0.0,0.0,0.0,0.0,0.0,0.0,0.0,0.0,0.0,0.0,0.0,0.0,0.0,0.0,0.0,0.0,0.0,0.0,0.0,0.0,0.0,0.0,0.0,0.0,0.0,0.0,0.0,0.0,0.0,0.0,0.0,0.0,0.0,0.0,0.0,0.0,0.0,0.0,0.0,0.0,0.0,0.0,0.0,0.0,0.0,0.0,0.0,0.0,0.0,0.0,0.0,0.0,0.0,0.0,0.0,0.0,0.0,0.0,0.0,0.0,0.0,0.0,0.0,0.0,0.0,0.0,0.0,0.0,0.0,0.0,0.0,0.0,0.0,0.0,0.0,0.0,0.0,0.0,0.0,0.0,0.0,0.0,0.0,0.0,0.0,-1.0398,-1.0689,-1.1069,-1.1186,-1.1116,-1.0716,-1.1214,-1.1239,-1.0531,-1.0898,0.0,0.0,0.0,0.0,0.0,0.0,0.0,0.0,0.0,0.0,0.0,0.0,0.0,0.0,0.0,0.0,0.0,0.0,0.0,0.0,0.0,0.0,0.0,0.0,0.0,0.0,0.0,0.0,0.0,0.0,0.0,0.0,0.0,0.0,0.0,0.0,0.0,0.0,0.0,0.0,0.0,0.0,0.0,0.0,0.0,0.0,0.0,0.0,0.0,0.0,0.0,0.0,0.0,0.0,0.0,0.0,0.0,0.0,0.0,0.0,0.0,0.0,0.0,0.0,0.0,0.0,0.0,0.0,0.0,0.0,0.0,0.0,0.0,0.0,0.0,0.0,0.0,0.0,0.0,0.0,0.0,0.0,0.0,0.0,0.0,0.0,0.0,0.0,0.0,0.0,0.0,0.0,0.0,0.0,0.0,0.0,0.0,0.0,0.0,0.0,0.0,0.0,-1.0737,-1.0958,-1.1378,-1.1623,-1.1616,-1.1394,-1.2019,-1.2087,-1.1153,-1.1709,0.0,0.0,0.0,0.0,0.0,0.0,0.0,0.0,0.0,0.0,0.0,0.0,0.0,0.0,0.0,0.0,0.0,0.0,0.0,0.0,0.0,0.0,0.0,0.0,0.0,0.0,0.0,0.0,0.0,0.0,0.0,0.0,0.0,0.0,0.0,0.0,0.0,0.0,0.0,0.0,0.0,0.0,0.0,0.0,0.0,0.0,0.0,0.0,0.0,0.0,0.0,0.0,0.0,0.0,0.0,0.0,0.0,0.0,0.0,0.0,0.0,0.0,0.0,0.0,0.0,0.0,0.0,0.0,0.0,0.0,0.0,0.0,0.0,0.0,0.0,0.0,0.0,0.0,0.0,0.0,0.0,0.0,0.0,0.0,0.0,0.0,0.0,0.0,0.0,0.0,0.0,0.0,0.0,0.0,0.0,0.0,0.0,0.0,0.0,0.0,0.0,0.0,-1.0782,-1.1452,-1.2422,-1.2495,-1.2684,-1.3092,-1.3279,-1.3178,-1.2687,-1.2709,0.0,0.0,0.0,0.0,0.0,0.0,0.0,0.0,0.0,0.0,0.0,0.0,0.0,0.0,0.0,0.0,0.0,0.0,0.0,0.0,0.0,0.0,0.0,0.0,0.0,0.0,0.0,0.0,0.0,0.0,0.0,0.0,0.0,0.0,0.0,0.0,0.0,0.0,0.0,0.0,0.0,0.0,0.0,0.0,0.0,0.0,0.0,0.0,0.0,0.0,0.0,0.0,0.0,0.0,0.0,0.0,0.0,0.0,0.0,0.0,0.0,0.0,0.0,0.0,0.0,0.0,0.0,0.0,0.0,0.0,0.0,0.0,0.0,0.0,0.0,0.0,0.0,0.0,0.0,0.0,0.0,0.0,0.0,0.0,0.0,0.0,0.0,0.0,0.0,0.0,0.0,0.0,0.0,0.0,0.0,0.0,0.0,0.0,0.0,0.0,0.0,0.0,-1.171,-1.2494,0.0,-1.3027,-1.3162,-1.2964,-1.3558,-1.36,-1.2858,0.0,0.0,0.0,0.0,0.0,0.0,0.0,0.0,0.0,0.0,0.0,0.0,0.0,0.0,0.0,0.0,0.0,0.0,0.0,0.0,0.0,0.0,0.0,0.0,0.0,0.0,0.0,0.0,0.0,0.0,0.0,0.0,0.0,0.0,0.0,0.0,0.0,0.0,0.0,0.0,0.0,0.0,0.0,0.0,0.0,0.0,0.0,0.0,0.0,0.0,0.0,0.0,0.0,0.0,0.0,0.0,0.0,0.0,0.0,0.0,0.0,0.0,0.0,0.0,0.0,0.0,0.0,0.0,0.0,0.0,0.0,0.0,0.0,0.0,0.0,0.0,0.0,0.0,0.0,0.0,0.0,0.0,0.0,0.0,0.0,0.0,0.0,0.0,0.0,0.0,0.0,0.0,0.0,0.0,0.0,0.0,0.0,0.0,0.0,0.0,0.0,0.0,-1.1171,-1.2423,-1.3362,0.0,-1.3639,-1.381,-1.3531,-1.4081,-1.4096,-1.3399,0.0,0.0,0.0,0.0,0.0,0.0,0.0,0.0,0.0,0.0,0.0,0.0,0.0,0.0,0.0,0.0,0.0,0.0,0.0,0.0,0.0,0.0,0.0,0.0,0.0,0.0,0.0,0.0,0.0,0.0,0.0,0.0,0.0,0.0,0.0,0.0,0.0,0.0,0.0,0.0,0.0,0.0,0.0,0.0,0.0,0.0,0.0,0.0,0.0,0.0,0.0,0.0,0.0,0.0,0.0,0.0,0.0,0.0,0.0,0.0,0.0,0.0,0.0,0.0,0.0,0.0,0.0,0.0,0.0,0.0,0.0,0.0,0.0,0.0,0.0,0.0,0.0,0.0,0.0,0.0,0.0,0.0,0.0,0.0,0.0,0.0,0.0,0.0,0.0,0.0,0.0,0.0,0.0,0.0,0.0,0.0,0.0,0.0,0.0,0.0,0.0,0.0,-1.1793,-1.2764,-1.38,-1.4772,-1.4572,-1.459,-1.5253,-1.5078,-1.483,0.0,0.0,0.0,0.0,0.0,0.0,0.0,0.0,0.0,0.0,0.0,0.0,0.0,0.0,0.0,0.0,0.0,0.0,0.0,0.0,0.0,0.0,0.0,0.0,0.0,0.0,0.0,0.0,0.0,0.0,0.0,0.0,0.0,0.0,0.0,0.0,0.0,0.0,0.0,0.0,0.0,0.0,0.0,0.0,0.0,0.0,0.0,0.0,0.0,0.0,0.0,0.0,0.0,0.0,0.0,0.0,0.0,0.0,0.0,0.0,0.0,0.0,0.0,0.0,0.0,0.0,0.0,0.0,0.0,0.0,0.0,0.0,0.0,0.0,0.0,0.0,0.0,0.0,0.0,0.0,0.0,0.0,0.0,0.0,0.0,0.0,0.0,0.0,0.0,0.0,0.0,0.0,0.0,0.0,0.0,0.0,0.0,0.0,0.0,0.0,0.0,0.0,0.0,-1.2606,-1.416,-1.5126,-1.4925,-1.4889,-1.4849,-1.4874,-1.4913,-1.4844,-1.4641,0.0,0.0,0.0,0.0,0.0,0.0,0.0,0.0,0.0,0.0,0.0,0.0,0.0,0.0,0.0,0.0,0.0,0.0,0.0,0.0,0.0,0.0,0.0,0.0,0.0,0.0,0.0,0.0,0.0,0.0,0.0,0.0,0.0,0.0,0.0,0.0,0.0,0.0,0.0,0.0,0.0,0.0,0.0,0.0,0.0,0.0,0.0,0.0,0.0,0.0,0.0,0.0,0.0,0.0,0.0,0.0,0.0,0.0,0.0,0.0,0.0,0.0,0.0,0.0,0.0,0.0,0.0,0.0,0.0,0.0,0.0,0.0,0.0,0.0,0.0,0.0,0.0,0.0,0.0,0.0,0.0,0.0,0.0,0.0,0.0,0.0,0.0,0.0,0.0,0.0,0.0,0.0,0.0,0.0,0.0,0.0,0.0,0.0,0.0,0.0,0.0,0.0,-1.3118,-1.4624,-1.5441,-1.5028,-1.4951,-1.4935,-1.4803,-1.4653,-1.4596,-1.4734,0.0,0.0,0.0,0.0,0.0,0.0,0.0,0.0,0.0,0.0,0.0,0.0,0.0,0.0,0.0,0.0,0.0,0.0,0.0,0.0,0.0,0.0,0.0,0.0,0.0,0.0,0.0,0.0,0.0,0.0,0.0,0.0,0.0,0.0,0.0,0.0,0.0,0.0,0.0,0.0,0.0,0.0,0.0,0.0,0.0,0.0,0.0,0.0,0.0,0.0,0.0,0.0,0.0,0.0,0.0,0.0,0.0,0.0,0.0,0.0,0.0,0.0,0.0,0.0,0.0,0.0,0.0,0.0,0.0,0.0,0.0,0.0,0.0,0.0,0.0,0.0,0.0,0.0,0.0,0.0,0.0,0.0,0.0,0.0,0.0,0.0,0.0,0.0,0.0,0.0,0.0,0.0,0.0,0.0,0.0,0.0,0.0,0.0,0.0,0.0,0.0,0.0,-1.3352,-1.4355,-1.5029,-1.4987,-1.4823,-1.4704,-1.4857,-1.4347,-1.4232,-1.4878,0.0,0.0,0.0,0.0,0.0,0.0,0.0,0.0,0.0,0.0,0.0,0.0,0.0,0.0,0.0,0.0,0.0,0.0,0.0,0.0,0.0,0.0,0.0,0.0,0.0,0.0,0.0,0.0,0.0,0.0,0.0,0.0,0.0,0.0,0.0,0.0,0.0,0.0,0.0,0.0,0.0,0.0,0.0,0.0,0.0,0.0,0.0,0.0,0.0,0.0,0.0,0.0,0.0,0.0,0.0,0.0,0.0,0.0,0.0,0.0,-0.7111,0.0,0.0,0.0,0.0,0.0,0.0,0.0,0.0,0.0,0.0,0.0,0.0,0.0,0.0,0.0,0.0,0.0,0.0,0.0,0.0,0.0,0.0,0.0,0.0,0.0,0.0,0.0,0.0,0.0,0.0,0.0,0.0,0.0,0.0,0.0,0.0,0.0,0.0,0.0,0.0,0.0,-1.3709,-1.4359,-1.4666,-1.435,-1.4354,-1.4336,-1.4165,-1.4376,-1.4531,-1.4532,-1.4164,0.0,0.0,0.0,0.0,0.0,0.0,0.0,0.0,0.0,0.0,0.0,0.0,0.0,0.0,0.0,0.0,0.0,0.0,0.0,0.0,0.0,0.0,0.0,0.0,0.0,0.0,0.0,0.0,0.0,0.0,0.0,0.0,0.0,0.0,0.0,0.0,0.0,0.0,0.0,0.0,0.0,0.0,0.0,0.0,0.0,0.0,0.0,0.0,0.0,0.0,0.0,0.0,0.0,0.0,0.0,0.0,0.0,0.0,0.0,0.0,-0.8723,0.0,0.0,0.0,0.0,0.0,0.0,0.0,0.0,0.0,0.0,0.0,0.0,0.0,0.0,0.0,0.0,0.0,0.0,0.0,0.0,0.0,0.0,0.0,0.0,0.0,0.0,0.0,0.0,0.0,0.0,0.0,0.0,0.0,0.0,0.0,0.0,0.0,0.0,0.0,0.0,-1.3659,-1.4118,-1.4273,-1.3928,-1.4038,-1.4053,-1.3931,-1.4097,-1.4404,-1.4834,-1.4368,0.0,0.0,0.0,0.0,0.0,0.0,0.0,0.0,0.0,0.0,0.0,0.0,0.0,0.0,0.0,0.0,0.0,0.0,0.0,0.0,0.0,0.0,0.0,0.0,0.0,0.0,0.0,0.0,0.0,0.0,0.0,0.0,0.0,0.0,0.0,0.0,0.0,0.0,0.0,0.0,0.0,0.0,0.0,0.0,0.0,0.0,0.0,0.0,0.0,0.0,0.0,0.0,0.0,-0.5688,-0.5756,-0.5939,-0.6685,-0.7421,-0.8268,-0.8936,-0.9578,-1.0012,0.0,0.0,0.0,0.0,0.0,0.0,0.0,0.0,0.0,0.0,0.0,0.0,0.0,0.0,0.0,0.0,0.0,0.0,0.0,0.0,0.0,0.0,0.0,0.0,0.0,-1.2969,-1.2473,0.0,0.0,0.0,0.0,0.0,0.0,0.0,0.0,0.0,0.0,0.0,0.0,-1.3518,-1.3858,-1.3932,-1.3569,-1.3724,-1.383,-1.3758,-1.3719,-1.4125,-1.5002,-1.4435,-1.4286,0.0,0.0,0.0,0.0,0.0,0.0,0.0,0.0,0.0,0.0,0.0,0.0,0.0,0.0,0.0,0.0,0.0,0.0,0.0,0.0,0.0,0.0,0.0,0.0,0.0,0.0,0.0,0.0,0.0,0.0,0.0,0.0,-0.3646,-0.3988,0.0,0.0,0.0,0.0,0.0,0.0,0.0,0.0,0.0,0.0,0.0,0.0,0.0,-0.5206,-0.537,-0.5533,-0.5615,-0.5615,-0.5949,-0.6018,-0.5952,-0.7572,-0.8213,-0.8272,-0.9727,0.0,-1.0468,-1.04,0.0,0.0,0.0,0.0,0.0,0.0,0.0,0.0,0.0,0.0,0.0,0.0,0.0,0.0,0.0,0.0,0.0,0.0,0.0,0.0,0.0,0.0,-1.2951,-1.3669,-1.3301,-1.3274,0.0,-1.3506,-1.2489,-1.406,-1.3819,0.0,0.0,0.0,0.0,0.0,0.0,0.0,-1.369,-1.3803,-1.3652,-1.2926,-1.3268,-1.3447,-1.3234,-1.3641,-1.3967,-1.4216,-1.3895,-1.3867,-1.4376,-1.434,0.0,0.0,0.0,0.0,0.0,0.0,0.0,0.0,0.0,0.0,0.0,0.0,0.0,0.0,0.0,0.0,0.0,0.0,0.0,0.0,0.0,0.0,0.0,0.0,0.0,0.0,0.0,0.0,0.0,-0.3393,-0.3784,-0.3992,-0.431,-0.4475,0.0,0.0,0.0,0.0,0.0,0.0,0.0,0.0,0.0,-0.5123,-0.5254,-0.5489,-0.5702,-0.5835,-0.5962,-0.6083,-0.6147,-0.641,-0.6806,-0.7842,-0.8554,-0.9005,-1.0164,-1.0681,-1.0734,-1.0664,-1.0612,-1.0671,0.0,0.0,0.0,0.0,-1.1316,-1.1406,-1.1146,-1.1193,0.0,-1.0978,0.0,0.0,0.0,0.0,0.0,0.0,0.0,0.0,0.0,0.0,0.0,-1.4189,-1.4153,-1.4444,-1.5971,-1.5118,-1.4414,0.0,-1.472,-1.4146,-1.4364,0.0,0.0,0.0,0.0,0.0,-1.3862,-1.3858,-1.3652,-1.2969,-1.315,-1.3224,-1.3162,-1.3419,-1.3784,-1.4083,-1.4013,-1.4097,-1.4298,-1.4309,-1.421,0.0,0.0,0.0,0.0,0.0,0.0,0.0,0.0,0.0,0.0,0.0,0.0,0.0,0.0,0.0,0.0,0.0,0.0,0.0,0.0,0.0,0.0,0.0,0.0,0.0,0.0,0.0,0.0,-0.373,-0.399,-0.413,-0.4472,-0.4668,0.0,0.0,0.0,0.0,0.0,0.0,-0.4942,-0.5123,-0.5239,-0.5276,-0.5545,-0.58,-0.5975,-0.6178,-0.6306,-0.635,-0.6282,-0.6671,-0.7521,-0.8039,-0.8748,-0.9646,-1.0418,-1.0867,-1.093,-1.093,-1.0996,-1.1122,-1.1306,-1.1365,-1.1303,-1.156,-1.1622,-1.1622,-1.1622,-1.1622,-1.1556,-1.141,0.0,-1.1826,-1.159,0.0,0.0,0.0,0.0,-1.2879,-1.29,-1.354,-1.4398,-1.4742,-1.4795,-1.5118,-1.6285,-1.5999,-1.5704,0.0,-1.555,-1.4802,-1.483,0.0,0.0,0.0,0.0,-1.4439,-1.4043,-1.4024,-1.3756,-1.3208,-1.3118,-1.3152,-1.3266,-1.3314,-1.3562,-1.3954,-1.4078,-1.4133,-1.4133,-1.4247,-1.4252,-1.4133,0.0,0.0,0.0,0.0,0.0,0.0,0.0,0.0,0.0,0.0,0.0,0.0,0.0,0.0,0.0,0.0,0.0,0.0,0.0,0.0,0.0,0.0,0.0,0.0,0.0,0.0,0.0,0.0,0.0,-0.453,-0.4854,0.0,0.0,0.0,0.0,-0.4908,-0.5033,-0.5116,-0.5063,-0.5276,-0.5559,-0.5843,-0.5846,-0.5982,-0.6168,-0.6306,-0.6298,-0.6212,-0.635,-0.6806,-0.7521,-0.8169,-0.8938,-0.9837,-1.0481,-1.0993,-1.124,-1.124,-1.1185,-1.1125,-1.1439,-1.1494,-1.1303,-1.156,-1.1622,-1.1622,-1.1622,-1.1622,-1.163,-1.1924,-1.1847,-1.1549,-1.1242,-1.1518,0.0,0.0,-1.3628,-1.4529,-1.5079,-1.4838,-1.4656,-1.522,-1.4902,-1.4813,-1.5892,-1.5728,-1.5635,0.0,-1.6338,-1.5984,-1.6006,0.0,-1.5177,-1.5328,-1.5225,-1.4936,-1.436,-1.4301,-1.4012,-1.3265,-1.317,-1.3266,-1.3367,-1.3415,-1.3472,-1.3599,-1.3652,-1.3652,-1.3652,-1.4071,-1.4102,-1.3657,-1.449,0.0,0.0,0.0,0.0,0.0,0.0,0.0,0.0,0.0,0.0,0.0,0.0,0.0,0.0,0.0,0.0,0.0,0.0,0.0,0.0,0.0,0.0,0.0,0.0,0.0,0.0,0.0,0.0,-0.4642,-0.5029,0.0,-0.4907,-0.5123,-0.5164,-0.5062,-0.5194,-0.5279,-0.5279,-0.5556,-0.58,-0.5926,-0.6239,-0.6409,-0.6346,-0.6477,-0.6492,-0.635,-0.6863,-0.7509,-0.8291,-0.9,-0.9837,-1.0674,-1.0989,-1.1178,-1.1306,-1.1432,-1.1435,-1.1439,-1.156,-1.156,-1.156,-1.1809,-1.1937,-1.1941,-1.2135,-1.2169,-1.2262,-1.2825,-1.2915,-1.2858,-1.3053,-1.3233,-1.3472,-1.3615,-1.4159,-1.4746,-1.4569,-1.4942,-1.5366,-1.5104,-1.5235,-1.5537,-1.587,-1.584,-1.58,-1.6098,-1.5886,-1.5708,-1.5841,-1.5659,-1.5561,-1.5725,-1.5677,-1.5464,-1.5014,-1.4683,-1.4324,-1.3815,-1.3491,-1.3367,-1.3515,-1.352,-1.3615,-1.3821,-1.3868,-1.391,-1.4093,-1.4259,-1.4366,-1.4316,-1.4352,-1.4249,0.0,0.0,0.0,0.0,0.0,0.0,0.0,0.0,0.0,0.0,0.0,0.0,0.0,0.0,0.0,0.0,0.0,0.0,0.0,0.0,0.0,0.0,0.0,0.0,0.0,0.0,-0.4893,-0.4961,-0.5238,-0.5314,-0.5103,-0.5247,-0.532,-0.5216,-0.5303,-0.5427,-0.5491,-0.5652,-0.5895,-0.6146,-0.6541,-0.6725,-0.6683,-0.6743,-0.671,-0.6488,-0.7057,-0.7762,-0.8734,-0.9323,-1.0158,-1.1181,-1.1244,-1.1369,-1.1432,-1.1685,-1.1747,-1.1747,-1.1747,-1.1806,-1.193,-1.212,-1.2243,-1.2247,-1.2444,-1.2553,-1.2713,-1.3065,-1.3233,-1.339,-1.3809,-1.4061,-1.4209,-1.4259,-1.4742,-1.5167,-1.4756,-1.525,-1.5788,-1.5347,-1.5599,-1.5919,-1.5919,-1.5919,-1.5919,-1.5919,-1.5725,-1.5604,-1.573,-1.5798,-1.5798,-1.5919,-1.5919,-1.5748,-1.5391,-1.5072,-1.4709,-1.4215,-1.3877,-1.3733,-1.3731,-1.3663,-1.3758,-1.4104,-1.4062,-1.4109,-1.4378,-1.4378,-1.4437,-1.458,-1.4425,-1.4606,-1.5078,0.0,0.0,0.0,0.0,0.0,0.0,0.0,0.0,0.0,0.0,0.0,0.0,0.0,0.0,0.0,0.0,0.0,0.0,0.0,0.0,0.0,0.0,0.0,-0.5061,-0.5084,-0.5156,-0.536,-0.5493,-0.5525,-0.5442,-0.5425,-0.542,-0.542,-0.5422,-0.5484,-0.5609,-0.5624,-0.5979,-0.6664,-0.6684,-0.6842,-0.7159,-0.7093,-0.6877,-0.6694,-0.687,-0.7572,-0.8737,-0.9137,-1.0034,-1.1306,-1.1306,-1.1435,-1.1622,-1.1999,-1.2127,-1.2123,-1.2123,-1.2243,-1.2486,-1.2486,-1.2548,-1.2544,-1.2544,-1.2764,-1.2969,-1.2668,-1.2757,-1.3042,-1.3273,-1.3739,-1.4323,-1.4796,-1.541,-1.5919,-1.5919,-1.5919,-1.5919,-1.5919,-1.5919,-1.5919,-1.5919,-1.5919,-1.5919,-1.5919,-1.5919,-1.5914,-1.5914,-1.5914,-1.5914,-1.5914,-1.5919,0.0,-1.5456,-1.5445,-1.5157,-1.4443,-1.4324,-1.4231,-1.4031,-1.3779,-1.3852,-1.4373,-1.4156,-1.415,-1.4425,-1.4441,-1.4452,-1.4469,-1.4886,-1.5585,-1.6578,0.0,0.0,0.0,0.0,0.0,0.0,0.0,0.0,0.0,0.0,0.0,0.0,0.0,0.0,0.0,0.0,0.0,0.0,0.0,0.0,0.0,0.0,-0.5083,-0.5,-0.516,-0.536,-0.5362,-0.5464,-0.5475,-0.5432,-0.526,-0.5194,-0.5194,-0.5326,-0.5392,-0.5455,-0.6052,-0.6502,-0.6672,-0.7058,-0.7227,-0.708,-0.724,-0.7218,-0.6852,-0.764,-0.8484,-0.9323,-0.9904,-1.0671,-1.1498,-1.1498,-1.1685,-1.1999,-1.2062,-1.2371,-1.274,-1.249,-1.2425,-1.2548,-1.2797,-1.3033,-1.3208,-1.3208,-1.3281,-1.3346,-1.3231,-1.3304,-1.3511,-1.4231,-1.4592,-1.4883,-1.5768,-1.6134,-1.6264,-1.6264,-1.6264,-1.6264,-1.6264,-1.6264,-1.6264,-1.6264,-1.6264,-1.6264,-1.6264,-1.6264,-1.6202,-1.6066,-1.6061,-1.6072,-1.6259,-1.6264,0.0,-1.6141,-1.5988,-1.5734,-1.5387,-1.5065,-1.4762,-1.4547,-1.4302,-1.4332,-1.461,-1.4569,-1.461,-1.4886,-1.5294,-1.5561,-1.5752,-1.5703,-1.5811,0.0,0.0,0.0,0.0,0.0,0.0,0.0,0.0,0.0,0.0,0.0,0.0,0.0,0.0,0.0,0.0,0.0,0.0,0.0,0.0,0.0,0.0,-0.5131,-0.5228,-0.5104,-0.5308,-0.5428,-0.5428,-0.5428,-0.5428,-0.5428,-0.5279,-0.5199,-0.5135,-0.5319,-0.5522,-0.5521,-0.6116,-0.6559,-0.6706,-0.6973,-0.7132,-0.7015,-0.7214,-0.7236,-0.7048,-0.7907,-0.8686,-0.9518,-1.0028,-1.0793,0.0,-1.1747,-1.1937,-1.2123,-1.2371,-1.2679,0.0,0.0,0.0,0.0,0.0,-1.3333,-1.3506,-1.3506,-1.3506,-1.3506,-1.3506,-1.3506,-1.3627,-1.4359,-1.4715,-1.5069,-1.5909,-1.6264,-1.6436,-1.6545,-1.6488,-1.6436,-1.6705,-1.6648,-1.6596,-1.6705,-1.6608,-1.6523,-1.6724,-1.6382,0.0,-1.624,-1.6218,-1.6301,-1.654,-1.6596,-1.6596,-1.6772,-1.6629,-1.6433,-1.6083,-1.5647,-1.5318,-1.5078,-1.4657,0.0,0.0,0.0,-1.524,-1.5692,-1.6044,0.0,0.0,0.0,0.0,0.0,0.0,0.0,0.0,-1.6158,-1.5815,0.0,0.0,0.0,0.0,0.0,0.0,0.0,0.0,0.0,0.0,0.0,0.0,0.0,0.0,0.0,0.0,-0.526,-0.5428,-0.5428,-0.5347,-0.5342,-0.5427,-0.5428,-0.5428,-0.5428,-0.5411,-0.5279,-0.5142,-0.5447,-0.5661,-0.5711,0.0,0.0,0.0,0.0,-0.6836,-0.7001,-0.7229,-0.7333,-0.7265,-0.7792,-0.8565,-0.9585,-0.9897,-1.0657,-1.1685,-1.1999,-1.2185,-1.2247,-1.2801,-1.3025,-1.2988,-1.3025,-1.322,-1.3515,-1.3511,-1.3567,-1.3571,-1.3567,0.0,0.0,-1.3567,-1.3571,-1.3631,-1.4181,-1.4652,-1.5123,-1.572,-1.6197,-1.6545,-1.6756,-1.6653,-1.6596,-1.7083,-1.6989,-1.684,-1.7052,-1.6727,-1.6509,-1.6945,-1.6335,-1.5837,-1.6308,-1.6419,-1.6461,-1.6733,-1.6832,-1.6925,-1.7273,-1.7256,-1.7065,-1.6655,0.0,0.0,-1.5521,-1.4893,-1.4851,-1.5738,-1.5663,-1.5853,-1.6556,-1.6681,-1.6996,-1.7456,-1.7519,-1.7744,-1.809,-1.7871,-1.7595,-1.724,-1.6366,-1.5842,0.0,0.0,0.0,0.0,0.0,0.0,0.0,0.0,0.0,0.0,0.0,0.0,0.0,0.0,0.0,-0.5324,-0.5394,-0.5428,-0.5428,-0.5254,-0.5221,-0.5413,-0.5428,-0.5428,-0.5428,-0.5248,-0.5228,-0.5329,-0.5543,-0.5738,-0.5838,-0.633,-0.6652,-0.668,-0.7106,-0.7304,-0.7178,-0.7766,-0.8004,-0.7837,0.0,0.0,-0.9938,-1.0218,-1.0972,-1.1999,-1.2305,-1.2552,-1.2858,-1.2924,-1.2993,-1.3054,-1.3284,-1.3528,-1.3731,-1.3713,-1.3825,-1.3881,-1.3919,-1.3914,-1.3919,-1.3877,-1.3885,-1.4056,-1.5036,-1.5381,0.0,-1.6616,-1.6971,-1.7088,-1.7083,-1.7083,-1.7088,-1.7211,-1.6907,-1.6553,-1.6602,-1.6232,-1.587,-1.5962,-1.5832,-1.5728,-1.5821,-1.618,-1.6504,-1.6553,-1.689,-1.7139,-1.72,-1.7423,-1.7346,-1.6579,-1.6456,-1.6175,-1.549,-1.5122,-1.5063,-1.5257,-1.5618,-1.607,-1.6606,-1.7307,-1.782,-1.7984,-1.8318,-1.837,-1.809,-1.8035,-1.7871,-1.759,-1.6941,-1.6455,0.0,0.0,0.0,0.0,0.0,0.0,0.0,0.0,0.0,0.0,0.0,-0.5444,-0.5551,0.0,-0.5541,-0.5492,-0.5505,-0.5462,-0.5257,-0.5179,-0.5159,-0.5237,-0.5243,-0.5293,-0.5373,-0.5369,-0.5385,-0.5516,-0.5781,-0.5919,-0.5903,-0.6344,-0.6621,-0.6817,-0.7048,-0.7267,-0.7324,-0.7905,-0.8096,-0.8039,-0.863,-0.9203,-0.9812,-1.0366,-1.1052,-1.1859,-1.2095,-1.2415,-1.2757,-1.2806,-1.2862,-1.2939,-1.3057,-1.3277,-1.3532,-1.3583,-1.3795,-1.4005,-1.3979,-1.403,-1.3974,-1.4001,-1.401,-1.4125,-1.4638,-1.5153,-1.5723,-1.6255,-1.6781,-1.7251,-1.7423,-1.7307,-1.7246,-1.7338,-1.7022,-1.666,-1.6578,-1.6154,-1.5886,-1.6115,-1.5763,-1.5458,-1.5769,-1.602,-1.6209,-1.6339,-1.6536,-1.6743,-1.6897,-1.7066,-1.6976,-1.6608,-1.6355,-1.6067,-1.5672,-1.5565,-1.551,-1.551,-1.6136,-1.6578,-1.6618,-1.7267,-1.7525,-1.7329,-1.7589,-1.7723,-1.776,-1.776,-1.773,-1.7706,-1.7373,-1.7043,0.0,0.0,0.0,0.0,0.0,0.0,0.0,0.0,-0.5368,-0.5327,-0.5272,-0.5344,-0.5674,-0.5709,-0.5601,-0.5463,-0.5458,-0.5331,-0.489,-0.4892,-0.4981,-0.4981,-0.5025,-0.5204,-0.5398,-0.5468,-0.5605,-0.5702,-0.602,-0.612,-0.602,-0.6276,-0.655,-0.6881,-0.6944,-0.7202,-0.7589,-0.7919,-0.8117,-0.8117,-0.8823,-0.9331,-0.9685,-1.03,-1.0994,-1.1678,-1.1955,-1.2218,-1.2538,-1.2629,-1.2638,-1.2711,-1.2707,-1.2871,-1.3088,-1.328,-1.3615,-1.3973,-1.3893,-1.392,-1.3987,-1.4009,-1.4073,-1.4196,-1.4387,-1.5153,-1.5948,-1.6068,-1.6714,-1.7418,-1.7706,-1.7517,-1.7285,-1.7368,-1.7059,-1.6655,-1.6522,-1.6101,-1.5871,-1.6256,-1.567,-1.5246,-1.5676,-1.5751,-1.5821,-1.6119,-1.6221,-1.6378,-1.6573,-1.6623,-1.6589,-1.6497,-1.6141,-1.5866,-1.5762,-1.5751,-1.5751,-1.5751,-1.6512,-1.6793,-1.6486,-1.6936,-1.7032,-1.6623,-1.6679,-1.6925,-1.7232,-1.7329,-1.7482,-1.762,-1.7667,-1.7379,-0.8642,-0.828,-0.7522,-0.6199,-0.6152,-0.6166,0.0,0.0,-0.4712,-0.4416,-0.4461,-0.465,-0.5173,-0.5346,-0.5338,-0.4946,-0.4977,-0.4763,-0.3918,-0.4231,-0.4559,-0.4559,-0.4896,-0.5161,-0.5369,-0.543,-0.5551,-0.5826,-0.5917,-0.6051,-0.6316,-0.6408,-0.655,-0.6881,-0.7265,-0.7591,-0.7919,-0.8249,-0.8449,-0.8449,-0.8509,-0.9024,-0.9952,-1.0243,-1.088,-1.1914,-1.2359,-1.2521,-1.2616,-1.2738,-1.2597,-1.2297,-1.2404,-1.2513,-1.2623,-1.2932,-1.3396,-1.3881,-1.3511,-1.3597,-1.3889,-1.3889,-1.427,-1.4888,-1.5785,-1.6523,-1.7146,-1.7678,-1.7914,-1.803,-1.8035,-1.7693,-1.7392,-1.7392,-1.6709,-1.6007,-1.5998,-1.5573,-1.5217,-1.5269,-1.5188,-1.5131,-1.5188,-1.5194,-1.5378,-1.5858,-1.6304,-1.6579,-1.6623,-1.6623,-1.6463,-1.6032,-1.5934,-1.5711,-1.524,-1.5194,-1.5194,-1.5194,-1.5746,-1.604,-1.5986,-1.6845,-1.7081,-1.6623,-1.7026,-1.7055,-1.6709,-1.7157,-1.7404,-1.7426,-1.7607,-1.7379,-0.7261,-0.6946,0.0,0.0,-0.581,-0.5773,-0.5177,-0.4899,-0.4732,-0.446,-0.4389,-0.4498,-0.4822,-0.4822,-0.4763,0.0,-0.4568,-0.4362,-0.3826,-0.3889,-0.4015,-0.4048,-0.42,-0.4585,-0.53,-0.5494,-0.5624,-0.5863,-0.5875,-0.603,-0.6354,-0.6459,-0.6775,-0.7288,-0.7596,-0.7919,-0.8314,-0.8447,-0.8579,-0.8705,-0.8744,-0.9135,-0.9826,-1.0224,-1.0883,-1.1711,-1.215,-1.2325,-1.2213,-1.2226,-1.2207,-1.2142,-1.2193,-1.2246,-1.2332,-1.2689,-1.3154,-1.3549,-1.3345,-1.3401,-1.3539,-1.365,-1.3962,-1.4508,-1.528,-1.6135,-1.6918,-1.7533,-1.7963,-1.8253,-1.8253,-1.7978,-1.7508,-1.7116,-1.6504,-1.595,-1.5742,-1.5451,-1.5255,-1.5334,-1.5334,-1.5334,-1.5334,-1.5334,-1.541,-1.5637,-1.5701,-1.5745,-1.5745,-1.5745,-1.567,-1.5568,-1.5631,-1.5578,-1.5351,-1.5334,-1.5334,-1.5334,-1.5725,-1.5849,-1.5672,-1.6234,-1.6347,-1.598,-1.6167,-1.6268,-1.629,-1.6547,-1.6908,-1.7381,-1.7493,-1.7426,-0.6284,0.0,0.0,-0.5468,-0.5358,-0.5342,-0.4847,-0.4625,-0.446,-0.4299,-0.4132,-0.4064,-0.4326,-0.4236,-0.4107,-0.4009,-0.405,-0.3934,-0.3457,-0.3471,-0.3558,-0.3611,-0.368,-0.4085,-0.5006,-0.5226,-0.5499,-0.5799,-0.5811,-0.5953,-0.6306,-0.6498,-0.6883,-0.7503,-0.7719,-0.8021,-0.8412,-0.8481,-0.8578,-0.8832,-0.8885,-0.9166,-0.9687,-1.0348,-1.0986,-1.1558,-1.1969,-1.2024,-1.1886,-1.195,-1.1995,-1.2076,-1.2126,-1.2175,-1.2172,-1.254,-1.2888,-1.3156,-1.3102,-1.3136,-1.3287,-1.3341,-1.3642,-1.4124,-1.472,-1.5698,-1.674,-1.7196,-1.7844,-1.847,-1.847,-1.8031,-1.744,-1.6977,-1.6382,-1.584,-1.5551,-1.543,-1.539,-1.5468,-1.5513,-1.5513,-1.5513,-1.5513,-1.5513,-1.5513,-1.5328,-1.5198,-1.5198,-1.5198,-1.5249,-1.5345,-1.5552,-1.5668,-1.5668,-1.5794,-1.5838,-1.5838,-1.6107,-1.6101,-1.5882,-1.6101,-1.6101,-1.5838,-1.5838,-1.5993,-1.6292,-1.6441,-1.6932,-1.7713,-1.7759,-1.7903,0.0,0.0,-0.6514,-0.4903,-0.4835,-0.4889,-0.4016,-0.3633,-0.3469,-0.3413,-0.3193,-0.3122,-0.3602,-0.3685,-0.3507,-0.3212,-0.3392,-0.3324,-0.2474,-0.2834,-0.3285,-0.3395,-0.3684,-0.3977,0.0,-0.4553,-0.4983,-0.5548,-0.562,-0.5814,-0.6297,-0.6313,-0.6614,-0.7265,-0.733,-0.762,-0.8218,-0.8356,-0.854,-0.877,-0.86,-0.8862,-0.9516,-1.0475,-1.12,-1.1713,-1.1831,-1.1931,-1.1913,-1.204,-1.2076,-1.2126,-1.2229,-1.2274,-1.2328,-1.2445,-1.2704,-1.2884,-1.2601,-1.2774,-1.3105,-1.3105,-1.3516,-1.4063,-1.4498,-1.5706,-1.6974,-1.6986,-1.7779,-1.8614,-1.8614,-1.7802,-1.7044,-1.7026,-1.6238,-1.5531,-1.5519,-1.5513,-1.5513,-1.5513,-1.5513,-1.5513,-1.5513,-1.5513,-1.5513,-1.5513,-1.5468,-1.5468,-1.5468,-1.5468,-1.5468,-1.5468,-1.587,-1.6064,-1.6064,-1.6489,-1.675,-1.675,-1.6786,-1.6786,-1.675,-1.6786,-1.6786,-1.675,-1.675,-1.6756,-1.6769,-1.7307,-1.7881,-1.8454,-1.8725,-1.8975,0.0,0.0,-0.4992,-0.4542,-0.4282,-0.4138,-0.3991,-0.3706,-0.3499,-0.3394,-0.3147,-0.3003,-0.3198,-0.3095,-0.2934,-0.2832,-0.2916,-0.2915,-0.2622,-0.2685,-0.2856,-0.2901,-0.3049,0.0,0.0,0.0,0.0,-0.5015,-0.5216,-0.557,-0.6194,-0.6561,-0.6929,-0.7333,-0.7651,-0.7887,-0.8091,-0.822,-0.8388,-0.8589,-0.8965,-0.9382,-0.9886,-1.0667,-1.134,-1.1818,-1.195,-1.209,-1.2189,-1.2218,-1.2286,-1.2351,-1.2417,-1.2452,-1.2452,-1.2569,-1.2713,-1.2714,-1.2577,-1.2565,-1.2734,-1.2788,-1.3361,-1.4115,-1.466,-1.5836,-1.7085,-1.7536,-1.7919,-1.8223,-1.8223,-1.749,-1.6699,-1.6634,-1.6112,-1.5659,-1.5703,-1.5653,-1.5659,-1.5703,-1.5703,-1.5703,-1.5703,-1.5703,-1.5703,-1.5703,-1.5603,-1.5513,-1.5513,-1.5564,-1.5614,-1.5614,-1.5774,-1.6026,-1.6324,-1.649,-1.6746,-1.7047,-1.7047,-1.7047,-1.7047,-1.7047,-1.7047,-1.7047,-1.7047,-1.7041,-1.6938,-1.7095,-1.7445,-1.7926,-1.8401,-1.8767,-0.5465,-0.4969,-0.4582,-0.4487,-0.4133,-0.3887,-0.3952,-0.3808,-0.3595,-0.3555,-0.3269,-0.3047,-0.3033,-0.2764,-0.2588,-0.2488,-0.2521,-0.2521,-0.2521,-0.2448,-0.2491,-0.2724,-0.271,-0.2865,0.0,0.0,0.0,-0.4573,-0.485,-0.5322,-0.5983,-0.6437,-0.687,-0.7263,-0.7581,-0.7813,-0.7899,-0.8082,-0.8274,-0.853,-0.9234,-0.9705,-1.0118,-1.0852,-1.1463,-1.2,-1.2126,-1.221,-1.2304,-1.2341,-1.2414,-1.2485,-1.255,-1.2589,-1.2603,-1.272,-1.2779,-1.2779,-1.2676,-1.2627,-1.2681,-1.273,-1.3147,-1.3715,-1.428,-1.546,-1.6731,-1.7375,-1.7814,-1.8064,-1.8064,-1.7326,-1.6578,-1.6554,-1.6164,-1.5836,-1.5925,-1.5887,-1.5887,-1.5925,-1.5925,-1.5925,-1.5925,-1.5925,-1.5925,-1.5925,-1.5836,-1.578,-1.5901,-1.5957,-1.6094,-1.6331,-1.6497,-1.6704,-1.7028,-1.7242,-1.7455,-1.7747,-1.7754,-1.7754,-1.7754,-1.7754,-1.7754,-1.7754,-1.7754,-1.7707,-1.7619,-1.7619,-1.7844,-1.8253,-1.8528,-1.8826,-0.6106,-0.5633,-0.5184,-0.4694,-0.4357,-0.4058,-0.3961,-0.3816,-0.377,-0.3813,-0.3508,-0.3174,-0.3072,0.0,-0.2496,-0.2217,-0.2187,-0.2244,-0.224,-0.2177,-0.2298,0.0,0.0,0.0,0.0,0.0,0.0,-0.4183,0.0,-0.5022,-0.5653,-0.6041,-0.6482,-0.7082,-0.7257,-0.7425,-0.7709,-0.7996,-0.8256,-0.8604,-0.9407,-0.9954,-1.023,-1.0989,-1.1581,-1.2069,-1.2218,-1.2321,-1.2297,-1.2444,-1.2511,-1.2535,-1.2686,-1.2706,-1.2725,-1.2876,-1.2925,-1.2925,-1.2925,-1.2929,-1.2929,-1.2929,-1.2929,-1.3017,-1.352,-1.473,-1.6081,-1.6606,-1.7417,-1.8163,-1.8163,-1.7376,-1.6628,-1.6754,-1.6365,-1.6044,-1.6188,-1.62,-1.62,-1.62,-1.62,-1.62,-1.62,-1.62,-1.62,-1.62,-1.62,-1.6318,-1.6637,-1.6595,-1.6752,-1.7388,-1.7774,-1.8014,-1.8099,-1.8525,-1.8777,-1.8784,-1.8784,-1.8784,-1.8784,-1.8784,-1.8784,-1.8784,-1.8784,-1.8767,-1.8718,-1.868,-1.8891,-1.9348,-1.9093,-1.9087,-0.5517,-0.5157,-0.4842,-0.4514,-0.4312,-0.419,-0.4326,-0.4196,-0.4103,-0.431,-0.3953,-0.3635,-0.3606,0.0,0.0,-0.2691,-0.2687,0.0,-0.2587,-0.2559,0.0,-0.2481,0.0,-0.2905,-0.2839,-0.3044,0.0,0.0,-0.3988,-0.4672,-0.5653,-0.6041,-0.6539,-0.7201,-0.7362,-0.7549,-0.7718,-0.7997,-0.833,-0.8609,-0.9309,-0.9933,-1.0529,-1.1193,-1.1663,-1.1918,-1.2284,-1.2325,-1.2107,-1.2508,-1.2793,-1.2968,-1.2968,-1.305,-1.3084,-1.3132,-1.3132,-1.3132,-1.3132,-1.3104,-1.3036,-1.3036,-1.3344,-1.3795,-1.4299,-1.5547,-1.6898,-1.7357,-1.7709,-1.7916,-1.7916,-1.7121,-1.6308,-1.6352,-1.6248,-1.615,-1.6194,-1.62,-1.62,-1.62,-1.62,-1.62,-1.62,-1.62,-1.62,-1.62,-1.62,-1.6237,-1.6318,-1.6558,-1.6795,-1.6951,-1.736,-1.7754,-1.8059,-1.8231,-1.844,-1.8784,-1.8784,-1.8784,-1.8784,-1.8784,-1.8784,-1.8784,-1.8784,-1.8767,-1.8718,-1.8333,-1.8377,-1.8724,-1.8797,-1.8776,-0.5858,-0.5425,-0.4979,-0.4574,-0.4372,-0.435,-0.4532,-0.44,-0.4308,-0.4631,-0.4246,0.0,-0.3338,-0.3079,0.0,0.0,0.0,0.0,-0.2584,-0.2545,-0.2513,0.0,-0.2779,0.0,-0.2834,-0.306,-0.3158,0.0,-0.3677,-0.4445,-0.5421,-0.5876,-0.649,-0.7263,-0.7467,-0.7676,-0.7892,-0.8212,-0.8477,-0.8689,-0.9381,-0.993,-1.0446,-1.1281,-1.1597,-1.1613,0.0,-1.2308,-1.222,-1.254,-1.2829,-1.3152,-1.3152,-1.319,-1.3213,-1.3213,-1.3102,-1.2951,-1.2951,-1.2831,-1.2735,-1.3312,-1.3847,-1.4425,-1.5205,-1.6214,-1.7205,-1.766,-1.781,-1.7755,-1.7515,-1.6827,-1.6194,-1.6281,-1.6275,-1.6318,-1.6318,-1.6318,-1.6318,-1.6318,-1.6318,-1.6318,-1.6318,-1.6318,-1.6318,-1.6318,-1.6491,-1.6663,-1.6663,-1.6778,-1.7012,-1.7489,-1.7727,-1.8047,-1.8518,-1.8518,-1.8647,-1.8905,-1.8943,-1.8943,-1.8943,-1.8943,-1.8943,-1.8943,-1.8943,-1.8791,-1.8528,-1.8279,-1.8075,-1.7969,-1.8098,-1.8051,-0.653,-0.6014,-0.5418,-0.4912,-0.4654,-0.4585,-0.4717,-0.4513,-0.4373,-0.467,0.0,-0.353,-0.2577,-0.2552,-0.2436,-0.153,0.0,-0.2246,-0.2237,-0.2181,-0.228,-0.2582,-0.265,-0.274,-0.2884,-0.2943,-0.2997,-0.3059,-0.3564,-0.42,-0.5076,-0.56,-0.6381,-0.7368,-0.759,-0.7853,-0.8271,-0.84,-0.859,-0.8744,-0.9409,-0.9871,-1.019,-1.1147,-1.1496,-1.1291,0.0,0.0,-1.2247,-1.2448,-1.273,-1.3037,-1.3037,-1.3042,-1.3089,-1.3089,-1.2914,-1.261,-1.261,-1.2513,-1.2503,-1.3435,-1.4057,-1.4648,-1.5724,-1.6439,-1.7057,-1.758,-1.7753,-1.7642,-1.7168,-1.6644,-1.6281,-1.6399,-1.6399,-1.6436,-1.6522,-1.6528,-1.6528,-1.6528,-1.6528,-1.6522,-1.6565,-1.6607,-1.6644,-1.6644,-1.7018,-1.731,-1.731,-1.7199,-1.7475,-1.839,-1.8429,-1.8584,-1.9064,-1.9101,-1.9101,-1.9101,-1.9101,-1.9101,-1.9101,-1.9101,-1.9101,-1.9101,-1.9101,-1.8867,-1.839,-1.8351,-1.8014,-1.7517,-1.7435,-1.7366,-0.6316,-0.6269,-0.6233,-0.584,-0.5495,-0.5209,-0.5143,-0.4616,0.0,0.0,0.0,-0.257,-0.2014,-0.1496,-0.1059,-0.0822,0.0,0.0,0.0,0.0,-0.1812,0.0,0.0,0.0,0.0,0.0,0.0,0.0,0.0,-0.3937,-0.45,-0.5202,-0.6256,-0.7738,-0.7737,-0.7981,-0.8521,-0.8104,-0.8085,-0.8578,-0.8993,-0.949,-0.9986,-1.071,-1.108,-1.1172,-1.1586,0.0,-1.1456,-1.1852,-1.213,-1.2312,-1.2312,-1.2361,-1.2492,-1.2618,-1.2662,-1.2637,-1.2808,-1.3206,-1.3522,-1.2684,-1.2737,-1.3328,-1.4399,-1.5354,-1.6212,-1.72,-1.748,-1.7455,-1.7355,-1.6904,-1.6436,-1.6479,-1.6479,-1.6528,-1.6626,-1.6675,-1.6675,-1.6675,-1.6675,-1.6712,-1.6791,-1.7115,-1.731,-1.731,-1.7693,-1.7947,-1.7947,-1.8094,-1.8305,-1.8468,-1.8784,-1.8981,-1.9101,-1.9101,-1.9101,-1.9101,-1.9101,-1.9101,-1.9101,-1.9101,-1.9101,-1.9101,-1.9101,-1.904,-1.8865,-1.8482,-1.8383,-1.8539,-1.8152,-1.7947,-0.1972,-0.1749,-0.1876,-0.3687,-0.3862,-0.3988,-0.5538,0.0,0.0,0.0,-0.3146,-0.1956,-0.1006,0.0,0.0,0.0,0.0,0.0,0.0,0.0,0.0,0.0,0.0,0.0,0.0,0.0,0.0,0.0,0.0,-0.3828,-0.451,-0.5709,-0.6801,-0.775,-0.7869,-0.7996,-0.824,-0.8008,-0.8126,-0.8504,-0.8681,-0.9132,-0.9764,-1.0328,-1.0733,-1.0979,-1.1368,0.0,-1.1419,-1.1649,-1.2005,-1.2382,-1.2382,-1.2468,-1.2637,-1.2727,-1.2607,-1.2392,-1.2514,-1.2704,-1.2868,-1.2542,-1.3366,-1.4595,-1.5423,-1.6182,-1.691,-1.7422,-1.7549,-1.7479,-1.7188,-1.6908,-1.6699,-1.6699,-1.6699,-1.6748,-1.6797,-1.6803,-1.6803,-1.6803,-1.696,-1.7157,-1.7199,-1.7544,-1.7807,-1.7807,-1.8166,-1.844,-1.844,-1.8769,-1.8905,-1.8669,-1.8822,-1.9019,-1.9221,-1.9258,-1.9258,-1.9258,-1.9258,-1.9258,-1.9258,-1.9258,-1.9258,-1.9258,-1.9258,-1.9108,-1.8812,-1.856,-1.839,-1.8226,-1.8014,-1.7841,0.1823,0.2267,0.2205,-0.0858,-0.1129,-0.1232,-0.3431,-0.3776,0.0,0.0,-0.1846,-0.0781,0.0391,0.0,0.0,0.0,0.0,0.0,0.0,0.0,0.0,0.0,0.0,0.0,0.0,0.0,0.0,0.0,0.0,0.0,-0.4907,-0.6145,-0.7106,-0.7672,-0.7848,-0.7937,-0.7929,-0.7939,-0.8087,-0.8379,-0.8399,-0.8762,-0.9545,-0.993,-1.0368,-1.0805,-1.1134,0.0,0.0,-1.1437,-1.1771,-1.2225,-1.2261,-1.239,-1.2549,-1.2625,-1.2491,-1.2289,-1.2329,-1.2405,-1.2525,-1.3012,-1.4256,-1.564,-1.6328,-1.6893,-1.7375,-1.7503,-1.7542,-1.7433,-1.6997,-1.6882,-1.6882,-1.6882,-1.6924,-1.6918,-1.6882,-1.6924,-1.6918,-1.6918,-1.7282,-1.7557,-1.7557,-1.7974,-1.8309,-1.8309,-1.8717,-1.8974,-1.8974,-1.9288,-1.9332,-1.9011,-1.8936,-1.9064,-1.9376,-1.942,-1.942,-1.942,-1.942,-1.942,-1.942,-1.942,-1.942,-1.942,-1.942,-1.9183,-1.8745,-1.8745,-1.8507,-1.7988,-1.7988,-1.7935,0.1304,0.1532,0.1912,0.1068,0.2187,0.3604,0.4176,0.0,0.0,0.3968,0.2845,0.1779,0.2343,0.2799,0.0,0.0,0.0,0.0,0.0,0.0,0.0,0.0,0.0,0.0,0.0,0.0,0.0,0.0,0.0,0.0,-0.5609,-0.5975,-0.6587,-0.7672,-0.756,-0.7682,-0.8061,-0.7653,-0.7648,-0.8023,-0.7985,-0.8403,-0.9233,-0.9457,-1.0028,-1.0784,-1.083,0.0,0.0,-1.0943,-1.1007,-1.1082,-1.1274,-1.135,-1.1388,-1.1771,-1.2183,-1.2592,-1.2753,-1.3468,-1.4283,-1.4338,-1.4203,-1.4181,-1.5302,-1.5863,-1.6267,-1.6805,-1.6952,-1.6946,-1.6895,-1.6882,-1.6882,-1.6882,-1.696,-1.696,-1.6924,-1.696,-1.7002,-1.7002,-1.7358,-1.7713,-1.7754,-1.8468,-1.9019,-1.9019,-1.9354,-1.961,-1.961,-1.9646,-1.9654,-1.961,-1.9435,-1.9376,-1.942,-1.942,-1.942,-1.942,-1.942,-1.942,-1.942,-1.942,-1.942,-1.942,-1.942,-1.9339,-1.9221,-1.9221,-1.9139,-1.8981,-1.8981,-1.8974,0.7472,0.7406,0.7053,0.4487,0.5067,0.58,0.3992,0.0,0.4069,0.4081,0.4045,0.3989,0.378,0.4288,0.4842,0.0,0.4891,0.4718,0.0,0.0,0.0,0.0,0.0,0.0,0.0,0.0,0.0,0.0,0.0,0.0,-0.5092,-0.5731,-0.6533,-0.7478,-0.7542,-0.7674,-0.7964,-0.7794,-0.79,-0.8246,-0.8233,-0.8574,-0.9217,-0.9588,-1.0094,-1.0769,-1.1072,0.0,0.0,-1.1271,-1.1346,-1.1458,-1.1532,-1.1649,-1.1793,-1.2289,-1.2615,-1.2832,-1.3293,-1.3917,-1.4557,-1.5021,-1.5328,-1.5614,-1.5929,-1.6457,-1.6932,-1.7057,-1.7295,-1.7461,-1.7282,-1.7371,-1.7508,-1.7508,-1.7413,-1.7275,-1.7275,-1.7199,-1.7199,-1.7434,-1.7875,-1.8266,-1.8602,-1.9147,-1.9545,-1.9625,-1.9777,-1.9884,-1.9884,-1.9884,-1.9841,-1.9762,-1.9654,-1.9589,-1.9589,-1.9589,-1.9589,-1.9589,-1.9589,-1.9589,-1.9589,-1.9589,-1.9589,-1.9589,-1.9589,-1.9516,-1.9376,-1.9376,-1.9258,-1.9101,-1.9101,-1.9101,1.1931,1.1619,1.1004,0.8399,0.865,0.8956,0.0,0.6543,0.6636,0.5971,0.592,0.5803,0.515,0.5496,0.5938,0.0,0.6246,0.6242,0.6303,0.0,0.0,0.0,0.0,0.0,0.0,0.0,0.0,0.0,0.0,0.0,0.0,-0.5587,-0.6438,-0.7093,-0.7433,-0.7677,-0.7878,-0.7912,-0.8118,-0.8451,-0.85,-0.8854,-0.9478,-0.9859,-1.0355,-1.0948,0.0,0.0,0.0,-1.1516,-1.1584,-1.1717,-1.1948,-1.2121,-1.2333,-1.2937,-1.3264,-1.3523,-1.4069,-1.4655,-1.525,-1.5882,-1.6538,-1.7035,-1.691,-1.723,-1.757,-1.7454,-1.7672,-1.7875,-1.7652,-1.7747,-1.7882,-1.7882,-1.7747,-1.7611,-1.7611,-1.7488,-1.7488,-1.776,-1.8266,-1.8717,-1.905,-1.9522,-1.9884,-1.9998,-2.0005,-2.0005,-2.0005,-2.0005,-1.9962,-1.9884,-1.9805,-1.9762,-1.9726,-1.9726,-1.9762,-1.9805,-1.9762,-1.9762,-1.9805,-1.9805,-1.9762,-1.9726,-1.9726,-1.9625,-1.9457,-1.9457,-1.9376,-1.9183,-1.9183,-1.9139,1.2722,1.2301,1.2283,1.2723,1.3176,1.3861,0.0,1.3642,1.1916,1.1591,0.9336,0.7213,0.6671,0.6475,0.6492,0.6828,0.7146,0.7374,0.7315,0.0,0.0,0.0,0.0,0.0,0.0,0.0,0.0,0.0,0.0,0.0,0.0,-0.5556,-0.6295,-0.6483,-0.715,-0.7614,-0.7916,-0.7983,-0.8185,-0.8521,-0.8781,-0.9332,-1.0118,-1.0293,-1.0797,0.0,0.0,0.0,0.0,-1.1516,-1.1516,-1.1565,-1.2307,-1.2619,-1.2787,-1.3535,-1.4169,-1.4766,-1.5209,-1.5936,-1.6733,-1.714,-1.7544,-1.7875,-1.7875,-1.7875,-1.7882,-1.7882,-1.7882,-1.7882,-1.7882,-1.7882,-1.7882,-1.7882,-1.7882,-1.7882,-1.7882,-1.7875,-1.7875,-1.7882,-1.8422,-1.8893,-1.8893,-1.9522,-2.0005,-2.0005,-2.0005,-2.0005,-2.0005,-2.0005,-2.0005,-2.0005,-2.0005,-1.9927,-1.9805,-1.9805,-1.9848,-1.9998,-1.9884,-1.9848,-1.9998,-2.0005,-1.9927,-1.9805,-1.9805,-1.9741,-1.9618,-1.9618,-1.9538,-1.942,-1.9339,-1.9221,1.438,1.3508,1.2795,1.3251,1.3723,1.4017,1.3789,1.338,1.271,1.145,1.0192,0.8973,0.7809,0.761,0.7683,0.7855,0.0,0.0,0.0,0.0,0.0,0.0,0.0,0.0,0.0,0.0,0.0,0.0,0.0,0.0,0.0,-0.5252,-0.6201,-0.6813,-0.7572,-0.8118,-0.8439,-0.8476,-0.8639,-0.8971,-0.906,-0.9412,-0.9986,-1.0413,0.0,0.0,0.0,0.0,0.0,-1.1926,-1.1926,-1.1943,-1.2187,-1.251,-1.2927,-1.3552,-1.4128,-1.4643,-1.5359,-1.6071,-1.6716,-1.6915,-1.7468,-1.8123,-1.8123,-1.8123,-1.8123,-1.8282,-1.8202,-1.8123,-1.8282,-1.8321,-1.8321,-1.8321,-1.8202,-1.8156,-1.8326,-1.8286,-1.8319,-1.8846,-1.9102,-1.9354,-1.9645,-1.9925,-2.0088,-2.02,-2.0208,-2.0208,-2.0208,-2.0208,-2.0166,-2.008,-2.0158,-2.0131,-1.9955,-1.9927,-1.9962,-2.0005,-1.9962,-1.9962,-2.0005,-1.9919,-1.9841,-1.9805,-1.9762,-1.9697,-1.9618,-1.9618,-1.9538,-1.942,-1.9339,-1.9295,0.0,1.456,1.3781,1.4417,1.4537,1.4297,1.3709,1.3662,1.3313,1.167,1.0795,1.0011,0.8883,0.8517,0.8359,0.8399,0.0,0.0,0.0,0.0,0.0,0.0,0.0,0.0,0.0,0.0,0.0,0.0,0.0,0.0,0.0,-0.5166,-0.6189,-0.7046,-0.7773,-0.832,-0.8679,-0.8769,-0.8931,-0.9252,-0.9301,-0.9581,-1.0079,-1.0567,0.0,0.0,0.0,0.0,0.0,-1.2222,-1.2222,-1.2262,-1.2614,-1.2884,-1.3155,-1.4146,-1.4553,-1.4785,-1.5868,-1.6505,-1.6844,-1.7313,-1.7855,-1.8321,-1.8321,-1.8321,-1.8361,-1.8478,-1.84,-1.8361,-1.8478,-1.8517,-1.8517,-1.8517,-1.84,-1.8354,-1.8535,-1.8443,-1.8553,-1.9117,-1.9303,-1.9522,-1.9917,-2.0108,-2.0185,-2.0304,-2.0304,-2.0304,-2.0304,-2.0304,-2.027,-2.0185,-2.0262,-2.0243,-2.0131,-2.0068,-2.0025,-2.0025,-1.999,-2.0005,-2.0005,-1.9919,-1.9841,-1.9805,-1.9762,-1.9697,-1.964,-1.964,-1.9567,-1.9457,-1.942,-1.9384,0.0,1.5388,1.5073,1.5954,1.5454,1.4737,1.4703,1.438,0.0,1.2204,1.1234,1.0427,0.9758,0.9127,0.8707,0.8689,0.0,0.0,0.0,0.0,0.0,0.0,0.0,0.0,0.0,0.0,0.0,0.0,0.0,0.0,0.0,-0.5255,-0.6228,-0.7151,-0.7716,-0.8267,-0.8716,-0.8862,-0.906,-0.9324,-0.943,-0.9827,-1.0356,-1.0797,0.0,0.0,0.0,0.0,0.0,-1.2407,-1.2431,-1.256,-1.3453,-1.3604,-1.3519,-1.5011,-1.5253,-1.5051,-1.6608,-1.7042,-1.7109,-1.8166,-1.8517,-1.8517,-1.8517,-1.8517,-1.8517,-1.8517,-1.8517,-1.8517,-1.8517,-1.8517,-1.8517,-1.8517,-1.8517,-1.8517,-1.851,-1.851,-1.862,-1.8905,-1.9213,-1.9516,-1.9795,-2.0108,-2.0304,-2.0304,-2.0304,-2.0304,-2.0304,-2.0304,-2.0304,-2.0304,-2.0304,-2.0304,-2.0304,-2.0185,-2.0108,-2.0108,-2.0061,-2.0033,-2.0033,-1.9998,-1.9955,-1.9833,-1.9805,-1.9762,-1.9682,-1.9682,-1.9661,-1.9618,-1.9618,-1.9538,1.5483,0.0,1.5482,1.6077,1.5608,1.4903,0.0,1.4,1.3225,0.0,0.0,1.083,0.9997,0.9771,0.9736,0.0,0.0,0.0,0.0,0.0,0.0,0.0,0.0,0.0,0.0,0.0,0.0,0.0,0.0,0.0,0.0,-0.526,-0.6167,-0.7011,-0.7859,-0.8565,-0.9159,-0.9204,-0.9297,-0.947,-0.9599,-1.0054,-1.0829,-1.1062,0.0,0.0,0.0,0.0,-1.2407,-1.2407,-1.2643,-1.2985,-1.2831,-1.3147,-1.3828,-1.4292,-1.466,-1.5042,-1.6241,-1.6851,-1.7302,-1.8219,-1.8517,-1.8517,-1.8517,-1.8517,-1.8517,-1.8517,-1.8517,-1.8517,-1.8517,-1.8517,-1.8517,-1.8517,-1.8517,-1.8549,-1.876,-1.8798,-1.8974,-1.9508,-1.9652,-1.9811,-2.0115,-2.0262,-2.0304,-2.0304,-2.0304,-2.0304,-2.0304,-2.0304,-2.0304,-2.0304,-2.0304,-2.0304,-2.0304,-2.027,-2.0262,-2.0262,-2.0235,-2.0235,-2.0235,-2.0115,-2.0073,-2.0038,-1.9876,-1.9762,-1.9682,-1.9682,-1.969,-1.9697,-1.9603,-1.9582,1.4941,1.541,1.5854,1.5988,1.5665,1.5165,1.4599,0.0,0.0,0.0,0.0,0.0,1.1194,0.0,0.0,0.0,0.0,0.0,0.0,0.0,0.0,0.0,0.0,0.0,0.0,0.0,0.0,0.0,0.0,0.0,0.0,-0.5359,-0.6176,-0.7059,-0.7818,-0.8476,-0.9039,-0.9332,-0.9506,-0.9599,-0.9753,-1.0166,-1.0835,-1.1094,-1.1579,0.0,0.0,0.0,-1.2526,-1.2526,-1.2723,-1.2997,-1.3199,-1.3436,-1.3822,-1.4665,-1.5092,-1.5377,-1.6562,-1.7352,-1.7982,-1.8432,-1.8556,-1.8517,-1.8517,-1.8517,-1.8517,-1.8517,-1.8517,-1.8517,-1.8517,-1.8517,-1.8517,-1.8517,-1.8517,-1.8549,-1.8697,-1.8798,-1.9049,-1.9522,-1.9732,-1.9909,-2.0227,-2.0304,-2.0304,-2.0304,-2.0304,-2.0304,-2.0304,-2.0304,-2.0331,-2.0399,-2.0339,-2.0365,-2.0501,-2.0426,-2.0331,-2.0227,-2.0289,-2.0296,-2.0173,-2.0193,-2.0158,-2.0053,-1.9955,-1.9841,-1.9762,-1.9762,-1.9726,-1.9682,-1.9661,-1.964,1.4278,1.5179,1.5866,1.573,1.5603,1.5367,1.4686,0.0,0.0,0.0,0.0,0.0,0.0,0.0,0.0,0.0,0.0,0.0,0.0,0.0,0.0,0.0,0.0,0.0,0.0,0.0,0.0,0.0,0.0,0.0,0.0,-0.5539,-0.6224,-0.7189,-0.781,-0.8304,-0.8679,-0.9381,-0.9718,-0.9758,-0.9946,-1.0283,-1.0731,-1.1169,-1.1617,0.0,0.0,0.0,-1.295,-1.295,-1.2999,-1.3149,-1.4008,-1.4105,-1.3948,-1.5374,-1.5775,-1.5842,-1.7123,-1.8088,-1.8718,-1.8718,-1.8595,-1.8517,-1.8517,-1.8517,-1.8517,-1.8517,-1.8517,-1.8517,-1.8517,-1.8517,-1.8517,-1.8549,-1.8549,-1.8595,-1.8634,-1.8805,-1.9056,-1.9406,-1.9631,-1.9909,-2.0227,-2.0304,-2.0304,-2.0304,-2.0304,-2.0304,-2.0304,-2.0304,-2.0331,-2.046,-2.0373,-2.0433,-2.0728,-2.0595,-2.0418,-2.0212,-2.0376,-2.035,-2.0131,-2.0304,-2.027,-2.0068,-2.0068,-1.9983,-1.9841,-1.9841,-1.9805,-1.9726,-1.9726,-1.9726,1.3564,1.4105,1.4638,1.5235,1.53,1.5102,1.4748,0.0,0.0,0.0,0.0,0.0,0.0,0.0,0.0,0.0,0.0,0.0,0.0,0.0,0.0,0.0,0.0,0.0,0.0,0.0,0.0,0.0,0.0,0.0,0.0,-0.579,-0.6438,-0.7167,-0.8107,-0.8635,-0.872,-0.9417,-0.9827,-0.9946,-1.0049,-1.0539,-1.1362,-1.1442,-1.2141,0.0,0.0,-1.3632,-1.4042,-1.4042,-1.4347,-1.4803,-1.4517,-1.4673,-1.5133,-1.5276,-1.557,-1.6152,-1.7517,-1.8305,-1.8718,-1.8718,-1.8595,-1.8517,-1.8517,-1.8517,-1.8517,-1.8517,-1.8517,-1.8517,-1.8517,-1.8517,-1.8549,-1.8791,-1.8836,-1.8912,-1.9183,-1.9302,-1.9406,-1.9696,-1.9752,-1.9909,-2.0227,-2.0304,-2.0304,-2.0304,-2.0304,-2.0304,-2.0304,-2.0304,-2.0304,-2.0339,-2.0304,-2.0373,-2.0527,-2.0527,-2.0561,-2.0687,-2.072,-2.072,-2.0662,-2.0695,-2.0587,-2.0342,-2.0342,-2.022,-1.9962,-1.9962,-1.9919,-1.9762,-1.9762,-1.9762,1.2593,1.3205,1.3784,1.411,1.4552,1.4789,1.4512,0.0,0.0,0.0,0.0,0.0,0.0,0.0,0.0,0.0,0.0,0.0,0.0,0.0,0.0,0.0,0.0,0.0,0.0,0.0,0.0,0.0,0.0,0.0,0.0,0.0,-0.682,-0.7171,-0.8077,-0.8643,-0.8869,-0.9571,-0.9976,-1.0171,-1.0235,-1.0776,-1.1718,-1.1981,-1.2716,-1.3766,0.0,-1.4228,-1.4453,-1.4453,-1.4646,-1.4866,-1.4908,-1.5127,-1.5461,-1.5978,-1.6529,-1.709,-1.799,-1.8553,-1.8834,-1.8774,-1.8697,-1.8595,-1.8517,-1.8517,-1.8517,-1.8517,-1.8517,-1.8517,-1.8517,-1.8517,-1.851,-1.8659,-1.8791,-1.8943,-1.9101,-1.9391,-1.9667,-1.9795,-1.9945,-2.0108,-2.027,-2.0304,-2.0304,-2.0304,-2.0304,-2.0304,-2.0304,-2.0365,-2.0467,-2.0569,-2.0561,-2.0662,-2.0925,-2.086,-2.086,-2.0966,-2.086,-2.0868,-2.0966,-2.086,-2.0753,-2.062,-2.062,-2.0486,-2.0227,-2.0227,-2.0123,-1.9919,-1.9841,-1.9762,1.1696,1.2419,1.3125,1.3281,0.0,1.4504,1.4327,0.0,0.0,0.0,0.0,0.0,0.0,0.0,0.0,0.0,0.0,0.0,0.0,0.0,0.0,0.0,0.0,0.0,0.0,0.0,0.0,0.0,0.0,0.0,0.0,0.0,-0.7234,-0.7374,-0.816,-0.8765,-0.9106,-0.9725,-1.0132,-1.0356,-1.0532,-1.1062,-1.1927,-1.2394,-1.3157,-1.4146,-1.4482,-1.4762,-1.4965,-1.4965,-1.4999,-1.5076,-1.5455,-1.5699,-1.5903,-1.6844,-1.7496,-1.7995,-1.8468,-1.8812,-1.8986,-1.8882,-1.8774,-1.868,-1.8595,-1.8517,-1.8517,-1.8517,-1.8517,-1.8517,-1.8517,-1.8517,-1.8517,-1.8588,-1.8767,-1.8905,-1.8981,-1.9442,-1.9788,-1.9788,-2.0065,-2.0304,-2.0304,-2.0304,-2.0304,-2.0304,-2.0304,-2.0304,-2.0304,-2.0433,-2.0561,-2.0695,-2.0761,-2.0925,-2.1222,-2.1191,-2.1159,-2.1159,-2.099,-2.099,-2.1127,-2.0998,-2.0893,-2.086,-2.086,-2.072,-2.041,-2.041,-2.0289,-2.0025,-1.9753,-1.9607,1.1073,1.189,1.2684,1.3201,1.3669,0.0,1.4579,0.0,0.0,0.0,0.0,0.0,0.0,0.0,0.0,0.0,0.0,0.0,0.0,0.0,0.0,0.0,0.0,0.0,0.0,0.0,0.0,0.0,0.0,0.0,0.0,0.0,0.0,-0.7938,-0.8724,-0.9252,-0.9478,-0.9883,-1.0278,-1.0587,-1.1,-1.1495,-1.2007,-1.2422,-1.3387,-1.4713,-1.4724,-1.5223,-1.6083,-1.6083,-1.6164,-1.6287,-1.6324,-1.6574,-1.6934,-1.7524,-1.7948,-1.8351,-1.886,-1.904,-1.8993,-1.8993,-1.8872,-1.8718,-1.868,-1.8595,-1.8517,-1.8517,-1.8517,-1.8517,-1.8517,-1.8517,-1.8549,-1.8798,-1.8905,-1.8981,-1.9302,-1.9595,-1.9788,-1.9788,-2.0065,-2.0304,-2.0304,-2.0304,-2.0304,-2.0304,-2.0304,-2.0304,-2.0304,-2.0433,-2.0527,-2.052,-2.0695,-2.0901,-2.1095,-2.1222,-2.1285,-2.1285,-2.1285,-2.1285,-2.1285,-2.1285,-2.1222,-2.1063,-2.1063,-2.0901,-2.0494,-2.0494,-2.035,-2.0093,-1.9432,-1.9083,1.05,1.1473,1.2435,1.2613,0.0,0.0,0.0,0.0,0.0,0.0,0.0,0.0,0.0,0.0,0.0,0.0,0.0,0.0,0.0,0.0,0.0,0.0,0.0,0.0,0.0,0.0,0.0,0.0,0.0,0.0,0.0,0.0,0.0,-0.8308,-0.8777,-0.9252,-0.9737,-0.9961,-1.0261,-1.0682,-1.1298,-1.1966,-1.2658,-1.3566,-1.4493,-1.5456,-1.5684,-1.6028,-1.6399,-1.6399,-1.6436,-1.6479,-1.6479,-1.6723,-1.7144,-1.7352,-1.7834,-1.8468,-1.8662,-1.8867,-1.9048,-1.9024,-1.8896,-1.8767,-1.8704,-1.8595,-1.8517,-1.8517,-1.8517,-1.8517,-1.8517,-1.8517,-1.8549,-1.8836,-1.9064,-1.9288,-1.9603,-1.9882,-2.0108,-2.0108,-2.0227,-2.0304,-2.0304,-2.0304,-2.0339,-2.0392,-2.0365,-2.0373,-2.0595,-2.0561,-2.0595,-2.0868,-2.1023,-2.1151,-2.1222,-2.1285,-2.1317,-2.1317,-2.1317,-2.1317,-2.1317,-2.1317,-2.1285,-2.1222,-2.1214,-2.1119,-2.086,-2.0761,-2.0376,-1.9715,-1.9295,-1.8827,1.0376,1.1442,1.2559,0.0,0.0,0.0,0.0,0.0,0.0,0.0,0.0,0.0,0.0,0.0,0.0,0.0,0.0,0.0,0.0,0.0,0.0,0.0,0.0,0.0,0.0,0.0,0.0,0.0,0.0,0.0,0.0,0.0,0.0,0.0,-0.8988,-0.9359,-0.9734,-0.9882,-1.0086,-1.0316,-1.1341,-1.2119,-1.2789,-1.3821,-1.4847,-1.5706,-1.5973,-1.6218,-1.6515,-1.6515,-1.6515,-1.6515,-1.6515,-1.6772,-1.724,-1.7358,-1.7875,-1.8507,-1.8662,-1.886,-1.9108,-1.9055,-1.8972,-1.8843,-1.8774,-1.8666,-1.8556,-1.8517,-1.8517,-1.8517,-1.8517,-1.8517,-1.8549,-1.8728,-1.9026,-1.9288,-1.9479,-1.9846,-2.0143,-2.0143,-2.0227,-2.0304,-2.0304,-2.0304,-2.0339,-2.0494,-2.0433,-2.0467,-2.0761,-2.0728,-2.0827,-2.1127,-2.1254,-2.1317,-2.1317,-2.1317,-2.1317,-2.1317,-2.1317,-2.1317,-2.1317,-2.1317,-2.1317,-2.1317,-2.1317,-2.1222,-2.1095,-2.0901,-2.0333,-1.9498,-1.9023,-1.8402,1.0725,1.1996,1.3073,0.0,0.0,0.0,0.0,0.0,0.0,0.0,0.0,0.0,0.0,0.0,0.0,0.0,0.0,0.0,0.0,0.0,0.0,0.0,0.0,0.0,0.0,0.0,0.0,0.0,0.0,0.0,0.0,0.0,0.0,0.0,-0.9506,-0.9579,-0.9405,-0.966,-0.9702,-0.9509,-1.1056,-1.1957,-1.2216,-1.2988,-1.409,-1.5466,-1.5229,-1.5641,-1.6509,-1.6515,-1.6515,-1.6515,-1.6515,-1.6772,-1.724,-1.7632,-1.8068,-1.8546,-1.8943,-1.9101,-1.9101,-1.9101,-1.904,-1.8986,-1.8836,-1.8767,-1.868,-1.8556,-1.8517,-1.8517,-1.8517,-1.8517,-1.8517,-1.8517,-1.869,-1.8905,-1.8905,-1.9361,-1.9788,-1.9788,-2.0065,-2.0304,-2.0304,-2.0304,-2.0339,-2.0494,-2.0494,-2.0561,-2.0761,-2.0966,-2.1159,-2.1277,-2.1317,-2.1317,-2.1317,-2.1317,-2.1317,-2.1317,-2.1317,-2.1317,-2.1317,-2.1317,-2.1317,-2.1317,-2.1317,-2.1222,-2.1095,-2.0901,-2.0333,-1.9474,-1.8617,-1.7777,1.0912,1.1975,0.0,0.0,0.0,0.0,0.0,0.0,0.0,0.0,0.0,0.0,0.0,0.0,0.0,0.0,0.0,0.0,0.0,0.0,0.0,0.0,0.0,0.0,0.0,0.0,0.0,0.0,0.0,0.0,0.0,0.0,0.0,0.0,-0.8793,-0.905,-0.947,-0.9406,-0.9486,-0.971,-1.076,-1.1563,-1.2241,-1.3304,-1.4192,-1.4859,-1.5171,-1.5562,-1.5969,-1.6358,-1.6515,-1.6515,-1.6515,-1.6772,-1.7199,-1.7317,-1.7632,-1.8068,-1.8507,-1.8669,-1.8707,-1.9019,-1.904,-1.8986,-1.8941,-1.8851,-1.876,-1.8721,-1.8721,-1.8721,-1.8721,-1.8659,-1.8704,-1.904,-1.9183,-1.9369,-1.979,-2.0045,-2.015,-2.015,-2.0227,-2.0304,-2.0304,-2.0304,-2.0399,-2.0662,-2.0501,-2.0392,-2.0561,-2.0958,-2.1222,-2.1159,-2.1246,-2.1317,-2.1317,-2.1317,-2.1317,-2.1317,-2.1317,-2.1317,-2.1317,-2.1317,-2.1317,-2.1317,-2.1317,-2.1285,-2.1254,-2.1095,-2.0321,-1.8994,-1.8608,-1.7675,1.0969,0.0,0.0,0.0,0.0,0.0,0.0,0.0,0.0,0.0,0.0,0.0,0.0,0.0,0.0,0.0,0.0,0.0,0.0,0.0,0.0,0.0,0.0,0.0,0.0,0.0,0.0,0.0,0.0,0.0,0.0,0.0,0.0,0.0,-0.8727,-0.8791,-0.9168,-0.9173,-0.9229,-0.9425,-1.0208,-1.0862,-1.1379,-1.2759,-1.382,-1.4551,-1.5011,-1.5274,-1.5392,-1.5724,-1.5863,-1.5863,-1.6014,-1.6406,-1.6874,-1.695,-1.7285,-1.7756,-1.8238,-1.8389,-1.8469,-1.8946,-1.9071,-1.9017,-1.9031,-1.8941,-1.8882,-1.8822,-1.8784,-1.8822,-1.9004,-1.9019,-1.8995,-1.9085,-1.9272,-1.9487,-1.9876,-2.0158,-2.0365,-2.0365,-2.0426,-2.0501,-2.0501,-2.0501,-2.0595,-2.0868,-2.0794,-2.0728,-2.0827,-2.1119,-2.1254,-2.1191,-2.1254,-2.1317,-2.1317,-2.1317,-2.1317,-2.1317,-2.1317,-2.1317,-2.1317,-2.1317,-2.1317,-2.1317,-2.1317,-2.1317,-2.1317,-2.0869,-2.0063,-1.8864,-1.8314,-1.7391,0.0,0.0,0.0,0.0,0.0,0.0,0.0,0.0,0.0,0.0,0.0,0.0,0.0,0.0,0.0,0.0,0.0,0.0,0.0,0.0,0.0,0.0,0.0,0.0,0.0,0.0,0.0,0.0,0.0,0.0,0.0,0.0,0.0,-0.9517,-0.91,-0.8865,-0.8828,-0.9014,-0.9077,0.0,-0.9678,-1.0027,-1.012,-1.1698,-1.3118,-1.4362,-1.4712,-1.4897,-1.4909,-1.4909,-1.4909,-1.4948,-1.5228,-1.5749,-1.6271,-1.6437,-1.6842,-1.7397,-1.7878,-1.8079,-1.8216,-1.884,-1.9058,-1.9108,-1.9017,-1.9031,-1.8979,-1.8874,-1.8822,-1.8891,-1.9266,-1.9376,-1.9266,-1.8858,-1.9153,-1.9487,-1.9516,-2.0038,-2.0527,-2.0527,-2.0662,-2.0794,-2.0794,-2.0794,-2.086,-2.1063,-2.1183,-2.1285,-2.1277,-2.1285,-2.1317,-2.1317,-2.1317,-2.1317,-2.1309,-2.1309,-2.1309,-2.1309,-2.1309,-2.1317,-2.1317,-2.1317,-2.1317,-2.1317,-2.1317,-2.1285,-2.1228,-2.0411,-1.9637,-1.8868,-1.7909,-1.7044,0.0,1.1953,0.0,0.0,0.0,0.0,0.0,0.0,0.0,0.0,0.0,0.0,0.0,0.0,0.0,0.0,0.0,0.0,0.0,0.0,0.0,0.0,0.0,0.0,0.0,0.0,0.0,0.0,0.0,0.0,0.0,0.0,0.0,-0.9586,-0.9478,-0.9547,-0.9804,-0.9442,-0.9669,0.0,-1.0149,-1.0219,-1.0659,-1.132,-1.2425,-1.3776,-1.397,-1.4406,-1.498,-1.4909,-1.4909,-1.4909,-1.498,-1.5095,-1.5267,-1.5537,-1.575,-1.5968,-1.6689,-1.7263,-1.7738,-1.8231,-1.8716,-1.9108,-1.9071,-1.9071,-1.9071,-1.9026,-1.9026,-1.9064,-1.9131,-1.9116,-1.9123,-1.928,-1.9775,-2.0239,-2.0444,-2.062,-2.0728,-2.0728,-2.0761,-2.0794,-2.0794,-2.0794,-2.0827,-2.086,-2.1119,-2.1254,-2.1167,-2.1222,-2.1317,-2.1317,-2.1317,-2.1309,-2.1355,-2.134,-2.1309,-2.1394,-2.134,-2.1317,-2.1317,-2.1317,-2.1317,-2.1317,-2.1317,-2.105,-2.0515,-2.034,-1.9501,-1.8139,-1.7896,-1.7286,0.0,0.0,0.0,0.0,0.0,0.0,0.0,0.0,0.0,0.0,0.0,0.0,0.0,0.0,0.0,0.0,0.0,0.0,0.0,0.0,0.0,0.0,0.0,0.0,0.0,0.0,0.0,0.0,0.0,0.0,0.0,-1.0261,-1.0227,-0.975,-0.9641,-0.962,-0.9726,-0.973,-0.9948,-1.0382,-1.048,-1.0764,-1.1234,-1.1505,-1.2204,-1.3222,-1.3385,-1.3757,-1.4226,-1.4123,-1.4086,-1.4086,-1.4256,-1.4524,-1.4797,-1.4849,-1.5156,-1.5596,-1.602,-1.669,-1.7455,-1.8021,-1.8615,-1.9101,-1.9101,-1.9101,-1.9101,-1.9101,-1.9101,-1.9139,-1.9354,-1.9369,-1.9406,-1.9767,-1.998,-2.0189,-2.0553,-2.0794,-2.0925,-2.0925,-2.0998,-2.1055,-2.1055,-2.1055,-2.1055,-2.1055,-2.1191,-2.1285,-2.1183,-2.1277,-2.1332,-2.1332,-2.1419,-2.145,-2.1503,-2.1472,-2.145,-2.1503,-2.1472,-2.1264,-2.09,-2.0884,-2.0854,-2.0831,-2.0475,-2.0119,-1.9762,-1.9414,-1.8828,-1.7979,-1.7562,-1.7051,0.0,0.0,0.0,0.0,0.0,0.0,0.0,0.0,0.0,0.0,0.0,0.0,0.0,0.0,0.0,0.0,0.0,0.0,0.0,0.0,0.0,0.0,0.0,0.0,0.0,0.0,0.0,0.0,0.0,0.0,-1.0654,-1.0552,-1.0337,-1.0016,-0.9833,-0.9643,-0.948,-0.9901,-1.0114,-1.0037,-1.0785,-1.1278,-1.156,-1.1766,-1.2203,-1.2803,-1.2955,-1.3163,-1.3329,-1.3295,-1.3232,-1.3232,-1.352,-1.3961,-1.4424,-1.4266,-1.4677,-1.5379,-1.5518,-1.6146,-1.7074,-1.7782,-1.8448,-1.8941,-1.8941,-1.8941,-1.892,-1.8804,-1.8775,-1.8877,-1.9316,-1.9453,-1.9548,-2.0012,-2.0,-2.0,-2.0368,-2.0819,-2.1127,-2.1127,-2.1214,-2.1317,-2.1317,-2.1317,-2.1317,-2.1317,-2.1317,-2.1309,-2.1317,-2.1363,-2.1417,-2.1425,-2.1542,-2.1612,-2.162,-2.162,-2.1612,-2.162,-2.162,-2.1231,-2.0453,-2.0429,-2.0256,-1.9924,-1.9459,-1.9143,-1.9021,-1.8394,-1.8038,-1.7908,-1.7181,-1.6771,0.0,0.0,0.0,0.0,0.0,0.0,0.0,0.0,0.0,0.0,0.0,0.0,0.0,0.0,0.0,0.0,0.0,0.0,0.0,0.0,0.0,0.0,0.0,0.0,0.0,0.0,0.0,0.0,0.0,0.0,-1.0943,-1.0557,-1.0393,-1.0494,-1.0321,-1.0204,-1.026,-0.9975,-1.0218,-1.0929,-1.1112,-1.1117,-1.1032,-1.1527,-1.2095,-1.2709,-1.2809,-1.2949,-1.317,-1.3357,-1.3357,-1.3232,-1.3391,-1.3435,-1.343,-1.3674,-1.3854,-1.4053,-1.4685,-1.5332,-1.6071,-1.7019,-1.7788,-1.8325,-1.8325,-1.8325,-1.8208,-1.7621,-1.7461,-1.7592,-1.8243,-1.8396,-1.8664,-1.9624,-2.0054,-2.033,-2.0679,-2.1015,-2.1285,-2.1285,-2.1285,-2.1317,-2.1317,-2.1317,-2.1317,-2.1317,-2.1317,-2.1309,-2.1386,-2.1386,-2.1425,-2.155,-2.1581,-2.1612,-2.1694,-2.1634,-2.1612,-2.1686,-2.1642,-2.1262,-2.0533,-2.05,-1.9845,-1.8516,-1.894,-1.89,-1.824,-1.8143,-1.7795,-1.7237,-1.7115,-1.6898,0.0,0.0,0.0,0.0,0.0,0.0,0.0,0.0,0.0,0.0,0.0,0.0,0.0,0.0,0.0,0.0,0.0,0.0,0.0,0.0,0.0,0.0,0.0,0.0,0.0,0.0,0.0,0.0,0.0,-1.0321,-1.038,-1.0176,-1.0066,-1.0038,-1.0245,-1.0194,-0.9898,-1.0139,-1.056,-1.121,-1.121,-1.1142,-1.1087,-1.1188,-1.1775,-1.2709,-1.2803,-1.2972,-1.3173,-1.3412,-1.3452,-1.3357,-1.3425,-1.3391,-1.3357,-1.3675,-1.3914,-1.4118,-1.4606,-1.5315,-1.6049,-1.6489,-1.7098,-1.765,-1.7677,-1.7684,-1.7584,-1.7374,-1.7301,-1.7427,-1.8083,-1.8258,-1.8482,-1.9309,-1.9922,-2.0356,-2.0589,-2.1071,-2.1458,-2.1458,-2.1458,-2.1458,-2.1458,-2.1458,-2.1458,-2.1458,-2.1458,-2.1481,-2.1511,-2.1556,-2.1587,-2.1664,-2.1694,-2.1708,-2.1768,-2.1746,-2.1708,-2.1768,-2.1328,-2.0747,-1.9978,-1.9523,-1.8807,-1.7714,-1.8315,-1.827,-1.7528,-1.7528,-1.74,-1.7108,-1.7108,-1.6914,0.0,0.0,0.0,0.0,0.0,0.0,0.0,0.0,0.0,0.0,0.0,0.0,0.0,0.0,0.0,0.0,0.0,0.0,0.0,0.0,0.0,0.0,0.0,0.0,0.0,0.0,0.0,0.0,0.0,-0.913,-0.9868,-0.9866,-0.9745,-0.9524,-0.9916,-0.989,-0.9441,-1.0053,-1.0516,-1.0856,-1.0996,-1.1064,-1.1009,-1.0984,-1.1443,-1.2305,-1.2598,-1.2858,-1.3034,-1.3429,-1.356,-1.3486,-1.352,-1.3486,-1.3452,-1.3709,-1.3973,-1.428,-1.4606,-1.5233,-1.5932,-1.6201,-1.6626,-1.7034,-1.7074,-1.7067,-1.6998,-1.6938,-1.6869,-1.7042,-1.7888,-1.81,-1.8298,-1.9185,-1.9839,-2.033,-2.0714,-2.1198,-2.1589,-2.1589,-2.1589,-2.1589,-2.1589,-2.1589,-2.1589,-2.1589,-2.1589,-2.162,-2.1612,-2.1664,-2.1724,-2.1708,-2.1768,-2.1789,-2.1789,-2.1615,-2.1508,-2.1508,-2.082,-2.0064,-1.9275,-1.8895,-1.8268,-1.7355,-1.7945,-1.7884,-1.7141,-1.7108,-1.7108,-1.7108,-1.7108,-1.694,0.0,0.0,0.0,0.0,0.0,0.0,0.0,0.0,0.0,0.0,0.0,0.0,0.0,0.0,0.0,0.0,0.0,0.0,0.0,0.0,0.0,0.0,0.0,0.0,0.0,0.0,0.0,0.0,0.0,-0.6308,-0.9722,-0.9732,-0.9508,-0.9326,-0.9334,-0.9323,-0.9224,-0.9497,-0.967,-0.9702,-1.0383,-1.0659,-1.0548,-1.0979,-1.1136,-1.1134,-1.1961,-1.2364,-1.2524,-1.3421,-1.3674,-1.352,-1.3581,-1.3547,-1.3486,-1.352,-1.3742,-1.4058,-1.4413,-1.4749,-1.5217,-1.6179,-1.6515,-1.6551,-1.6544,-1.6544,-1.6419,-1.5764,-1.5617,-1.5875,-1.7202,-1.7541,-1.7899,-1.9277,-1.9841,-2.0368,-2.1348,-2.1581,-2.1589,-2.1589,-2.1589,-2.1589,-2.1589,-2.1589,-2.1589,-2.1589,-2.1589,-2.1612,-2.1694,-2.1686,-2.1708,-2.1789,-2.1789,-2.1789,-2.1789,-2.1172,-2.0774,-2.0774,-2.0075,-1.9311,-1.8575,-1.9187,-1.8864,-1.7428,-1.8054,-1.7986,-1.7182,-1.7141,-1.7108,-1.7108,-1.7108,-1.6983,0.0,0.0,0.0,0.0,0.0,0.0,0.0,0.0,0.0,0.0,0.0,0.0,0.0,0.0,0.0,0.0,0.0,0.0,0.0,0.0,0.0,0.0,0.0,0.0,0.0,0.0,0.0,0.0,0.0,0.0,-0.9451,-0.9411,-0.9198,-0.9057,-0.9292,-0.9399,-0.9328,-0.9546,-0.9684,-0.9736,-1.0027,-1.0168,-1.0127,-1.0196,-1.0226,-1.0272,-1.1063,-1.1538,-1.1808,-1.2388,-1.2842,-1.3136,-1.3129,-1.3324,-1.3588,-1.3855,-1.398,-1.4091,-1.4627,-1.4914,-1.5072,-1.5667,-1.5845,-1.5875,-1.5913,-1.5875,-1.5831,-1.5706,-1.5639,-1.5884,-1.7223,-1.7548,-1.8026,-1.9813,-2.0571,-2.1039,-2.1609,-2.1686,-2.1664,-2.1716,-2.1746,-2.1746,-2.1746,-2.1746,-2.1746,-2.1746,-2.1746,-2.1746,-2.1768,-2.1759,-2.1759,-2.1797,-2.1789,-2.1599,-2.1118,-2.0837,-2.0489,-2.0025,-1.9295,-1.8774,-1.8501,-1.8344,-1.8013,-1.7475,-1.7658,-1.756,-1.7207,-1.7174,-1.7141,-1.7108,-1.7108,-1.6983,0.0,0.0,0.0,0.0,0.0,0.0,0.0,0.0,0.0,0.0,0.0,0.0,0.0,0.0,0.0,0.0,0.0,0.0,0.0,0.0,0.0,0.0,0.0,0.0,0.0,0.0,0.0,0.0,0.0,0.0,-0.7286,-0.8546,-0.9145,-0.9095,-0.9366,-0.9479,-0.9402,-0.9573,-0.971,-0.9756,-0.988,-0.9925,-0.9925,-0.9828,-0.9756,-0.9801,-1.0313,-1.0806,-1.1299,-1.1812,-1.2346,-1.2886,-1.2886,-1.3213,-1.3695,-1.3974,-1.4092,-1.4169,-1.461,-1.4835,-1.4989,-1.5322,-1.5418,-1.5448,-1.561,-1.5639,-1.5639,-1.577,-1.5733,-1.598,-1.728,-1.7967,-1.8658,-2.0136,-2.0803,-2.1206,-2.1548,-2.1678,-2.1746,-2.1789,-2.1789,-2.1706,-2.1458,-2.1416,-2.1342,-2.1102,-2.1267,-2.1334,-2.1093,-2.1483,-2.1607,-2.111,-2.1276,-2.1118,-2.039,-2.0091,-1.9752,-1.9253,-1.8568,-1.817,-1.817,-1.7731,-1.7506,-1.7506,-1.7451,-1.7379,-1.7224,-1.7207,-1.7174,-1.7141,-1.7108,-1.7016,0.0,0.0,0.0,0.0,0.0,0.0,0.0,0.0,0.0,0.0,0.0,0.0,0.0,0.0,0.0,0.0,0.0,0.0,0.0,0.0,0.0,0.0,0.0,0.0,0.0,0.0,0.0,0.0,0.0,0.0147,-0.3317,-0.7194,-0.9366,-0.9491,-0.9517,-0.9479,-0.9408,-0.9526,-0.9638,-0.971,-0.9887,-0.9976,-0.9995,-0.9906,-0.9816,-0.971,-0.9782,-1.0246,-1.1022,-1.1676,-1.2324,-1.2871,-1.2884,-1.3264,-1.3795,-1.3815,-1.4007,-1.4293,-1.4326,-1.455,-1.4856,-1.5209,-1.5322,-1.5389,-1.5704,-1.5799,-1.5799,-1.5799,-1.5799,-1.6098,-1.7386,-1.8702,-1.9782,-2.0112,-2.0504,-2.0893,-2.119,-2.1515,-2.1764,-2.1756,-2.1756,-2.1516,-2.0779,-2.0683,-2.0414,-1.97,-2.0207,-2.0406,-1.9684,-2.0853,-2.1193,-1.9741,-2.024,-2.0365,-1.9626,-1.8906,-1.8484,-1.846,-1.7855,-1.7506,-1.7506,-1.7506,-1.7506,-1.7506,-1.7506,-1.7435,-1.7314,-1.7224,-1.7207,-1.7207,-1.7141,-1.7108,0.4426,0.0,0.0,0.0,0.0,0.0,0.0,0.0,0.0,0.0,0.0,0.0,0.0,0.0,0.0,0.0,0.0,0.0,0.0,0.0,0.0,0.0,0.0,0.0,0.0,0.0,0.0,0.0,0.5941,0.2745,-0.3385,-0.7399,-0.9552,-0.9638,-0.973,-0.9704,-0.9558,-0.9678,-0.9684,-0.9564,-0.9473,-0.9603,-0.9912,-0.9559,-0.9566,-0.9854,-0.9854,-0.9967,-1.0183,-1.0599,-1.1229,-1.1997,-1.2428,-1.2994,-1.3554,-1.4016,-1.4312,-1.4547,-1.4797,-1.502,-1.5277,-1.5617,-1.5704,-1.5675,-1.577,-1.5799,-1.5799,-1.5799,-1.5799,-1.6098,-1.7386,-1.8883,-2.0077,-2.0174,-2.0504,-2.0758,-2.0553,-2.0592,-2.0703,-2.0965,-2.1014,-2.0762,-2.0042,-1.989,-1.9824,-1.9626,-1.9758,-1.9824,-1.9626,-1.9948,-2.0039,-1.9642,-1.9775,-1.9619,-1.8865,-1.8608,-1.8278,-1.7806,-1.7614,-1.7506,-1.7506,-1.7506,-1.7506,-1.7506,-1.7506,-1.7483,-1.7427,-1.7338,-1.7215,-1.7141,-1.7108,-1.7108,0.0,0.0,0.0,0.0,0.0,0.0,0.0,0.9077,0.0,0.0,0.0,0.0,0.0,0.0,0.0,0.0,0.0,0.0,0.0,0.0,0.0,0.0,0.0,0.0,0.0,0.0,0.0,0.9125,0.7665,0.4395,-0.1296,-0.3792,-0.5782,-0.7384,-0.7542,-0.8167,-0.9366,-0.9442,-0.9286,-0.8918,-0.8844,-0.8966,-0.9226,-0.901,-0.9146,-0.9573,-0.9573,-0.9698,-0.9905,-1.0224,-1.0748,-1.1402,-1.1851,-1.2397,-1.2981,-1.3617,-1.3994,-1.4286,-1.4729,-1.5006,-1.5262,-1.558,-1.5639,-1.561,-1.577,-1.5799,-1.5799,-1.5799,-1.5964,-1.6353,-1.7085,-1.8205,-1.9246,-1.969,-1.9968,-2.0096,-2.0056,-2.0112,-2.0202,-2.0251,-2.024,-2.0017,-1.9262,-1.9138,-1.9038,-1.8783,-1.8947,-1.903,-1.8766,-1.9229,-1.9361,-1.8799,-1.8964,-1.884,-1.8145,-1.8087,-1.7913,-1.7531,-1.7506,-1.7506,-1.7506,-1.7506,-1.7506,-1.7506,-1.7506,-1.7491,-1.7467,-1.7362,-1.7232,-1.7108,-1.7108,-1.7108,0.0,0.0,0.0,0.0,0.0,0.0,0.7107,0.7775,0.0,0.0,0.0,0.0,0.0,0.0,0.0,0.0,0.0,0.0,0.0,0.0,0.0,0.0,0.0,0.0,0.0,1.1936,1.192,1.1984,0.8752,0.541,0.2269,0.1574,-0.0263,-0.3608,-0.4114,-0.5685,-0.85,-0.8781,-0.8636,-0.8072,-0.8155,-0.8219,-0.8297,-0.8354,-0.8606,-0.9033,-0.9072,-0.9409,-0.9907,-1.0242,-1.0606,-1.0988,-1.1336,-1.1756,-1.2263,-1.2937,-1.342,-1.3821,-1.4372,-1.4758,-1.5036,-1.5352,-1.5411,-1.5441,-1.5733,-1.5799,-1.5799,-1.5799,-1.6234,-1.6712,-1.6712,-1.7204,-1.7937,-1.8816,-1.906,-1.9174,-1.9476,-1.9767,-1.9845,-1.944,-1.9427,-1.9245,-1.8501,-1.8377,-1.8195,-1.7598,-1.8013,-1.8178,-1.7589,-1.8592,-1.8899,-1.7615,-1.8029,-1.8153,-1.7541,-1.7506,-1.7506,-1.7506,-1.7506,-1.7506,-1.7506,-1.7506,-1.7506,-1.7506,-1.7506,-1.7467,-1.7403,-1.7322,-1.724,-1.7108,-1.7108,-1.7108,0.1587,0.2108,0.253,0.3078,0.0,0.0,0.5433,0.6586,0.0,0.0,0.0,0.0,0.0,0.0,0.0,0.0,0.0,0.0,0.0,0.0,0.0,0.0,0.0,0.0,0.0,1.2185,1.192,1.192,0.8692,0.6429,0.58,0.2817,0.0762,-0.0097,-0.2544,-0.4211,-0.4988,-0.7231,-0.8208,-0.7938,-0.7625,-0.7752,-0.8205,-0.7803,-0.7958,-0.8552,-0.8943,-0.9147,-0.9229,-0.9843,-1.0345,-1.0829,-1.1582,-1.1955,-1.2109,-1.2802,-1.3495,-1.412,-1.4242,-1.4841,-1.5558,-1.5631,-1.5725,-1.5862,-1.5892,-1.5863,-1.5863,-1.5835,-1.6234,-1.6712,-1.6712,-1.7204,-1.7752,-1.7945,-1.8201,-1.8331,-1.8071,-1.8251,-1.8324,-1.7988,-1.8352,-1.8484,-1.7806,-1.769,-1.764,-1.7523,-1.7599,-1.7664,-1.7523,-1.7731,-1.7789,-1.754,-1.7631,-1.7632,-1.7523,-1.7506,-1.7506,-1.7506,-1.7506,-1.7506,-1.7506,-1.7506,-1.7506,-1.7506,-1.7506,-1.7467,-1.7403,-1.7281,-1.7207,-1.7174,-1.7141,-1.7108,0.0587,0.1116,0.1574,0.213,0.0,0.0,0.0,0.0,0.574,0.771,0.0,0.0,0.0,0.0,0.0,0.0,0.0,0.0,0.0,0.0,0.0,0.0,0.0,0.0,0.0,1.3026,1.2711,1.2411,1.048,0.9318,0.9377,0.7568,0.5505,0.3208,0.1583,-0.0788,-0.3963,-0.5471,-0.655,-0.7198,-0.7031,-0.7094,-0.7355,-0.7143,-0.7395,-0.8034,-0.853,-0.8874,-0.9098,-0.9773,-1.0173,-1.0406,-1.1012,-1.1328,-1.1528,-1.2181,-1.2779,-1.3375,-1.4003,-1.4649,-1.5311,-1.5605,-1.5839,-1.5996,-1.5962,-1.5962,-1.5942,-1.5863,-1.6075,-1.6293,-1.6256,-1.6503,-1.6832,-1.713,-1.733,-1.7387,-1.7187,-1.7501,-1.7663,-1.7154,-1.7568,-1.7888,-1.7573,-1.7506,-1.7506,-1.7506,-1.7506,-1.7506,-1.7506,-1.7506,-1.7506,-1.7506,-1.7506,-1.7506,-1.7506,-1.7506,-1.7506,-1.7506,-1.7506,-1.7506,-1.7506,-1.7506,-1.7506,-1.7506,-1.7506,-1.7483,-1.7443,-1.7355,-1.7257,-1.7207,-1.7174,-1.7141,0.0,0.0,0.0,0.0,0.0,0.1773,0.0,0.0,0.0,0.6201,0.0,0.0,0.0,0.0,0.0,0.0,0.0,0.0,0.0,0.0,0.0,0.0,0.0,0.0,0.0,1.3834,1.3578,1.3095,1.2434,1.2087,1.2116,1.2017,1.03,0.6694,0.5899,0.3072,-0.2084,-0.3293,-0.4534,-0.5873,-0.6357,-0.6552,-0.651,-0.6614,-0.6937,-0.7432,-0.7995,-0.8505,-0.9002,-0.9646,-0.9982,-1.0129,-1.0418,-1.0663,-1.0935,-1.1474,-1.1932,-1.2463,-1.3451,-1.4096,-1.4609,-1.5201,-1.5649,-1.594,-1.6004,-1.6004,-1.5975,-1.5934,-1.5921,-1.5913,-1.5856,-1.5848,-1.5955,-1.6428,-1.6631,-1.6691,-1.6691,-1.7143,-1.743,-1.6891,-1.7158,-1.7506,-1.7506,-1.7506,-1.7506,-1.7506,-1.7506,-1.7506,-1.7506,-1.7506,-1.7506,-1.7506,-1.7506,-1.7506,-1.7506,-1.7506,-1.7506,-1.7506,-1.7506,-1.7506,-1.7506,-1.7506,-1.7506,-1.7506,-1.7506,-1.7506,-1.7506,-1.7451,-1.7346,-1.7224,-1.7207,-1.7149,0.0,0.0,0.0,0.0,-0.0048,0.0,0.0,0.0,0.1637,0.2145,0.0,0.0,0.0,0.0,0.0,0.0,0.0,0.0,0.0,0.0,0.0,0.0,0.0,0.0,0.0,0.0,1.3747,1.3622,1.2999,1.2603,1.2609,1.2104,1.1505,1.0827,0.8137,0.6033,0.4606,-0.0249,-0.2985,-0.3607,-0.5563,-0.6506,-0.651,-0.651,-0.6594,-0.6759,-0.7413,-0.7955,-0.8442,-0.8976,-0.9705,-1.0467,-1.0614,-1.0712,-1.0767,-1.1075,-1.1535,-1.2077,-1.2193,-1.2784,-1.3571,-1.4175,-1.4992,-1.5775,-1.6032,-1.606,-1.6004,-1.5975,-1.5975,-1.5975,-1.5975,-1.5975,-1.597,-1.5983,-1.6354,-1.6683,-1.6619,-1.7096,-1.7502,-1.7419,-1.7451,-1.7506,-1.7506,-1.7506,-1.7506,-1.7506,-1.7506,-1.7506,-1.7506,-1.7506,-1.7506,-1.7506,-1.7506,-1.7506,-1.7506,-1.7506,-1.7506,-1.7506,-1.7506,-1.7506,-1.7506,-1.7506,-1.7506,-1.7506,-1.7506,-1.7506,-1.7506,-1.7483,-1.7411,-1.7289,-1.7224,-1.7149,0.0,0.0,0.0,0.0,0.0,0.0,-0.1019,0.0,-0.0352,0.0,0.0,0.0,0.0,0.0,0.0,0.0,0.0,0.0,0.0,0.0,0.0,0.0,0.0,0.0,0.0,0.0,0.0,0.0,0.0,1.2635,1.2414,1.2125,1.1533,1.0596,0.9427,0.759,0.5024,0.2673,-0.0072,-0.3208,-0.4068,-0.5199,-0.6563,-0.6516,-0.6557,-0.6693,-0.7317,-0.7694,-0.7887,-0.8676,-0.9282,-0.9793,-1.029,-1.0674,-1.0951,-1.1069,-1.1254,-1.1528,-1.1886,-1.2334,-1.2976,-1.4202,-1.5145,-1.587,-1.6103,-1.6131,-1.6095,-1.6067,-1.6067,-1.606,-1.6004,-1.6004,-1.6032,-1.6159,-1.6363,-1.6554,-1.6625,-1.6968,-1.7265,-1.7216,-1.737,-1.7506,-1.7506,-1.7506,-1.7506,-1.7506,-1.7506,-1.7506,-1.7506,-1.7506,-1.7506,-1.7506,-1.7506,-1.7506,-1.7506,-1.7506,-1.7506,-1.7506,-1.749,-1.7505,-1.7505,-1.7552,-1.7567,-1.7567,-1.7529,-1.7505,-1.7505,-1.7498,-1.7459,-1.7346,-1.733,-1.7257,-0.3262,0.0,0.0,0.0,0.0,0.0,0.0,0.0,0.0,0.0,0.0,0.0,0.0,0.0,0.0,0.0,0.0,0.0,0.0,0.0,0.0,0.0,0.0,0.0,0.0,0.0,0.0,0.0,0.0,0.0,1.2499,1.2162,1.1454,1.0377,1.028,0.8856,0.5952,0.5011,0.2346,-0.2054,-0.2739,-0.4287,-0.6564,-0.6522,-0.655,-0.6674,-0.7151,-0.742,-0.7585,-0.8386,-0.8951,-0.9409,-1.0076,-1.0636,-1.1092,-1.1092,-1.1092,-1.1148,-1.1598,-1.211,-1.2788,-1.4124,-1.5122,-1.5827,-1.6111,-1.6194,-1.6194,-1.6131,-1.6131,-1.6131,-1.6067,-1.606,-1.6095,-1.6289,-1.6363,-1.6463,-1.6599,-1.6901,-1.7101,-1.706,-1.7313,-1.7514,-1.7498,-1.7506,-1.7506,-1.7506,-1.7506,-1.7506,-1.7506,-1.7506,-1.7506,-1.7506,-1.7506,-1.7506,-1.7506,-1.7506,-1.7506,-1.7498,-1.7497,-1.7512,-1.7536,-1.7566,-1.7612,-1.7612,-1.7527,-1.7512,-1.7512,-1.7498,-1.7459,-1.7427,-1.7403,-1.733,0.0,0.0,0.0,-0.3251,0.0,0.0,0.0,0.0,-0.3556,0.0,0.0,0.0,0.0,0.0,0.0,0.0,0.0,0.0,0.0,0.0,0.0,0.0,0.0,0.0,0.0,0.0,0.0,0.0,0.0,0.0,1.3246,1.2218,1.156,1.144,1.0761,1.0113,0.9542,0.65,0.3593,0.0825,-0.1896,-0.436,-0.6501,-0.6505,-0.651,-0.651,-0.6668,-0.7062,-0.7624,-0.8047,-0.8799,-0.9733,-1.02,-1.0681,-1.1092,-1.1092,-1.1092,-1.1092,-1.1113,-1.1946,-1.3055,-1.3561,-1.4537,-1.5602,-1.6075,-1.6194,-1.6194,-1.6194,-1.6194,-1.6194,-1.6194,-1.6194,-1.6194,-1.6123,-1.6301,-1.6474,-1.6417,-1.6815,-1.7191,-1.7183,-1.7408,-1.7574,-1.7512,-1.749,-1.7506,-1.7506,-1.7506,-1.7506,-1.7506,-1.7506,-1.7506,-1.7506,-1.7506,-1.7506,-1.7506,-1.7506,-1.7498,-1.7489,-1.7512,-1.7527,-1.7589,-1.7612,-1.7612,-1.7612,-1.7527,-1.7512,-1.7512,-1.7498,-1.7506,-1.7491,-1.7427,-1.7346,0.0,0.0,-0.347,-0.3675,0.0,0.0,0.0,0.0,0.0,0.0,0.0,0.0,0.0,0.0,0.0,0.0,0.0,0.0,0.0,0.0,0.0,0.0,0.0,0.0,0.0,0.0,0.0,0.0,0.0,0.0,0.0,1.2335,1.1604,1.0719,1.0649,1.0148,0.9177,0.7886,0.5883,0.3148,0.0425,-0.2071,-0.4295,-0.5763,-0.6453,-0.6506,-0.6547,-0.6675,-0.6905,-0.7411,-0.8193,-0.9152,-0.9672,-1.0359,-1.1092,-1.1092,-1.1092,-1.1115,-1.1254,-1.1834,-1.2682,-1.3537,-1.4371,-1.5164,-1.5965,-1.6194,-1.6194,-1.6194,-1.6194,-1.6194,-1.6194,-1.6159,-1.6179,-1.6382,-1.6482,-1.652,-1.6641,-1.6833,-1.6977,-1.6876,-1.6943,-1.706,-1.7272,-1.7232,-1.7248,-1.7483,-1.7506,-1.7506,-1.7506,-1.7506,-1.7506,-1.7506,-1.7506,-1.7506,-1.7506,-1.749,-1.7497,-1.7512,-1.7589,-1.765,-1.7673,-1.7712,-1.7735,-1.7735,-1.7658,-1.7612,-1.7574,-1.7512,-1.749,-1.7506,-1.7467,-1.7419,-0.3424,-0.3394,0.0,-0.3811,-0.3761,0.0,-0.4532,0.0,0.0,0.0,0.0,0.0,0.0,0.0,0.0,0.0,0.0,0.0,0.0,0.0,0.0,0.0,0.0,0.0,0.0,0.0,0.7994,1.1064,0.0,0.0,0.0,0.0,1.1499,1.0427,1.0336,0.9903,0.9095,0.849,0.6963,0.4551,0.2448,-0.0137,-0.3109,-0.4548,-0.5682,-0.6536,-0.649,-0.6506,-0.6618,-0.7099,-0.7892,-0.8859,-0.938,-1.0205,-1.1092,-1.1092,-1.1092,-1.1139,-1.133,-1.1794,-1.2494,-1.3555,-1.4317,-1.498,-1.5924,-1.6194,-1.6194,-1.6194,-1.6194,-1.6194,-1.6194,-1.6159,-1.6143,-1.6355,-1.6375,-1.6367,-1.6509,-1.6651,-1.674,-1.6644,-1.673,-1.685,-1.7035,-1.7085,-1.7191,-1.7482,-1.7522,-1.7506,-1.7498,-1.749,-1.749,-1.749,-1.7514,-1.7537,-1.7537,-1.7544,-1.7551,-1.7566,-1.765,-1.7718,-1.7718,-1.778,-1.7811,-1.7811,-1.7718,-1.7695,-1.7635,-1.7566,-1.7512,-1.749,-1.749,-1.7483]}]]